[[{"header":{"parameterUnit":"m.s-1","parameterCategory":1,"la1":30.6,"la2":28.766,"lo1":-90.7593,"lo2":-88.6598,"dx":0.0162,"dy":0.0183,"nx":116,"ny":114,"refTime":"2022-12-17T06:00:00:Z","depth":0,"parameterNumber":2,"parameterNumberName":"U-component_of_WINDS"},"data":[0.0,0.0,0.0,0.0,0.0,0.0,0.0,0.0,0.0,0.0,0.0,0.0,0.0,0.0,0.0,0.0,0.0,0.0,0.0,0.0,0.0,0.0,0.0,0.0,0.0,0.0,0.0,0.0,0.0,0.0,0.0,0.0,0.0,0.0,0.0,0.0,0.0,0.0,0.0,0.0,0.0,0.0,0.0,0.0,0.0,0.0,0.0,0.0,0.0,0.0,0.0,0.0,0.0,0.0,0.0,0.0,0.0,0.0,0.0,0.0,0.0,0.0,0.0,0.0,0.0,0.0,0.0,0.0,0.0,0.0,0.0,0.0,0.0,0.0,0.0,0.0,0.0,0.0,0.0,0.0,0.0,0.0,0.0,0.0,0.0,0.0,0.0,0.0,0.0,0.0,0.0,0.0,0.0,0.0,0.0,0.0,0.0,0.0,0.0,0.0,0.0,0.0,0.0,0.0,0.0,0.0,0.0,0.0,0.0,0.0,0.0,0.0,0.0,0.0,0.0,0.0,0.0,0.0,0.0,0.0,0.0,0.0,0.0,0.0,0.0,0.0,0.0,0.0,0.0,0.0,0.0,0.0,0.0,0.0,0.0,0.0,0.0,0.0,0.0,0.0,0.0,0.0,0.0,0.0,0.0,0.0,0.0,0.0,0.0,0.0,0.0,0.0,0.0,0.0,0.0,0.0,0.0,0.0,0.0,0.0,0.0,0.0,0.0,0.0,0.0,0.0,0.0,0.0,0.0,0.0,0.0,0.0,0.0,0.0,0.0,0.0,0.0,0.0,0.0,0.0,0.0,0.0,0.0,0.0,0.0,0.0,0.0,0.0,0.0,0.0,0.0,0.0,0.0,0.0,0.0,0.0,0.0,0.0,0.0,0.0,0.0,0.0,0.0,0.0,0.0,0.0,0.0,0.0,0.0,0.0,0.0,0.0,0.0,0.0,0.0,0.0,0.0,0.0,0.0,0.0,0.0,0.0,0.0,0.0,0.0,0.0,0.0,0.0,0.0,0.0,0.0,0.0,0.0,0.0,0.0,0.0,0.0,0.0,0.0,0.0,0.0,0.0,0.0,0.0,0.0,0.0,0.0,0.0,0.0,0.0,0.0,0.0,0.0,0.0,0.0,0.0,0.0,0.0,0.0,0.0,0.0,0.0,0.0,0.0,0.0,0.0,0.0,0.0,0.0,0.0,0.0,0.0,0.0,0.0,0.0,0.0,0.0,0.0,0.0,0.0,0.0,0.0,0.0,0.0,0.0,0.0,0.0,0.0,0.0,0.0,0.0,0.0,0.0,0.0,0.0,0.0,0.0,0.0,0.0,0.0,0.0,0.0,0.0,0.0,0.0,0.0,0.0,0.0,0.0,0.0,0.0,0.0,0.0,0.0,0.0,0.0,0.0,0.0,0.0,0.0,0.0,0.0,0.0,0.0,0.0,0.0,0.0,0.0,0.0,0.0,0.0,0.0,0.0,0.0,0.0,0.0,0.0,0.0,0.0,0.0,0.0,0.0,0.0,0.0,0.0,0.0,0.0,0.0,0.0,0.0,0.0,0.0,0.0,0.0,0.0,0.0,0.0,0.0,0.0,0.0,0.0,0.0,0.0,0.0,0.0,0.0,0.0,0.0,0.0,0.0,0.0,0.0,0.0,0.0,0.0,0.0,0.0,0.0,0.0,0.0,0.0,0.0,0.0,0.0,0.0,0.0,0.0,0.0,0.0,0.0,0.0,0.0,0.0,0.0,0.0,0.0,0.0,0.0,0.0,0.0,0.0,0.0,0.0,0.0,0.0,0.0,0.0,0.0,0.0,0.0,0.0,0.0,0.0,0.0,0.0,0.0,0.0,0.0,0.0,0.0,0.0,0.0,0.0,0.0,0.0,0.0,0.0,0.0,0.0,0.0,0.0,0.0,0.0,0.0,0.0,0.0,0.0,0.0,0.0,0.0,0.0,0.0,0.0,0.0,0.0,0.0,0.0,0.0,0.0,0.0,0.0,0.0,0.0,0.0,0.0,0.0,0.0,0.0,0.0,0.0,0.0,0.0,0.0,0.0,0.0,0.0,0.0,0.0,0.0,0.0,0.0,0.0,0.0,0.0,0.0,0.0,0.0,0.0,0.0,0.0,0.0,0.0,0.0,0.0,0.0,0.0,0.0,0.0,0.0,0.0,0.0,0.0,0.0,0.0,0.0,0.0,0.0,0.0,0.0,0.0,0.0,0.0,0.0,0.0,0.0,0.0,0.0,0.0,0.0,0.0,0.0,0.0,0.0,0.0,0.0,0.0,0.0,0.0,0.0,0.0,0.0,0.0,0.0,0.0,0.0,0.0,0.0,0.0,0.0,0.0,0.0,0.0,0.0,0.0,0.0,0.0,0.0,0.0,0.0,0.0,0.0,0.0,0.0,0.0,0.0,0.0,0.0,0.0,0.0,0.0,0.0,0.0,0.0,0.0,0.0,0.0,0.0,0.0,0.0,0.0,0.0,0.0,0.0,0.0,0.0,0.0,0.0,0.0,0.0,0.0,0.0,0.0,0.0,0.0,0.0,0.0,0.0,0.0,0.0,0.0,0.0,0.0,0.0,0.0,0.0,0.0,0.0,0.0,0.0,0.0,0.0,0.0,0.0,0.0,0.0,0.0,0.0,0.0,0.0,0.0,0.0,0.0,0.0,0.0,0.0,0.0,0.0,0.0,0.0,0.0,0.0,0.0,0.0,0.0,0.0,0.0,0.0,0.0,0.0,0.0,0.0,0.0,0.0,0.0,0.0,0.0,0.0,0.0,0.0,0.0,0.0,0.0,0.0,0.0,0.0,0.0,0.0,0.0,0.0,0.0,0.0,0.0,0.0,0.0,0.0,0.0,0.0,0.0,0.0,0.0,0.0,0.0,0.0,0.0,0.0,0.0,0.0,0.0,0.0,0.0,0.0,0.0,0.0,0.0,0.0,0.0,0.0,0.0,0.0,0.0,0.0,0.0,0.0,0.0,0.0,0.0,0.0,0.0,0.0,0.0,0.0,0.0,0.0,0.0,0.0,0.0,0.0,0.0,0.0,0.0,0.0,0.0,0.0,0.0,0.0,0.0,0.0,0.0,0.0,0.0,0.0,0.0,0.0,0.0,0.0,0.0,0.0,0.0,0.0,0.0,0.0,0.0,0.0,0.0,0.0,0.0,0.0,0.0,0.0,0.0,0.0,0.0,0.0,0.0,0.0,0.0,0.0,0.0,0.0,0.0,0.0,0.0,0.0,0.0,0.0,0.0,0.0,0.0,0.0,0.0,0.0,0.0,0.0,0.0,0.0,0.0,0.0,0.0,0.0,0.0,0.0,0.0,0.0,0.0,0.0,0.0,0.0,0.0,0.0,0.0,0.0,0.0,0.0,0.0,0.0,0.0,0.0,0.0,0.0,0.0,0.0,0.0,0.0,0.0,0.0,0.0,0.0,0.0,0.0,0.0,0.0,0.0,0.0,0.0,0.0,0.0,0.0,0.0,0.0,0.0,0.0,0.0,0.0,0.0,0.0,0.0,0.0,0.0,0.0,0.0,0.0,0.0,0.0,0.0,0.0,0.0,0.0,0.0,0.0,0.0,0.0,0.0,0.0,0.0,0.0,0.0,0.0,0.0,0.0,0.0,0.0,0.0,0.0,0.0,0.0,0.0,0.0,0.0,0.0,0.0,0.0,0.0,0.0,0.0,0.0,0.0,0.0,0.0,0.0,0.0,0.0,0.0,0.0,0.0,0.0,0.0,0.0,0.0,0.0,0.0,0.0,0.0,0.0,0.0,0.0,0.0,0.0,0.0,0.0,0.0,0.0,0.0,0.0,0.0,0.0,0.0,0.0,0.0,0.0,0.0,0.0,0.0,0.0,0.0,0.0,0.0,0.0,0.0,0.0,0.0,0.0,0.0,0.0,0.0,0.0,0.0,0.0,0.0,0.0,0.0,0.0,0.0,0.0,0.0,0.0,0.0,0.0,0.0,0.0,0.0,0.0,0.0,0.0,0.0,0.0,0.0,0.0,0.0,0.0,0.0,0.0,0.0,0.0,0.0,0.0,0.0,0.0,0.0,0.0,0.0,0.0,0.0,0.0,0.0,0.0,0.0,0.0,0.0,0.0,0.0,0.0,0.0,0.0,0.0,0.0,0.0,0.0,0.0,0.0,0.0,0.0,0.0,0.0,0.0,0.0,0.0,0.0,0.0,0.0,0.0,0.0,0.0,0.0,0.0,0.0,0.0,0.0,0.0,0.0,0.0,0.0,0.0,0.0,0.0,0.0,0.0,0.0,0.0,0.0,0.0,0.0,0.0,0.0,0.0,0.0,0.0,0.0,0.0,0.0,0.0,0.0,0.0,0.0,0.0,0.0,0.0,0.0,0.0,0.0,0.0,0.0,0.0,0.0,0.0,0.0,0.0,0.0,0.0,0.0,0.0,0.0,0.0,0.0,0.0,0.0,0.0,0.0,0.0,0.0,0.0,0.0,0.0,0.0,0.0,0.0,0.0,0.0,0.0,0.0,0.0,0.0,0.0,0.0,0.0,0.0,0.0,0.0,0.0,0.0,0.0,0.0,0.0,0.0,0.0,0.0,0.0,0.0,0.0,0.0,0.0,0.0,0.0,0.0,0.0,0.0,0.0,0.0,0.0,0.0,0.0,0.0,0.0,0.0,0.0,0.0,0.0,0.0,0.0,0.0,0.0,0.0,0.0,0.0,0.0,0.0,0.0,0.0,0.0,0.0,0.0,0.0,0.0,0.0,0.0,0.0,0.0,0.0,0.0,0.0,0.0,0.0,0.0,0.0,0.0,0.0,0.0,0.0,0.0,0.0,0.0,0.0,0.0,0.0,0.0,0.0,0.0,0.0,0.0,0.0,0.0,0.0,0.0,0.0,0.0,0.0,0.0,0.0,0.0,0.0,0.0,0.0,0.0,0.0,0.0,0.0,0.0,0.0,0.0,0.0,0.0,0.0,0.0,0.0,0.0,0.0,0.0,0.0,0.0,0.0,0.0,0.0,0.0,0.0,0.0,0.0,0.0,0.0,0.0,0.0,0.0,0.0,0.0,0.0,0.0,0.0,0.0,0.0,0.0,0.0,0.0,0.0,0.0,0.0,0.0,0.0,0.0,0.0,0.0,0.0,0.0,0.0,0.0,0.0,0.0,0.0,0.0,0.0,0.0,0.0,0.0,0.0,0.0,0.0,0.0,0.0,0.0,0.0,0.0,0.0,0.0,0.0,0.0,0.0,0.0,0.0,0.0,0.0,0.0,0.0,0.0,0.0,0.0,0.0,0.0,0.0,0.0,0.0,0.0,0.0,0.0,0.0,0.0,0.0,0.0,0.0,0.0,0.0,0.0,0.0,0.0,0.0,0.0,0.0,0.0,0.0,0.0,0.0,0.0,0.0,0.0,0.0,0.0,0.0,0.0,0.0,0.0,0.0,0.0,0.0,0.0,0.0,0.0,0.0,0.0,0.0,0.0,0.0,0.0,0.0,0.0,0.0,0.0,0.0,0.0,0.0,0.0,0.0,0.0,0.0,0.0,0.0,0.0,0.0,0.0,0.0,0.0,0.0,0.0,0.0,0.0,0.0,0.0,0.0,0.0,0.0,0.0,0.0,0.0,0.0,0.0,0.0,0.0,0.0,0.0,0.0,0.0,0.0,0.0,0.0,0.0,0.0,0.0,0.0,0.0,0.0,0.0,0.0,0.0,0.0,0.0,0.0,0.0,0.0,0.0,0.0,0.0,0.0,0.0,0.0,0.0,0.0,0.0,0.0,0.0,0.0,0.0,0.0,0.0,0.0,0.0,0.0,0.0,0.0,0.0,0.0,0.0,0.0,0.0,0.0,0.0,0.0,0.0,0.0,0.0,0.0,0.0,0.0,0.0,0.0,0.0,0.0,0.0,0.0,0.0,0.0,0.0,0.0,0.0,0.0,0.0,0.0,0.0,0.0,0.0,0.0,0.0,0.0,0.0,0.0,0.0,0.0,0.0,0.0,0.0,0.0,0.0,0.0,0.0,0.0,0.0,0.0,0.0,0.0,0.0,0.0,0.0,0.0,0.0,0.0,0.0,0.0,0.0,0.0,0.0,0.0,0.0,0.0,0.0,0.0,0.0,0.0,0.0,0.0,0.0,0.0,0.0,0.0,0.0,0.0,0.0,0.0,0.0,0.0,0.0,0.0,0.0,0.0,0.0,0.0,0.0,0.0,0.0,0.0,0.0,0.0,1.3454,1.3748,1.4049,1.4188,0.0,0.0,0.0,0.0,0.0,0.0,0.0,0.0,0.0,1.3347,1.3627,1.39,1.4341,1.4923,1.4594,1.4301,1.4063,0.0,0.0,0.0,0.0,0.0,0.0,0.0,0.0,0.0,0.0,0.0,0.0,0.0,0.0,0.0,0.0,0.0,0.0,0.0,0.0,0.0,0.0,0.0,0.0,0.0,0.0,0.0,0.0,0.0,0.0,0.0,0.0,0.0,0.0,0.0,0.0,0.0,0.0,0.0,0.0,0.0,0.0,0.0,0.0,0.0,0.0,0.0,0.0,0.0,0.0,0.0,0.0,0.0,0.0,0.0,0.0,0.0,0.0,0.0,0.0,0.0,0.0,0.0,0.0,0.0,0.0,0.0,0.0,0.0,0.0,0.0,0.0,0.0,0.0,0.0,0.0,0.0,0.0,0.0,0.0,0.0,0.0,0.0,0.0,0.0,0.0,0.0,0.0,0.0,0.0,0.0,0.0,0.0,1.3126,1.3634,1.3988,1.4397,1.4955,1.5008,1.5008,1.5008,1.5008,0.0,0.0,0.0,0.0,1.386,1.366,1.3828,1.4344,1.4763,1.5381,1.6195,1.6195,1.5925,1.5427,1.495,0.0,0.0,0.0,0.0,0.0,0.0,0.0,0.0,0.0,0.0,0.0,0.0,0.0,0.0,0.0,0.0,0.0,0.0,0.0,0.0,0.0,0.0,0.0,0.0,0.0,0.0,0.0,0.0,0.0,0.0,0.0,0.0,0.0,0.0,0.0,0.0,0.0,0.0,0.0,0.0,0.0,0.0,0.0,0.0,0.0,0.0,0.0,0.0,0.0,0.0,0.0,0.0,0.0,0.0,0.0,0.0,0.0,0.0,0.0,0.0,0.0,0.0,0.0,0.0,0.0,0.0,0.0,0.0,0.0,0.0,0.0,0.0,0.0,0.0,0.0,0.0,0.0,0.0,0.0,0.0,0.0,0.0,0.0,0.0,0.0,0.0,0.0,0.0,0.0,0.0,0.0,0.0,1.3634,1.3988,1.4282,1.4603,1.4981,1.5008,1.5008,1.5008,1.5008,0.0,0.0,0.0,0.0,1.4812,1.5003,1.515,1.5231,1.631,1.7128,1.7702,1.7702,1.7542,1.722,1.6126,1.5608,1.5555,0.0,0.0,0.0,0.0,0.0,0.0,0.0,0.0,0.0,0.0,0.0,0.0,0.0,0.0,0.0,0.0,0.0,0.0,0.0,0.0,0.0,0.0,0.0,0.0,0.0,0.0,0.0,0.0,0.0,0.0,0.0,0.0,0.0,0.0,0.0,0.0,0.0,0.0,0.0,0.0,0.0,0.0327,0.0324,0.0,0.0,0.0,0.0,0.0,0.0,0.0,0.0,0.0,0.0,0.0,0.0,0.0,0.0,0.0,0.0,0.0,0.0,0.0,0.0,0.0,0.0,0.0,0.0,0.0,0.0,0.0,0.0,0.0,0.0,0.0,0.0,0.0,0.0,0.0,0.0,0.0,0.0,0.0,0.0,0.0,0.0,0.0,0.0,0.0,0.0,0.0,0.0,0.0,1.516,1.5708,1.6201,1.6364,1.6391,1.6254,1.6241,0.0,0.0,0.0,1.5722,1.5722,1.5979,1.646,1.7141,1.801,1.8558,1.8784,1.8784,1.8199,1.7123,1.6493,1.6227,1.6275,1.6005,0.0,0.0,0.0,0.0,0.0,0.0,0.0,0.0,0.0,0.0,0.0,0.0,0.0,0.0,0.0,0.0,0.0,0.0,0.0,0.0,0.0,0.0,0.0,0.0,0.0,0.0,0.0,0.0,0.0,0.0,0.0,0.0,0.0,0.0,0.0,0.0,0.0,0.0,0.0,0.2125,0.2325,0.1516,0.1412,0.1048,0.0,0.0,0.0,0.0,0.0,0.0,0.0,0.0,0.0,0.0,0.0,0.0,0.0,0.0,0.0,0.0,0.0,0.0,0.0,0.0,0.0,0.0,0.0,0.0,0.0,0.0,0.0,0.0,0.0,0.0,0.0,0.0,0.0,0.0,0.0,0.0,0.0,0.0,0.0,0.0,0.0,0.0,0.0,0.0,0.0,0.0,1.5267,1.6043,1.6725,1.7259,1.7488,1.7515,1.7326,1.7313,1.7086,1.6645,1.6632,1.6632,1.6632,1.6521,1.6838,1.7496,1.7952,1.8219,1.8264,1.8264,1.7564,1.6228,1.6067,1.5988,1.5917,1.5606,1.47,1.3369,0.0,0.0,0.0,0.0,0.0,0.0,0.0,0.0,0.0,0.0,0.0,0.0,0.0,0.0,0.0,0.0,0.0,0.0,0.0,0.0,0.0,0.0,0.0,0.0,0.0,0.0,0.0,0.0,0.0,0.0,0.0,0.0,0.0,0.0,0.0,0.0,0.0,0.2819,0.3078,0.1979,0.1845,0.1363,0.0,0.0,0.0,0.0,0.0,0.0,0.0,0.0,0.0,0.0,0.0,0.0,0.0,0.0,0.0,0.0,0.0,0.0,0.0,0.0,0.0,0.0,0.0,0.0,0.0,0.0,0.0,0.0,0.0,0.0,0.0,0.0,0.0,0.0,0.0,0.0,0.0,0.0,0.0,0.0,0.0,0.0,0.0,0.0,0.0,1.5858,1.6203,1.679,1.7286,1.7568,1.7595,1.7595,1.7582,1.7582,1.7568,1.7541,1.7541,1.7541,1.7541,1.6484,1.5559,1.4791,1.4842,1.4952,1.5226,1.5226,1.5053,1.47,1.469,1.439,1.382,1.3369,1.2892,1.2342,1.0854,0.0,0.0,0.0,0.0,0.0,0.0,0.0,0.0,0.0,0.0,0.0,0.0,0.0,0.0,0.0,0.0,0.0,0.0,0.0,0.0,0.0,0.0,0.0,0.0,0.0,0.0,0.0,0.0,0.0,0.0,0.0,0.0,0.0,0.0,0.0,0.0,0.0,0.0,0.0134,0.0136,0.0,0.0,0.0,0.0,0.0,0.0,0.0,0.0,0.0,0.0,0.0,0.0,0.0,0.0,0.0,0.0,0.0,0.0,0.0,0.0,0.0,0.0,0.0,0.0,0.0,0.0,0.0,0.0,0.0,0.0,0.0,0.0,0.0,0.0,0.0,0.0,0.0,0.0,1.36,1.338,1.3247,1.3433,1.3828,1.4162,1.4335,1.5391,1.6233,1.6513,1.7448,1.813,1.8424,1.8798,1.8931,1.8772,1.8759,1.8759,1.8759,1.7487,1.6495,1.5954,1.5746,1.5628,1.5557,1.5557,1.5667,1.5909,1.5909,1.5179,1.3879,1.3818,1.2941,1.1599,1.3118,1.3098,1.1956,1.1292,1.0274,0.0,0.0,0.0,0.0,0.0,0.0,0.0,0.0,0.0,0.0,0.0,0.0,0.0,0.0,0.0,0.0,0.0,0.0,0.0,0.0,0.0,0.0,0.0,0.0,0.0,0.0,0.0,0.0,0.0,0.0,0.0,0.0,0.0,0.0,0.0,0.0,0.0,0.0,0.0,0.0,0.0,0.0,0.0,0.0,0.0,0.0,0.0,0.0,0.0,0.0,0.0,0.0,0.0,0.0,0.0,0.0,0.0,0.0,0.0,0.0,0.0,0.0,0.0,0.0,0.0,0.0,0.0,0.0,0.0,0.0,0.0,0.0,0.0,0.0,0.0,0.0,0.0,1.3767,1.37,1.37,1.3887,1.4269,1.4669,1.5057,1.6046,1.6926,1.7395,1.8343,1.9052,1.9316,1.969,1.9575,1.8773,1.8731,1.8445,1.7818,1.6562,1.5397,1.4467,1.4683,1.4724,1.4501,1.4563,1.4661,1.4786,1.4786,1.407,1.2778,1.2694,1.1892,1.0725,1.2441,1.2395,1.1112,1.0995,1.0207,0.9122,0.0,0.0,0.0,0.0,0.0,0.0,0.0,0.0,0.0,0.0,0.0,0.0,0.0,0.0,0.0,0.0,0.0,0.0,0.0,0.0,0.0,0.0,0.0,0.0,0.0,0.0,0.0,0.0,0.0,0.0,0.0,0.0,0.0,0.0,0.0,0.0,0.0,0.0,0.0,0.0,0.0,0.0,0.0,0.0,0.0,0.0,0.0,0.0,0.0,0.0,0.0,0.0,0.0,0.0,0.0,0.0,0.0,0.0,0.0,0.0,0.0,0.0,0.0,0.0,0.0,0.0,0.0,0.0,0.0,0.0,0.0,0.0,0.0,0.0,0.0,1.4095,1.4095,1.4335,1.4514,1.4514,1.503,1.5618,1.6217,1.7086,1.7943,1.8796,1.9452,1.992,2.0184,2.0224,1.9425,1.7535,1.7433,1.6579,1.465,1.4829,1.4441,1.3277,1.3365,1.2758,1.1402,1.1552,1.159,1.1633,1.1633,1.1552,1.1402,1.1402,1.1314,1.1206,1.12,1.0689,0.9832,0.9825,0.9731,0.9612,0.0,0.0,0.0,0.0,0.0,0.0,0.0,0.0,0.0,0.0,0.0,0.0,0.0,0.0,0.0,0.0,0.0,0.0,0.0,0.0,0.0,0.0,0.0,0.0,0.0,0.0,0.0,0.0,0.0,0.0,0.0,0.0,0.0,0.0,0.0,0.0,0.0,0.0,0.0,0.0,0.0,0.0,0.0,0.0,0.0,0.0,0.0,0.0,0.0,0.0,0.0,0.0,0.0,0.0,0.0,0.0,0.0,0.0,0.0,0.0,0.0,0.0,0.0,0.0,0.0,0.0,0.0,0.0,0.0,0.0,0.0,0.0,0.0,1.4103,1.4255,1.4381,1.4381,1.4643,1.4865,1.4865,1.5337,1.5845,1.6244,1.7448,1.841,1.885,1.961,2.0117,2.0197,2.0597,2.0006,1.803,1.8006,1.6702,1.366,1.4107,1.3671,1.2093,1.2101,1.1987,1.1671,1.1712,1.183,1.1975,1.1975,1.1857,1.1708,1.1599,1.147,1.1356,1.1247,1.1057,1.0772,1.0561,1.0324,1.008,0.0,0.0,0.0,0.0,0.0,0.0,0.0,0.0,0.0,0.0,0.0,0.0,0.0,0.0,0.0,0.0,0.0,0.0,0.0,0.0,0.0,0.0,0.0,0.0,0.0,0.0,0.0,0.0,0.0,0.0,0.0,0.0,0.0,0.0,0.0,0.0,0.0,0.0,0.0,0.0,0.0,0.0,0.0,0.0,0.0,0.0,0.0,0.0,0.0,0.0,0.0,0.0,0.0,0.0,0.0,0.0,0.0,0.0,0.0,0.0,0.0,0.0,0.0,0.0,0.0,0.0,0.0,0.0,0.0,0.0,0.0,0.0,0.0,1.4295,1.4509,1.471,1.471,1.495,1.5173,1.5173,1.5645,1.6246,1.6914,1.7876,1.8784,1.9573,2.0107,2.0561,2.0935,2.0379,1.925,1.7465,1.5885,1.4302,1.2631,1.296,1.2801,1.1986,1.2016,1.2091,1.2172,1.2271,1.2352,1.2479,1.2479,1.2359,1.2165,1.2084,1.1965,1.1755,1.1642,1.1506,1.1335,1.1097,1.086,1.0669,1.0454,1.0299,1.0157,1.0127,1.0066,1.0039,1.0222,0.0,0.0,0.0,0.0,0.0,0.0,0.0,0.0,0.0,0.0,0.0,0.0,0.0,0.0,0.0,0.0,0.0,0.0,0.0,0.0,0.0,0.0,0.0,0.0,0.0,0.0,0.0,0.0,0.0,0.0,0.0,0.0,0.0,0.0,0.0,0.0,0.0,0.0,0.0,0.0,0.0,0.0,0.0,0.0,0.0,0.0,0.0,0.0,0.0,0.0,0.0,0.0,0.0,0.0,0.0,0.0,0.0,0.0,0.0,0.0,0.0,0.0,0.0,0.0,0.0,0.0,1.4629,1.4825,1.5062,1.5062,1.528,1.5471,1.5538,1.6016,1.6779,1.7956,1.8218,1.8832,2.0244,2.026,2.0474,2.1306,1.9484,1.7659,1.6155,1.2692,1.1043,1.1786,1.1888,1.2142,1.2542,1.2684,1.272,1.272,1.2895,1.3003,1.3003,1.3003,1.2888,1.2713,1.2699,1.2583,1.2332,1.2213,1.1959,1.1708,1.1552,1.1397,1.1186,1.0988,1.0853,1.0751,1.0616,1.0487,1.0417,1.0451,0.0,0.0,0.0,0.0,0.0,0.0,0.0,0.0,0.0,0.0,0.0,0.0,0.0,0.0,0.0,0.0,0.0,0.0,0.0,0.0,0.0,0.0,0.0,0.0,0.0,0.0,0.0,0.0,0.0,0.0,0.0,0.0,0.0,0.0,0.0,0.0,0.0,0.0,0.0,0.0,0.0,0.0,0.0,0.0,0.0,0.0,0.0,0.0,0.0,0.0,0.0,0.0,0.0,0.0,0.0,0.0,0.0,0.0,0.0,0.0,0.0,0.0,0.0,0.0,0.0,0.0,1.4999,1.5133,1.5311,1.5311,1.5551,1.5888,1.638,1.6553,1.7141,1.8529,1.7785,1.7529,1.851,1.7539,1.699,1.7437,1.717,1.6294,1.4697,1.2928,1.1965,1.205,1.252,1.2819,1.2914,1.2941,1.2955,1.2955,1.2989,1.3003,1.3003,1.3003,1.2982,1.2908,1.2786,1.2659,1.2598,1.2481,1.2386,1.2318,1.2176,1.1735,1.1193,1.1166,1.1138,1.1104,1.1077,1.105,1.1063,1.128,1.1212,1.1132,1.1457,1.1341,0.0,0.0,0.0,0.0,0.0,0.0,0.0,0.0,0.0,0.0,0.0,0.0,0.0,0.0,0.0,0.0,0.0,0.0,0.0,0.0,0.0,0.0,0.0,0.0,0.0,0.0,0.0,0.0,0.0,0.0,0.0,0.0,0.0,0.0,0.0,0.0,0.0,0.0,0.0,0.0,0.0,0.0,0.0,0.0,0.0,0.0,0.0,0.0,0.0,0.0,0.0,0.0,0.0,0.0,0.0,0.0,0.0,0.0,0.0,0.0,0.0,0.0,1.4763,1.5113,1.5658,1.5805,1.5952,1.6206,1.6633,1.6279,1.6607,1.8459,1.6941,1.6294,1.7835,1.6622,1.589,1.6305,1.5779,1.4716,1.31,1.2513,1.2349,1.2642,1.2948,1.3146,1.322,1.3254,1.3295,1.3295,1.3363,1.3403,1.3403,1.3403,1.3363,1.3295,1.3214,1.3098,1.2942,1.2793,1.2684,1.2603,1.2454,1.2128,1.1757,1.1676,1.1649,1.1649,1.1649,1.1649,1.1676,1.1826,1.1778,1.1689,1.1877,1.1796,1.1649,0.0,0.0,0.0,0.0,0.0,0.0,0.0,0.0,0.0,0.0,0.0,0.0,0.0,0.0,0.0,0.0,0.0,0.0,0.0,0.0,0.0,0.0,0.0,0.0,0.0,0.0,0.0,0.0,0.0,0.0,0.0,0.0,0.0,0.0,0.0,0.0,0.0,0.0,0.0,0.0,0.0,0.0,0.0,0.0,0.0,0.0,0.0,0.0,0.0,0.0,0.0,0.0,0.0,0.0,0.0,0.0,0.0,0.0,0.0,0.0,0.0,1.4996,1.5528,1.6192,1.6284,1.6391,1.6479,1.6495,1.5751,1.5832,1.7575,1.5664,1.4821,1.6717,1.5473,1.4683,1.5171,1.4297,1.3185,1.1876,1.2088,1.254,1.3146,1.3227,1.3275,1.3397,1.3519,1.3545,1.3545,1.366,1.3714,1.3714,1.3714,1.3653,1.3545,1.3545,1.3451,1.3248,1.3132,1.2976,1.2807,1.2691,1.2549,1.2406,1.2288,1.2173,1.2098,1.2098,1.2098,1.2098,1.2098,1.2098,1.2104,1.2132,1.2145,1.2104,1.1891,1.1861,0.0,0.0,0.0,0.0,0.0,0.0,0.0,0.0,0.1474,0.0,0.0,0.0,0.0,0.0,0.0,0.0,0.0,0.0,0.0,0.0,0.0,0.0,0.0,0.0,0.0,0.0,0.0,0.0,0.0,0.0,0.0,0.0,0.0,0.0,0.0,0.0,0.0,0.0,0.0,0.0,0.0,0.0,0.0,0.0,0.0,0.0,0.0,0.0,0.0,0.0,0.0,0.0,0.0,0.0,0.0,0.0,0.0,0.0,0.0,1.7199,1.7304,1.718,1.6431,1.6725,1.6808,1.5935,1.546,1.5253,1.5366,1.3571,1.2595,1.339,1.1933,1.1002,1.1311,1.1769,1.1994,1.183,1.2474,1.2935,1.3023,1.3234,1.3383,1.3403,1.3417,1.3424,1.3424,1.3444,1.3451,1.3451,1.3451,1.3444,1.3424,1.3424,1.341,1.3376,1.3356,1.3342,1.3315,1.3159,1.305,1.2907,1.2712,1.2406,1.2098,1.2098,1.2098,1.2098,1.2098,1.2098,1.2125,1.2223,1.2264,1.2311,1.2535,1.2483,1.2454,1.2537,1.1049,0.9396,0.9008,0.5719,0.2641,0.0,0.1398,0.0,0.0,0.0,0.0,0.0,0.0,0.0,0.0,0.0,0.0,0.0,0.0,0.0,0.0,0.0,0.0,0.0,0.0,0.0,0.0,0.0,0.0,0.0,0.0,0.0,0.0,0.0,0.0,0.0,0.0,0.0,0.0,0.0,0.0,0.0,0.0,0.0,0.0,0.0,0.0,0.0,0.0,0.0,0.0,0.0,0.0,0.0,0.0,0.0,0.0,1.6714,1.743,1.7943,1.7395,1.7515,1.7261,1.6125,1.5166,1.4611,1.4537,1.2312,1.1164,1.2367,1.1017,1.0134,1.0439,1.0955,1.1428,1.1773,1.2454,1.2901,1.3118,1.3288,1.3403,1.3403,1.3492,1.3532,1.3532,1.3572,1.3612,1.3612,1.3612,1.3572,1.3532,1.3532,1.3485,1.3403,1.3403,1.3349,1.3261,1.3241,1.303,1.282,1.2713,1.2556,1.2318,1.2318,1.2318,0.0,1.2318,1.2318,1.2332,1.2393,1.2413,1.2454,1.2632,1.1768,1.0414,0.9135,0.7267,0.5916,0.6953,0.4195,0.1534,0.2758,0.1444,0.0,0.0,0.0,0.0,0.0,0.0,0.0,0.0,0.0,0.0,0.0,0.0,0.0,0.0,0.0,0.0,0.0,0.0,0.0,0.0,0.0,0.0,0.0,0.0,0.0,0.0,0.0,0.0,0.0,0.0,0.0,0.0,0.0,0.0,0.0,0.0,0.0,0.0,0.0,0.0,0.0,0.0,0.0,0.0,0.0,0.0,0.0,0.0,0.0,0.0,1.6925,1.7888,1.8664,1.8423,1.8383,1.7745,1.5857,1.4787,1.3897,1.3077,1.1116,1.024,1.1412,1.0513,0.99,1.0195,1.0596,1.107,1.1613,1.221,1.2678,1.2976,1.3173,1.3295,1.3336,1.3492,1.3524,1.3524,1.3626,1.368,1.368,1.368,1.3619,1.3524,1.3524,1.3485,1.3336,1.3336,1.3254,1.3152,1.3152,1.2963,1.2693,1.2693,1.2637,1.2501,1.2501,1.2501,1.2501,1.2501,1.2501,1.2385,1.1837,1.1637,1.1565,1.1144,0.9918,0.8317,0.6623,0.467,0.3482,0.4867,0.2571,0.0393,0.1916,0.1083,0.0,0.0,0.0,0.0,0.0,0.0,0.0,0.0,0.0,0.0,0.0,0.0,0.0,0.0,0.0,0.0,0.0,0.0,0.0,0.0,0.0,0.0,0.0,0.0,0.0,0.0,0.0,0.0,0.0,0.0,0.0,0.0,0.0,0.0,0.0,0.0,0.0,0.0,0.0,0.0,0.0,0.0,0.0,0.0,0.0,0.0,0.0,0.0,0.0,0.0,1.8934,1.9332,1.9361,1.9361,1.9361,1.8188,1.4769,1.4216,1.3156,1.0302,0.9846,0.9822,0.9883,0.9822,0.9852,1.0008,1.0434,1.0853,1.12,1.1785,1.2254,1.2508,1.2853,1.3077,1.3214,1.3329,1.341,1.341,1.341,1.3417,1.3417,1.3417,1.341,1.341,1.341,1.3322,1.322,1.322,1.3139,1.3009,1.3009,1.2874,1.2693,1.2693,1.2637,1.2501,1.2501,1.2501,1.2501,1.2501,1.2501,1.2147,1.0114,0.9493,0.9164,0.7413,0.6933,0.6916,0.6567,0.4936,0.3278,0.3202,0.1568,0.0,0.0081,0.0041,0.0,0.0,0.0,0.0,0.0,0.0,0.0,0.0,0.0,0.0,0.0,0.0,0.0,0.0,0.0,0.0,0.0,0.0,0.0,0.0,0.0,0.0,0.0,0.0,0.0,0.0,0.0,0.0,0.0,0.0,0.0,0.0,0.0,0.0,0.0,0.0,0.0,0.0,0.0,0.0,0.0,0.0,0.0,0.0,0.0,0.0,0.0,0.0,0.0,0.0,1.9003,1.9401,1.9401,1.9401,1.9401,1.8289,1.4969,1.4488,1.3323,1.0203,0.9792,0.0,0.0,0.0,0.0,0.0,1.0283,1.0595,1.0995,1.1491,1.1898,1.2234,1.2596,1.2874,1.3071,1.3214,1.3302,1.3403,1.3403,1.3403,1.3403,1.3403,1.3403,1.3397,1.3295,1.322,1.3207,1.3111,1.2942,1.2807,1.2807,1.2718,1.2434,1.1022,1.0498,1.0241,0.0,0.9281,1.023,0.8866,0.84,0.8283,0.7583,0.735,0.6958,0.4908,0.4504,0.4327,0.2634,0.1676,0.1096,0.1038,0.0536,0.0,0.0,0.0,0.0,0.0,0.0,0.0,0.0,0.0,0.0,0.0,0.0,0.0,0.0,0.0,0.0,0.0,0.0,0.0,0.0,0.0,0.0,0.0,0.0,0.0,0.0,0.0,0.0,0.0,0.0,0.0,0.0,0.0,0.0,0.0,0.0,0.0,0.0,0.0,0.0,0.0,0.0,0.0,0.0,0.0,0.0,0.0,0.0,0.0,0.0,0.0,-0.1117,-0.2423,1.7331,1.7689,1.7689,1.7689,1.7689,0.0,0.0,0.0,0.0,0.0,0.0,0.0,0.0,0.0,0.0,0.0,0.0,1.0365,1.0725,1.1076,1.1477,1.1884,1.2182,1.2454,1.2758,1.2813,1.2956,1.3159,1.3159,1.3186,1.3247,1.3295,1.3295,1.3241,1.3234,1.3112,1.301,1.2915,1.2351,1.1541,1.1541,1.1011,1.0125,0.8787,0.8298,0.0,0.5915,0.602,0.7072,0.6488,0.6293,0.6183,0.5383,0.4631,0.3787,0.2399,0.2163,0.1988,0.0425,0.0,0.0,0.0,0.0,0.0,0.0,0.0,0.0,0.0,0.0,0.0,0.0,0.0,0.0,0.0,0.0,0.0,0.0,0.0,0.0,0.0,0.0,0.0,0.0,0.0,0.0,0.0,0.0,0.0,0.0,0.0,0.0,0.0,0.0,0.0,0.0,0.0,0.0,0.0,0.0,0.0,0.0,0.0,0.0,0.0,0.0,0.0,0.0,0.0,0.0,0.0,0.0,-0.0589,-0.1422,-0.1422,-0.3134,-0.5029,1.4272,1.4599,1.4599,0.0,0.0,0.0,0.0,0.0,0.0,0.0,0.0,0.0,0.0,0.0,0.0,0.0,0.0,0.0,1.0453,1.0622,1.0934,1.1516,1.1592,1.1809,1.2244,1.2271,1.242,1.2665,1.2672,1.2793,1.2982,1.2997,1.2956,1.2836,1.2842,1.2668,1.2371,1.2364,1.1164,0.925,0.9255,0.8045,0.629,0.6179,0.614,0.5864,0.3718,0.2936,0.3247,0.5279,0.5984,0.5609,0.3575,0.1595,0.0,0.0,0.0,0.0,0.0,0.0,0.0,0.0,0.0,0.0,0.0,0.0,0.0,0.0,0.0,0.0,0.0,0.0,0.0,0.0,0.0,0.0,0.0,0.0,0.0,0.0,0.0,0.0,0.0,0.0,0.0,0.0,0.0,0.0,0.0,0.0,0.0,0.0,0.0,0.0,0.0,0.0,0.0,0.0,0.0,0.0,0.0,0.0,0.0,0.0,0.0,0.0,0.0,0.0,0.0,0.0,-0.0148,-0.1767,-0.402,-0.4167,-0.5925,-0.7827,0.0,0.0,0.0,0.0,0.0,0.0,0.0,0.0,0.0,0.0,0.0,0.0,0.0,0.0,0.0,0.0,0.0,0.0,1.0116,1.0405,1.067,1.0901,1.1274,1.1558,1.1782,1.2006,1.221,1.24,1.2508,1.2583,1.2584,1.1172,1.0497,1.039,0.8889,0.8154,0.8063,0.7959,0.7601,0.7099,0.7088,0.6766,0.6144,0.4527,0.3902,0.3642,0.1545,0.079,0.0863,0.1411,0.1617,0.1513,0.0967,0.0412,0.0,0.0,0.0,0.0,0.0,0.0,0.0,0.0,0.0,0.0,0.0,0.0,0.0,0.0,0.0,0.0,0.0,0.0,0.0,0.0,0.0,0.0,0.0,0.0,0.0,0.0,0.0,0.0,0.0,0.0,0.0,0.0,0.0,0.0,0.0,0.0,0.0,0.0,0.0,0.0,0.0,0.0,0.0,0.0,0.0,0.0,0.0,0.0,0.0,0.0,0.0,0.0,0.0,0.0,0.0,-0.0201,-0.2204,-0.3399,-0.4247,-0.624,-0.873,-1.0965,0.0,0.0,0.0,0.0,0.0,0.0,0.0,0.0,0.0,0.0,0.0,0.0,0.0,0.0,0.0,0.0,0.0,0.0,0.0,1.027,1.0493,1.0677,1.0962,1.1199,1.1416,1.1518,1.1276,1.0737,1.081,1.0461,0.9763,0.8707,0.8216,0.8098,0.6975,0.6481,0.6407,0.6326,0.5768,0.0,0.0,0.4345,0.3415,0.2204,0.1734,0.1569,0.0435,0.0,0.0,0.0,0.0,0.0,0.0,0.0,0.0,0.0,0.0,0.0,0.0,0.0,0.0,0.0,0.0,0.0,0.0,0.0,0.0,0.0,0.0,0.0,0.0,0.0,0.0,0.0,0.0,0.0,0.0,0.0,0.0,0.0,0.0,0.0,0.0,0.0,0.0,0.0,0.0,0.0,0.0,0.0,0.0,0.0,0.0,0.0,0.0,0.0,0.0,0.0,0.0,0.0,0.0,0.0,0.0,0.0,0.0,0.0,-0.0101,-0.1261,-0.1764,-0.2016,-0.4728,-0.6484,-0.7734,-0.924,-1.1499,-1.386,0.0,0.0,0.0,0.0,0.0,0.0,0.0,0.0,0.0,0.9792,0.9792,0.9792,0.9792,0.9792,0.0,0.0,0.0,0.0,0.0,0.0,1.0268,1.0287,1.03,1.0337,1.044,1.0268,0.9577,0.8278,0.8293,0.7598,0.6246,0.6105,0.5951,0.5856,0.5697,0.5578,0.5453,0.5453,0.4396,0.2688,0.2693,0.1628,0.0,0.0,0.0,0.0,0.0,0.0,0.0,0.0,0.0,0.0,0.0,0.0,0.0,0.0,0.0,0.0,0.0,0.0,0.0,0.0,0.0,0.0,0.0,0.0,0.0,0.0,0.0,0.0,0.0,0.0,0.0,0.0,0.0,0.0,0.0,0.0,0.0,0.0,0.0,0.0,0.0,0.0,0.0,0.0,0.0,0.0,0.0,0.0,0.0,0.0,0.0,0.0,0.0,0.0,0.0,0.0,0.0,0.0,0.0,0.0,0.0,0.0,-0.0353,-0.0555,-0.0757,-0.3424,-0.4527,-0.4779,-0.7487,-0.999,-1.2148,-1.2497,-1.4109,-1.6083,0.0,0.0,0.0,0.0,0.0,0.0,0.0,0.0,0.0,0.0,0.9792,0.9792,0.0,0.0,0.0,0.0,0.0,0.0,0.0,0.0,0.0,0.8191,0.8253,0.7721,0.6432,0.6492,0.6403,0.6126,0.6268,0.617,0.587,0.4251,0.3523,0.3409,0.1826,0.111,0.1081,0.1081,0.0863,0.0532,0.0537,0.0309,0.0,0.0,0.0,0.0,0.0,0.0,0.0,0.0,0.0,0.0,0.0,0.0,0.0,0.0,0.0,0.0,0.0,0.0,0.0,0.0,0.0,0.0,0.0,0.0,0.0,0.0,0.0,0.0,0.0,0.0,0.0,0.0,0.0,0.0,0.0,0.0,0.0,0.0,0.0,0.0,0.0,0.0,0.0,0.0,0.0,0.0,0.0,0.0,0.0,0.0,0.0,0.0,0.0,0.0,0.0,0.0,0.0,0.0,0.0,0.0,0.0,-0.0101,-0.2368,-0.3323,-0.3523,-0.6185,-0.7286,-0.7587,-1.0345,-1.1694,-1.2348,-1.4613,-1.5678,-1.6083,0.0,0.0,0.0,0.0,0.0,0.0,0.0,0.9792,0.9792,0.9792,0.9792,0.9792,0.9792,0.9792,0.9792,0.0,0.0,0.0,0.0,0.0,0.0,0.7624,0.691,0.6198,0.5413,0.5459,0.5042,0.4096,0.0,0.3693,0.2772,0.1841,0.1398,0.1365,0.0429,0.0,0.0,0.0,0.0,0.0,0.0,0.0,0.0,0.0,0.0,0.0,0.0,0.0,0.0,0.0,0.0,0.0,0.0,0.0,0.0,0.0,0.0,0.0,0.0,0.0,0.0,0.0,0.0,0.0,0.0,0.0,0.0,0.0,0.0,0.0,0.0,0.0,0.0,0.0,0.0,0.0,0.0,0.0,0.0,0.0,0.0,0.0,0.0,0.0,0.0,0.0,0.0,0.0,0.0,0.0,0.0,0.0,0.0,0.0,0.0,0.0,-0.0702,-0.2103,-0.2062,-0.2821,-0.4179,-0.4179,-0.4179,-0.4229,-0.5532,-0.6082,-0.6283,-0.899,-1.0145,-1.0395,-1.3107,-1.4159,-1.4364,-1.5628,-1.6083,-1.6083,0.0,0.0,0.0,0.0,0.0,0.0,0.0,0.9839,0.9839,0.9839,0.9866,0.9737,0.9335,0.9603,0.9663,0.0,0.0,0.0,0.0,0.0,0.0,0.0,0.0,0.0,0.4248,0.0,0.0,0.2115,0.2115,0.0,0.0,0.0,0.0,0.0,0.0,0.0,0.0,0.0,0.0,0.0,0.0,0.0,0.0,0.0,0.0,0.0,0.0,0.0,0.0,0.0,0.0,0.0,0.0,0.0,0.0,0.0,0.0,0.0,0.0,0.0,0.0,0.0,0.0,0.0,0.0,0.0,0.0,0.0,0.0,0.0,0.0,0.0,0.0,0.0,0.0,0.0,0.0,0.0,0.0,0.0,0.0,0.0,0.0,0.0,0.0,0.0,0.0,0.0,0.0,0.0,0.0,0.0,0.0,-0.0299,-0.0848,-0.0855,-0.2218,-0.4879,-0.4879,-0.5982,-0.7991,-0.7991,-0.7991,-0.8041,-0.8639,-0.889,-0.909,-1.1848,-1.2951,-1.3156,-1.5273,-1.6083,-1.6083,-1.6083,-1.6083,-1.6083,0.0,0.0,0.0,0.0,0.0,0.0,0.0,0.9994,0.9994,0.9994,1.0148,0.9588,0.7811,0.8927,0.9207,0.0,0.0,0.0,0.0,0.0,0.0,0.0,0.0,0.0,0.0,0.0,0.0,0.0235,0.0235,0.0,0.0,0.0,0.0,0.0,0.0,0.0,0.0,0.0,0.0,0.0,0.0,0.0,0.0,0.0,0.0,0.0,0.0,0.0,0.0,0.0,0.0,0.0,0.0,0.0,0.0,0.0,0.0,0.0,0.0,0.0,0.0,0.0,0.0,0.0,0.0,0.0,0.0,0.0,0.0,0.0,0.0,0.0,0.0,0.0,0.0,0.0,0.0,0.0,0.0,0.0,0.0,0.0,0.0,0.0,0.0,0.0,0.0,0.0,0.0,0.0,0.0,0.0,0.0,-0.1149,-0.3619,-0.3622,-0.498,-0.764,-0.764,-0.7741,-0.7991,-0.7991,-0.7991,-0.8142,-1.0645,-1.1699,-1.1948,-1.4613,-1.5728,-1.5778,-1.5983,-1.6083,-1.6083,-1.6083,-1.6083,-1.6083,0.0,0.0,0.0,0.0,0.0,0.0,0.9873,0.9879,0.9537,0.8559,0.8517,0.7875,0.6087,0.6469,0.6597,0.5961,0.0,0.0,0.0,0.0,0.0,0.0,0.0,0.0,0.0,0.0,0.0,0.0,0.0,0.0,0.0,0.0,0.0,0.0,0.0,0.0,0.0,0.0,0.0,0.0,0.0,0.0,0.0,0.0,0.0,0.0,0.0,0.0,0.0,0.0,0.0,0.0,0.0,0.0,0.0,0.0,0.0,0.0,0.0,0.0,0.0,0.0,0.0,0.0,0.0,0.0,0.0,0.0,0.0,0.0,0.0,0.0,0.0,0.0,0.0,0.0,0.0,0.0,0.0,0.0,0.0,0.0,0.0,0.0,-0.0645,-0.2291,-0.3882,-0.4825,-0.4825,-0.327,-0.3125,-0.4752,-0.4804,-0.5313,-0.6383,-0.6383,-0.7787,-1.0495,-1.0495,-1.1299,-1.2857,-1.2857,-1.2857,-1.2957,-1.401,-1.4514,-1.4613,-1.5678,-1.6083,-1.6083,-1.6083,-1.6083,-1.6083,-1.6083,-1.6083,-1.6083,0.0,0.0,0.0,0.0,0.0,0.9098,0.9136,0.8738,0.7999,0.6861,0.6773,0.6143,0.4368,0.4236,0.4042,0.3494,0.3895,0.0,0.0,0.0,0.0,0.0,0.0,0.0,0.0,0.0,0.0,0.0,0.0,0.0,0.0,0.0,0.0,0.0,0.0,0.0,0.0,0.0,0.0,0.0,0.0,0.0,0.0,0.0,0.0,0.0,0.0,0.0,0.0,0.0,0.0,0.0,0.0,0.0,0.0,0.0,0.0,0.0,0.0,0.0,0.0,0.0,0.0,0.0,0.0,0.0,0.0,0.0,0.0,0.0,0.0,0.0,0.0,0.0,0.0,0.0,0.0,0.0,0.0,0.0,0.0,0.0,0.0,-0.0698,-0.2302,-0.4977,-0.6935,-0.8342,-0.9194,-0.7442,-0.6891,-0.7988,-0.7991,-0.8389,-0.919,-0.919,-1.0595,-1.3306,-1.3306,-1.4265,-1.6083,-1.6083,-1.6083,-1.6083,-1.6083,-1.6083,-1.6083,-1.6083,-1.6083,-1.6083,-1.6083,-1.6083,-1.6083,-1.6083,-1.6083,-1.6083,0.0,0.0,0.0,0.0,0.0,0.0,0.7604,0.621,0.5147,0.5116,0.5312,0.4696,0.2744,0.2642,0.1994,0.0193,0.1568,0.0,0.0,0.0,0.0,0.0,0.0,0.0,0.0,0.0,0.0,0.0,0.0,0.0,0.0,0.0,0.0,0.0,0.0,0.0,0.0,0.0,0.0,0.0,0.0,0.0,0.0,0.0,0.0,0.0,0.0,0.0,0.0,0.0,0.0,0.0,0.0,0.0,0.0,0.0,0.0,0.0,0.0,0.0,0.0,0.0,0.0,0.0,0.0,0.0,0.0,0.0,0.0,0.0,0.0,0.0,0.0,0.0,0.0,0.0,0.0,0.0,0.0,0.0,0.0,0.0,0.0,-0.2405,-0.508,-0.7741,-0.7991,-0.919,-1.1898,-1.2048,-1.0795,-0.8088,-0.7991,-0.929,-1.2048,-1.2048,-1.3406,-1.6083,-1.6083,-1.6083,-1.6083,-1.6083,-1.6083,-1.6083,-1.6083,-1.6083,-1.6083,-1.6083,-1.6083,-1.6083,-1.6083,-1.6083,-1.6083,-1.6083,-1.6083,-1.6083,0.0,0.0,0.0,0.0,0.0,0.0,0.0,0.529,0.4568,0.3455,0.3379,0.2733,0.0992,0.0833,0.061,0.0065,0.0476,0.0,0.0,0.0,0.0,0.0,0.0,0.0,0.0,0.0,0.0,0.0,0.0,0.0,0.0,0.0,0.0,0.0,0.0,0.0,0.0,0.0,0.0,0.0,0.0,0.0,0.0,0.0,0.0,0.0,0.0,0.0,0.0,0.0,0.0,0.0,0.0,0.0,0.0,0.0,0.0,0.0,0.0,0.0,0.0,0.0,0.0,0.0,0.0,0.0,0.0,0.0,0.0,0.0,0.0,0.0,0.0,0.0,0.0,0.0,0.0,0.0,0.0,0.0,-0.161,-0.2717,-0.2759,-0.6873,-0.989,-1.0745,-1.2503,-1.391,-1.4769,-1.4819,-1.4414,-1.3561,-1.3561,-1.396,-1.4819,-1.4819,-1.5273,-1.6083,-1.6083,-1.6083,-1.6083,-1.6083,-1.6083,-1.6083,-1.6083,-1.6083,-1.6083,-1.6083,-1.6083,-1.6083,-1.6083,-1.6083,-1.6083,-1.6083,-1.6083,-1.6083,0.0,0.0,0.0,0.0,0.0,0.0,0.0,0.3446,0.2687,0.1685,0.1563,0.1163,0.0128,0.0,0.0,0.0,0.0,0.0,0.0,0.0,0.0,0.0,0.0,0.0,0.0,0.0,0.0,0.0,0.0,0.0,0.0,0.0,0.0,0.0,0.0,0.0,0.0,0.0,0.0,0.0,0.0,0.0,-0.0079,0.0,0.0,0.0,0.0,0.0,0.0,0.0,0.0,0.0,0.0,0.0,0.0,0.0,0.0,0.0,0.0,0.0,0.0,0.0,0.0,0.0,0.0,0.0,0.0,0.0,0.0,0.0,0.0,0.0,0.0,0.0,0.0,0.0,0.0,0.0,-0.0356,-0.1413,-0.2971,-0.4829,-0.6832,-1.014,-1.2497,-1.3505,-1.5174,-1.6083,-1.6083,-1.6083,-1.6083,-1.6083,-1.6083,-1.6083,-1.6083,-1.6083,-1.6083,-1.6083,-1.6083,-1.6083,-1.6083,-1.6083,-1.6083,-1.6083,-1.6083,-1.6083,0.0,-1.6083,-1.6083,-1.6083,-1.6083,-1.6083,-1.6083,-1.6083,-1.6083,-1.6083,0.0,0.0,0.0,0.0,0.0,0.0,0.0,0.0986,0.0,0.0,0.0,0.0,0.0,0.0,0.0,0.0,0.0,0.0,0.0,0.0,0.0,0.0,0.0,0.0,0.0,0.0,0.0,0.0,0.0,0.0,0.0,0.0,0.0,0.0,0.0,-0.0073,0.0,0.0,0.0,0.0,-0.0432,-0.0432,0.0,0.0,0.0,0.0,0.0,0.0,0.0,0.0,0.0,0.0,0.0,0.0,0.0,0.0,0.0,0.0,0.0,0.0,0.0,0.0,0.0,0.0,0.0,0.0,0.0,0.0,0.0,0.0,0.0,0.0,0.0,0.0,0.0,0.0,0.0,-0.0151,-0.1211,-0.3724,-0.4326,-0.6584,-1.1594,-1.2248,-1.3406,-1.5927,-1.6083,-1.6083,-1.6083,-1.6083,-1.6083,-1.6083,-1.6083,-1.6083,-1.6083,-1.6083,-1.6083,-1.6083,-1.6083,-1.6083,-1.6083,-1.6083,-1.6083,-1.6083,-1.6083,-1.6083,-1.6083,-1.6083,-1.6083,-1.6083,-1.6083,-1.6083,-1.6083,-1.6083,-1.6083,-1.6083,0.0,0.0,0.0,0.0,0.0,0.0,0.0,0.0,0.0,0.0,0.0,0.0,0.0,0.0,0.0,0.0,0.0,0.0,0.0,0.0,0.0,0.0,0.0,0.0,0.0,0.0,0.0,0.0,0.0,0.0,0.0,0.0,0.0,0.0,0.0,-0.0885,0.0,0.0,0.0,0.0,-0.4813,-0.4813,0.0,0.0,0.0,0.0,-0.2917,-0.1763,0.0,0.0,0.0,0.0,0.0,0.0,0.0,0.0,0.0,0.0,0.0,0.0,0.0,0.0,0.0,0.0,0.0,0.0,0.0,0.0,0.0,0.0,0.0,0.0,0.0,0.0,0.0,0.0,0.0,-0.1764,-0.3273,-0.3926,-0.7684,-1.069,-1.1998,-1.396,-1.5423,-1.6033,-1.6083,-1.6083,-1.6083,-1.6083,-1.6083,-1.6083,-1.6083,-1.6083,-1.6083,-1.6083,-1.6083,-1.6083,-1.6083,-1.6083,-1.6083,-1.6083,-1.6083,-1.6083,-1.6083,-1.6083,-1.6083,-1.6083,-1.6083,-1.6083,-1.6083,-1.6083,-1.6083,-1.6083,-1.6083,-1.6083,0.0,0.0,0.0,0.0,0.0,0.0,0.0,0.0,0.0,0.0,0.0,0.0,0.0,0.0,0.0,0.0,0.0,0.0,0.0,0.0,0.0,0.0,0.0,0.0,0.0,0.0,0.0,0.0,0.0,-0.0469,-0.1323,-0.1323,-0.1794,-0.2657,-0.2708,-0.3374,0.0,0.0,0.0,-0.6293,-0.6293,0.0,0.0,0.0,0.0,0.0,-0.3083,-0.1745,0.0,0.0,0.0,0.0,0.0,0.0,0.0,0.0,0.0,0.0,0.0,0.0,0.0,0.0,0.0,0.0,0.0,0.0,0.0,0.0,0.0,0.0,0.0,0.0,0.0,0.0,0.0,0.0,0.0,-0.2318,-0.4477,-0.568,-0.954,-1.2597,-1.381,-1.5273,-1.6083,-1.6083,-1.6083,-1.6083,-1.6083,-1.6083,-1.6083,-1.6083,-1.6083,-1.6083,-1.6083,-1.6083,-1.6083,-1.6083,-1.6083,-1.6083,-1.6083,-1.6083,-1.6083,-1.6083,-1.6083,-1.6083,-1.6083,-1.6083,-1.6083,-1.6083,-1.6083,-1.6083,-1.6083,-1.6083,-1.6083,-1.6083,0.0,0.0,0.0,0.0,0.0,0.0,0.0,0.0,0.0,0.0,0.0,0.0,0.0,0.0,0.0,0.0,0.0,0.0,0.0,0.0,0.0,0.0,-0.0133,0.0,0.0,0.0,0.0,0.0,-0.0322,-0.1305,-0.2928,-0.3267,-0.4278,-0.5865,-0.6319,-0.65,0.0,0.0,-0.7238,-0.7228,-0.7228,0.0,0.0,0.0,0.0,0.0,0.0,0.0,0.0,0.0,0.0,0.0,0.0,0.0,0.0,0.0,0.0,0.0,0.0,-0.0269,-0.05,-0.0091,0.0,0.0,0.0,0.0,0.0,0.0,0.0,0.0,0.0,0.0,0.0,0.0,-0.0352,-0.0757,-0.116,-0.3525,-0.6082,-0.8339,-1.1045,-1.3605,-1.5877,-1.6083,-1.6083,-1.6083,-1.6083,-1.6083,-1.6083,-1.6083,-1.6083,-1.6083,-1.6083,-1.6083,-1.6083,-1.6083,-1.6083,-1.6083,-1.6083,-1.6083,-1.6083,-1.6083,-1.6083,-1.6083,-1.6083,-1.6083,-1.6083,-1.6083,-1.6083,-1.6083,-1.6083,-1.6083,-1.6083,-1.6083,-1.6083,-1.6083,0.0,0.0,0.0,0.0,0.0,0.0,0.0,0.0,0.0,0.0,0.0,0.0,0.0,0.0,0.0,0.0,0.0,0.0,0.0,0.0,0.0,-0.2216,-0.0805,0.0,0.0,0.0,0.0,0.0,-0.1759,-0.2776,-0.3113,-0.494,-0.586,-0.6051,-0.8004,-0.8804,-0.882,-1.0727,-1.1541,-1.156,-1.156,0.0,0.0,0.0,0.0,0.0,0.0,0.0,0.0,0.0,0.0,0.0,0.0,0.0,0.0,0.0,0.0,0.0,0.0,-0.1558,-0.2699,-0.0546,0.0,0.0,0.0,0.0,0.0,0.0,0.0,0.0,0.0,0.0,0.0,0.0,-0.1923,-0.4177,-0.6436,-0.914,-1.0995,-1.1394,-1.386,-1.5628,-1.6083,-1.6083,-1.6083,-1.6083,-1.6083,-1.6083,-1.6083,-1.6083,-1.6083,-1.6083,-1.6083,-1.6083,-1.6083,-1.6083,-1.6083,-1.6083,-1.6083,-1.6083,-1.6083,-1.6083,-1.6083,-1.6083,-1.6083,-1.6083,-1.6083,-1.6083,-1.6083,-1.6083,-1.6083,-1.6083,-1.6083,-1.6083,-1.6083,-1.6083,0.0,0.0,0.0,0.0,0.0,0.0,0.0,0.0,0.0,0.0,0.0,0.0,0.0,0.0,0.0,0.0,0.0,0.0,0.0,0.0,-0.1814,-0.2652,-0.2853,-0.2016,-0.0034,-0.1023,-0.1594,-0.1662,-0.3673,-0.5244,-0.6425,-0.8487,-0.9388,-0.934,-1.0466,-1.0942,-1.0931,-1.2061,-1.2501,-1.2501,0.0,0.0,0.0,0.0,0.0,0.0,0.0,0.0,0.0,0.0,0.0,0.0,0.0,0.0,0.0,0.0,0.0,0.0,0.0,-0.0835,-0.1471,-0.027,-0.1048,-0.2068,-0.2032,-0.0972,0.0,0.0,0.0,-0.0434,-0.1904,-0.218,-0.2659,-0.4097,-0.5347,-0.6584,-0.7838,-1.0395,-1.2098,-1.2098,-1.4464,-1.6083,-1.6083,-1.6083,-1.6083,-1.6083,-1.6083,-1.6083,-1.6083,-1.6083,-1.6083,-1.6083,-1.6083,-1.6083,-1.6083,-1.6083,-1.6083,-1.6083,-1.6083,-1.6083,-1.6083,-1.6083,-1.6083,-1.6083,-1.6083,-1.6083,-1.6083,-1.6083,-1.6083,-1.6083,-1.6083,-1.6083,-1.6083,-1.6083,-1.6083,-1.6083,0.0,0.0,0.0,0.0,0.0,0.0,0.0,0.0,0.0,0.0,0.0,0.0,0.0,0.0,0.0,0.0,0.0,0.0,0.0,-0.3595,-0.3521,-0.3923,-0.4894,-0.4129,-0.1384,-0.2803,-0.366,-0.3794,-0.5815,-0.7897,-1.0022,-1.1516,-1.2186,-1.2159,-1.2271,-1.2325,-1.2298,-1.244,-1.2501,-1.2501,0.0,0.0,0.0,0.0,0.0,0.0,0.0,0.0,0.0,0.0,0.0,0.0,0.0,0.0,0.0,-0.0668,-0.0802,-0.0899,-0.1458,-0.2044,-0.2519,-0.2502,-0.272,-0.2893,-0.2908,-0.1385,0.0,0.0,-0.0522,-0.1388,-0.2812,-0.3596,-0.4892,-0.7581,-0.8543,-0.9194,-0.9794,-1.1699,-1.3051,-1.3051,-1.4869,-1.6083,-1.6083,-1.6083,-1.6083,-1.6083,-1.6083,-1.6083,-1.6083,-1.6083,-1.6083,-1.6083,-1.6083,-1.6083,-1.6083,-1.6083,-1.6083,-1.6083,-1.6083,-1.6083,-1.6083,-1.6083,-1.6083,-1.6083,-1.6083,-1.6083,-1.6083,-1.6083,-1.6083,-1.6083,-1.6083,-1.6083,-1.6083,-1.6083,-1.6083,-1.6083,0.0,0.0,0.0,0.0,0.0,0.0,0.0,0.0,0.0,0.0,0.0,0.0,0.0,0.0,0.0,0.0,0.0,0.0,0.0,-0.6207,-0.593,-0.7564,-0.6197,-0.5326,-0.5188,-0.5467,-0.5651,-0.5801,-0.8058,-1.0228,-1.2275,-1.239,-1.24,-1.2277,-1.242,-1.2413,-1.2298,-1.244,-1.2501,-1.2501,-1.2501,0.0,0.0,0.0,0.0,0.0,0.0,0.0,0.0,0.0,0.0,0.0,0.0,0.0,-0.0422,-0.2675,-0.3195,-0.355,-0.5776,-0.8145,-0.9912,-0.9929,-0.5057,-0.0271,-0.0276,-0.0138,0.0,0.0,-0.1999,-0.3023,-0.0692,-0.23,-0.4875,-0.7587,-1.0145,-1.2652,-1.5174,-1.5678,-1.5827,-1.5827,-1.5983,-1.6083,-1.6083,-1.6083,-1.6083,-1.6083,-1.6083,-1.6083,-1.6083,-1.6083,-1.6083,-1.6083,-1.6083,-1.6083,-1.6083,-1.6083,-1.6083,-1.6083,-1.6083,-1.6083,-1.6083,-1.6083,-1.6083,-1.6083,-1.6083,-1.6083,-1.6083,-1.6083,-1.6083,-1.6083,-1.6083,-1.6083,-1.6083,-1.6083,-1.6083,-1.6083,0.0,0.0,0.0,0.0,0.0,0.0,0.0,0.0,0.0,0.0,0.0,0.0,0.0,0.0,0.0,0.0,0.0,0.0,0.0,-0.7622,-0.7497,-0.8171,-0.8581,-0.8911,-0.9062,-0.8099,-0.7755,-0.8095,-1.0277,-1.1728,-1.2501,-1.2501,-1.2474,-1.2427,-1.2474,-1.2474,-1.2427,-1.2481,-1.2501,-1.2501,-1.2501,-1.2501,0.0,0.0,0.0,0.0,0.0,0.0,0.0,0.0,-0.5217,-0.5072,-0.4369,-0.422,-0.4487,-0.5401,-0.5592,-0.5753,-0.6672,-0.7677,-0.8097,-0.6542,-0.4251,-0.3182,-0.6253,-0.4664,-0.2446,-0.2393,-0.4552,-0.6716,-0.7374,-0.972,-1.1848,-1.2857,-1.391,-1.4918,-1.5977,-1.6083,-1.6083,-1.6083,-1.6083,-1.6083,-1.6083,-1.6083,-1.6083,-1.6083,-1.6083,-1.6083,-1.6083,-1.6083,-1.6083,-1.6083,-1.6083,-1.6083,-1.6083,-1.6083,-1.6083,-1.6083,-1.6083,-1.6083,-1.6083,-1.6083,-1.6083,-1.6083,-1.6083,-1.6083,-1.6083,-1.6083,-1.6083,-1.6083,-1.6083,-1.6083,-1.6083,-1.6083,-1.6083,-1.6083,0.0,0.0,0.0,0.0,0.0,0.0,0.0,0.0,0.0,0.0,0.0,0.0,0.0,0.0,0.0,0.0,0.0,0.0,-0.9194,-0.9171,-0.916,-0.9274,-1.0264,-1.0995,-1.1369,-1.0213,-0.983,-1.0243,-1.1772,-1.2501,-1.2501,-1.2501,-1.2501,-1.2501,-1.2501,-1.2501,-1.2501,-1.2501,-1.2501,-1.2501,-1.2501,-1.2528,0.0,0.0,0.0,0.0,0.0,0.0,0.0,0.0,-0.7497,-0.7372,-0.686,-0.6756,-0.6986,-0.7784,-0.8055,-0.8213,-0.902,-0.93,-0.8973,-0.732,-0.6467,-0.7166,-1.1491,-0.8054,-0.4234,-0.4992,-0.6647,-0.8822,-1.1584,-1.3605,-1.4819,-1.4819,-1.5572,-1.6083,-1.6083,-1.6083,-1.6083,-1.6083,-1.6083,-1.6083,-1.6083,-1.6083,-1.6083,-1.6083,-1.6083,-1.6083,-1.6083,-1.6083,-1.6083,-1.6083,-1.6083,-1.6083,-1.6083,-1.6083,-1.6083,-1.6083,-1.6083,-1.6083,-1.6083,-1.6083,-1.6083,-1.6083,-1.6083,-1.6083,-1.6083,-1.6083,-1.6083,-1.6083,-1.6083,-1.6083,-1.6083,-1.6083,-1.6083,-1.6083,0.0,0.0,0.0,0.0,0.0,0.0,0.0,0.0,0.0,0.0,0.0,0.0,0.0,0.0,0.0,0.0,0.0,0.0,-1.1369,-1.1083,-1.1049,-1.1375,-1.0962,-1.1036,-1.1773,-1.1658,-1.1769,-1.2104,-1.2359,-1.2501,-1.2501,-1.2501,-1.2501,-1.2501,-1.2501,-1.2501,-1.2501,-1.2501,-1.2501,-1.2501,-1.2501,-1.2589,-1.2693,0.0,0.0,0.0,0.0,0.0,0.0,0.0,-0.9756,-0.9307,-0.7359,-0.6766,-0.7276,-0.9797,-1.0539,-1.1095,-1.3627,-1.4299,-1.4333,-1.4424,-1.2693,-1.1654,-1.4512,-0.9411,-0.4828,-0.7521,-0.8037,-0.889,-1.1649,-1.2148,-1.2148,-1.2148,-1.4364,-1.6083,-1.6083,-1.6083,-1.6083,-1.6083,-1.6083,-1.6083,-1.6083,-1.6083,-1.6083,-1.6083,-1.6083,-1.6083,-1.6083,-1.6083,-1.6083,-1.6083,-1.6083,-1.6083,-1.6083,-1.6083,-1.6083,-1.6083,-1.6083,-1.6083,-1.6083,-1.6083,-1.6083,-1.6083,-1.6083,-1.6083,-1.6083,-1.6083,-1.6083,-1.6083,-1.6083,-1.6083,-1.6083,-1.6083,-1.6083,-1.6083,0.0,0.0,0.0,0.0,0.0,0.0,0.0,0.0,0.0,0.0,0.0,0.0,0.0,0.0,0.0,0.0,0.0,0.0,-1.1254,-1.1246,-1.1253,-1.1268,-1.1206,-1.1294,-1.1518,-1.1898,-1.2182,-1.2372,-1.2359,-1.2406,-1.2501,-1.24,-1.2406,-1.2501,-1.2501,-1.2501,-1.2501,-1.2501,-1.2501,-1.2501,-1.2501,-1.2589,-1.2679,0.0,0.0,0.0,0.0,0.0,0.0,0.0,0.0,0.0,-1.1541,-1.1562,-1.1816,-1.2495,-1.2759,-1.2982,-1.3623,-1.4061,-1.3881,-1.2123,-1.1531,-1.1652,-1.2606,-1.1028,-1.0147,-1.2987,-1.212,-1.1699,-1.4414,-1.4918,-1.4918,-1.4918,-1.5578,-1.6083,-1.6083,-1.6083,-1.6083,-1.6083,-1.6083,-1.6083,-1.6083,-1.6083,-1.6083,-1.6083,-1.6083,-1.6083,-1.6083,-1.6083,-1.6083,-1.6083,-1.6083,-1.6083,-1.6083,-1.6083,-1.6083,-1.6083,-1.6083,-1.6083,-1.6083,-1.6083,-1.6083,-1.6083,-1.6083,-1.6083,-1.6083,-1.6083,-1.6083,-1.6083,-1.6083,-1.6083,-1.6083,-1.6083,-1.6083,-1.6083,0.0,0.0,0.0,0.0,0.0,0.0,0.0,0.0,-0.9867,-0.9867,-1.0887,-1.1584,0.0,0.0,0.0,-1.147,-1.126,-1.1158,-1.1281,-1.1376,-1.1375,-1.1348,-1.1375,-1.1477,-1.1653,-1.2074,-1.2332,-1.242,-1.2386,-1.242,-1.2501,-1.2359,-1.24,-1.2589,-1.2528,-1.2535,-1.2589,-1.2589,-1.2589,-1.2596,-1.2657,-1.2773,-1.2895,0.0,0.0,0.0,0.0,0.0,0.0,0.0,0.0,0.0,-1.3322,-1.3485,-1.3607,-1.3763,-1.3865,-1.3966,-1.4122,-1.436,-1.4235,-1.2744,-1.2708,-1.3087,-1.3273,-1.3332,-1.3903,-1.5634,-1.4756,-1.4159,-1.5778,-1.6083,-1.6083,-1.6083,-1.6083,-1.6083,-1.6083,-1.6083,-1.6083,-1.6083,-1.6083,-1.6083,-1.6083,-1.6083,-1.6083,-1.6083,-1.6083,-1.6083,-1.6083,-1.6083,-1.6083,-1.6083,-1.6083,-1.6083,-1.6083,-1.6083,-1.6083,-1.6083,-1.6083,-1.6083,-1.6083,-1.6083,-1.6083,-1.6083,-1.6083,-1.6083,-1.6083,-1.6083,-1.6083,-1.6083,-1.6083,-1.6083,-1.6083,-1.6083,-1.6083,-1.6083,0.0,0.0,-0.8312,0.0,0.0,0.0,0.0,-1.1577,-1.1584,-1.1584,-1.1584,-1.1584,0.0,0.0,0.0,-1.1606,-1.1491,-1.1402,-1.1369,-1.1396,-1.1463,-1.1572,-1.1484,-1.1633,-1.2111,-1.223,-1.2298,-1.2271,-1.2413,-1.2481,-1.2481,-1.2366,-1.2461,-1.2686,-1.2596,-1.261,-1.2693,-1.2693,-1.2693,-1.2706,-1.2881,-1.3071,-1.3214,-1.32,0.0,0.0,0.0,0.0,0.0,0.0,0.0,0.0,-1.3356,-1.3315,-1.3322,-1.3871,-1.4091,-1.4234,-1.4785,-1.4916,-1.4984,-1.5113,-1.5181,-1.5303,-1.556,-1.5886,-1.6076,-1.6062,-1.6069,-1.6083,-1.6083,-1.6083,-1.6083,-1.6083,-1.6083,-1.6083,-1.6083,-1.6083,-1.6083,-1.6083,-1.6083,-1.6083,-1.6083,-1.6083,-1.6083,-1.6083,-1.6083,-1.6083,-1.6083,-1.6083,-1.6083,-1.6083,-1.6083,-1.6083,-1.6083,-1.6083,-1.6083,-1.6083,-1.6083,-1.6083,-1.6083,-1.6083,-1.6083,-1.6083,-1.6083,-1.6083,-1.6083,-1.6083,-1.6083,-1.6083,-1.6083,-1.6083,-1.6083,-1.6083,-1.6083,-1.6083,0.0,0.0,-0.8508,-0.9933,0.0,0.0,-1.1237,-1.1545,-1.1584,-1.1584,-1.1584,-1.1584,-1.1584,-1.1556,0.0,-1.1613,-1.1556,-1.147,-1.1261,-1.1436,-1.1477,-1.1302,-1.1565,-1.1898,-1.2237,-1.2379,-1.2345,-1.2145,-1.2264,-1.2338,-1.2338,-1.242,-1.2556,-1.2693,-1.282,-1.2813,-1.2693,-1.2693,-1.2693,-1.2693,-1.2766,-1.2935,-1.32,-1.3091,-1.3193,0.0,0.0,0.0,0.0,0.0,0.0,0.0,-1.3356,-1.3458,-1.3559,-1.3688,-1.3892,-1.4146,-1.4275,-1.4523,-1.4748,-1.4782,-1.5147,-1.5622,-1.592,-1.6035,-1.6049,-1.5976,-1.6044,-1.6083,-1.6083,-1.6083,-1.6083,-1.6083,-1.6083,-1.6083,-1.6083,-1.6083,-1.6083,-1.6083,-1.6083,-1.6083,-1.6083,-1.6083,-1.6083,-1.6083,-1.6083,-1.6083,-1.6083,-1.6083,-1.6083,-1.6083,-1.6083,-1.6083,-1.6083,-1.6083,-1.6083,-1.6083,-1.6083,-1.6083,-1.6083,-1.6083,-1.6083,-1.6083,-1.6083,-1.6083,-1.6083,-1.6083,-1.6083,-1.6083,-1.6083,-1.6083,-1.6083,-1.6083,-1.6083,-1.6083,0.0,0.0,0.0,0.0,0.0,0.0,0.0,0.0,-1.1658,-1.159,-1.1584,-1.1584,-1.1584,-1.1584,0.0,0.0,-1.1579,-1.1491,-1.122,-1.145,-1.1647,-1.1737,-1.1925,-1.2189,-1.2494,-1.2501,-1.2393,-1.2207,-1.2213,-1.2254,-1.2291,-1.2433,-1.2623,-1.284,-1.2969,-1.2955,-1.2847,-1.2915,-1.2901,-1.2854,-1.2996,-1.3098,-1.3214,-1.3173,-1.322,-1.3288,-1.3288,0.0,0.0,0.0,0.0,0.0,0.0,0.0,-1.3451,-1.3626,-1.3747,-1.3939,-1.4292,-1.4563,-1.4762,-1.5053,-1.5357,-1.5668,-1.6015,-1.6083,-1.6056,-1.603,-1.6029,-1.6083,-1.6083,-1.6083,-1.6083,-1.6083,-1.6083,-1.6083,-1.6083,-1.6083,-1.6083,-1.6083,-1.6083,-1.6083,-1.6083,-1.6083,-1.6083,-1.6083,-1.6083,-1.6083,-1.6083,-1.6083,-1.6083,-1.6083,-1.6083,-1.6083,-1.6083,-1.6083,-1.6083,-1.6083,-1.6083,-1.6083,-1.6083,-1.6083,-1.6083,-1.6083,-1.6083,-1.6083,-1.6083,-1.6083,-1.6083,-1.6083,-1.6083,-1.6083,-1.6083,-1.6083,-1.6083,-1.6083,0.0,0.0,0.0,0.0,0.0,0.0,0.0,0.0,0.0,-1.1597,-1.1584,-1.1584,-1.1584,-1.1584,-1.1565,0.0,0.0,0.0,-1.1254,-1.1436,-1.1796,-1.2271,-1.2291,-1.244,-1.2759,-1.2596,-1.244,-1.2325,-1.2213,-1.2213,-1.2332,-1.2474,-1.2705,-1.3037,-1.3064,-1.305,-1.3009,-1.3125,-1.3091,-1.2982,-1.3186,-1.3227,-1.3193,-1.3275,-1.3261,-1.3227,-1.3315,-1.3376,-1.3403,-1.3403,0.0,0.0,0.0,0.0,-1.3288,-1.3646,-1.3693,-1.3761,-1.4403,-1.4633,-1.4836,-1.5438,-1.5593,-1.5668,-1.6015,-1.6083,-1.6083,-1.6083,-1.6083,-1.6083,-1.6083,-1.6083,-1.6083,-1.6083,-1.6083,-1.6083,-1.6083,-1.6083,-1.6083,-1.6083,-1.6083,-1.6083,-1.6083,-1.6083,-1.6083,-1.6083,-1.6083,-1.6083,-1.6083,-1.6083,-1.6083,-1.6083,-1.6083,-1.6083,-1.6083,-1.6083,-1.6083,-1.6083,-1.6083,-1.6083,-1.6083,-1.6083,-1.6083,-1.6083,-1.6083,-1.6083,-1.6083,-1.6083,-1.6083,-1.6083,-1.6083,-1.6083,-1.6083,-1.6083,-1.6083,-1.6083,0.0,0.0,0.0,0.0,0.0,0.0,0.0,0.0,0.0,0.0,-1.1584,-1.1584,-1.1584,-1.1584,-1.1577,-1.1556,-1.1606,-1.1545,-1.1369,0.0,0.0,-1.2264,-1.2291,-1.2494,-1.2962,-1.2651,-1.2494,-1.2474,-1.2332,-1.2332,-1.2474,-1.263,-1.2861,-1.3193,-1.3281,-1.32,-1.3003,-1.3023,-1.2901,-1.2726,-1.2767,-1.2888,-1.303,-1.305,-1.3125,-1.3214,-1.3234,-1.3288,-1.3403,-1.3403,-1.3403,0.0,0.0,0.0,-1.341,-1.3558,-1.3687,-1.3822,-1.4095,-1.4441,-1.4836,-1.5438,-1.5593,-1.5668,-1.6015,-1.6083,-1.6083,-1.6083,-1.6083,-1.6083,-1.6083,-1.6083,-1.6083,-1.6083,-1.6083,-1.6083,-1.6083,-1.6083,-1.6083,-1.6083,-1.6083,-1.6083,-1.6083,-1.6083,-1.6083,-1.6083,-1.6083,-1.6083,-1.6083,-1.6083,-1.6083,-1.6083,-1.6083,-1.6083,-1.6083,-1.6083,-1.6083,-1.6083,-1.6083,-1.6083,-1.6083,-1.6083,-1.6083,-1.6083,-1.6083,-1.6083,-1.6083,-1.6083,-1.6083,-1.6083,-1.6083,-1.6083,-1.6083,-1.6083,-1.6083,-1.6083,0.0,0.0,0.0,0.0,0.0,0.0,0.0,0.0,0.0,0.0,0.0,-1.1584,-1.1584,-1.1584,-1.1586,-1.1497,-1.1572,-1.1556,-1.1525,-1.1592,-1.1837,-1.2271,-1.2447,-1.263,-1.2827,-1.2698,-1.2589,-1.2501,-1.2271,-1.2404,-1.2799,-1.2739,-1.2888,-1.3214,-1.3241,-1.32,-1.3003,-1.3003,-1.2874,-1.2706,-1.2908,-1.3071,-1.3207,-1.3207,-1.3247,-1.3288,-1.3248,-1.3254,-1.3275,-1.3275,-1.3329,-1.3403,-1.3403,0.0,0.0,0.0,-1.3546,-1.3682,-1.4089,-1.4462,-1.4816,-1.5384,-1.5526,-1.5696,-1.5906,-1.6071,-1.6083,-1.6083,-1.6083,-1.6083,-1.6083,-1.6083,-1.6083,-1.6083,-1.6083,-1.6083,-1.6083,-1.6083,-1.6083,-1.6083,-1.6083,-1.6083,-1.6083,-1.6083,-1.6083,-1.6083,-1.6083,-1.6083,-1.6083,-1.6083,-1.6083,-1.6083,-1.6083,-1.6083,-1.6083,-1.6083,-1.6083,-1.6133,-1.7593,-1.8278,-1.8327,-1.979,-1.8862,-1.6182,-1.7642,-1.8278,-1.8418,-1.9888,-2.047,-2.047,-2.047,-2.047,-2.047,-2.047,-2.047,-2.047,0.0,0.0,0.0,0.0,0.0,0.0,0.0,0.0,0.0,0.0,0.0,-1.1638,-1.1638,0.0,0.0,0.0,-1.1552,-1.1584,-1.1584,-1.1678,-1.1911,-1.2216,-1.2515,-1.2652,-1.2693,-1.2693,-1.2632,-1.2562,-1.2264,-1.2445,-1.3003,-1.284,-1.2949,-1.3227,-1.3227,-1.3193,-1.305,-1.3016,-1.2874,-1.272,-1.3051,-1.3241,-1.3356,-1.3471,-1.3539,-1.3539,-1.3315,-1.3254,-1.3275,-1.3241,-1.3288,-1.3349,-1.339,-1.3403,0.0,0.0,0.0,-1.3512,-1.4041,-1.4302,-1.4593,-1.5167,-1.5411,-1.5581,-1.5854,-1.6017,-1.6083,-1.6083,-1.6083,-1.6083,-1.6083,-1.6083,-1.6083,-1.6083,-1.6083,-1.6083,-1.6083,-1.6083,-1.6083,-1.6083,-1.6083,-1.6083,-1.6083,-1.6083,-1.6083,-1.6083,-1.6083,-1.6083,-1.6083,-1.6083,-1.6083,-1.6083,-1.6083,-1.6083,-1.6083,-1.6765,-1.7402,-1.8088,-2.0077,-2.1,-2.1049,-2.2994,-2.1784,-1.8187,-2.0126,-2.1,-2.1147,-2.3101,-2.388,-2.388,-2.388,-2.388,-2.388,-2.388,-2.388,-2.388,0.0,0.0,0.0,0.0,0.0,0.0,0.0,0.0,0.0,0.0,0.0,-1.1786,-1.1786,-1.1786,-1.1726,-1.1584,-1.1613,-1.1584,-1.1584,-1.1626,-1.1762,-1.2098,-1.2359,0.0,-1.2686,-1.2693,-1.2686,-1.2679,-1.242,-1.2515,-1.3003,-1.2989,-1.3146,-1.339,-1.339,-1.3302,-1.3193,-1.3057,-1.2874,-1.272,-1.3051,-1.322,-1.3227,-1.3612,-1.3905,-1.398,-1.3546,-1.3485,-1.3559,-1.3268,-1.322,-1.3248,-1.3356,-1.3403,-1.3403,0.0,0.0,0.0,-1.3741,-1.3835,-1.4025,-1.4808,-1.5099,-1.5323,-1.5806,-1.6017,-1.6083,-1.6083,-1.6083,-1.6083,-1.6083,-1.6083,-1.6083,-1.6083,-1.6083,-1.6083,-1.6083,-1.6083,-1.6083,-1.6083,-1.6083,-1.6083,-1.6083,-1.6083,-1.6083,-1.6083,-1.6083,-1.6083,-1.6083,-1.6083,-1.6083,-1.6083,-1.6083,-1.6083,-1.6083,-1.8566,-2.1049,-2.3491,-2.3637,-2.3686,-2.3686,-2.3831,-2.3734,-2.3491,-2.3637,-2.3686,-2.3734,-2.3821,-2.388,-2.388,-2.388,-2.388,-2.388,-2.388,-2.388,-2.388,0.0,0.0,0.0,0.0,0.0,0.0,0.0,0.0,0.0,0.0,0.0,0.0,0.0,-1.1712,-1.1638,-1.159,-1.1584,-1.1579,-1.1477,-1.1742,-1.1989,-1.2091,-1.2574,-1.2773,-1.2693,-1.2827,-1.2827,-1.2693,-1.2528,-1.261,-1.3003,-1.3003,-1.3159,-1.339,-1.3207,-1.318,-1.32,-1.2915,-1.2779,-1.2733,-1.3268,-1.3519,-1.3641,-1.4,-1.4224,-1.4306,-1.396,-1.3743,-1.3572,-1.3505,-1.3403,-1.3329,-1.3383,-1.3403,-1.3403,-1.3403,-1.3403,-1.3464,-1.372,-1.3795,-1.391,-1.4421,-1.4862,-1.5221,-1.5432,-1.5813,-1.6083,-1.6083,-1.6083,-1.6083,-1.6083,-1.6083,-1.6083,-1.6083,-1.6083,-1.6083,-1.6083,-1.6083,-1.6083,-1.6083,-1.6083,-1.6083,-1.6083,-1.6083,-1.6083,-1.6083,-1.6083,-1.6083,-1.6083,-1.6083,-1.6083,-1.6083,-1.6083,-1.6913,-1.8566,-2.1196,-2.2946,-2.3919,-2.5577,-2.6409,-2.6457,-2.8152,-2.8931,-2.8931,-2.8931,-2.796,-2.6505,-2.8212,-2.8931,-2.8931,-2.8931,-2.8931,-2.8931,-2.8931,-2.8931,-2.8931,0.0,0.0,0.0,-1.2254,0.0,-1.3221,-1.3,-1.3637,-1.3837,-1.3082,0.0,0.0,0.0,0.0,-1.2901,-1.3432,-1.3488,-1.35,-1.3515,-1.3797,-1.3747,-1.32,-1.3654,-1.354,-1.2732,-1.2881,-1.2888,-1.2693,-1.2576,-1.263,-1.2888,-1.2975,-1.3132,-1.3315,-1.3159,-1.3152,-1.3234,-1.2983,-1.2881,-1.2929,-1.3532,-1.3734,-1.3774,-1.4272,-1.4441,-1.4407,-1.4156,-1.398,-1.3815,-1.3815,-1.3817,-1.3756,-1.3654,-1.3526,-1.3403,-1.3403,-1.3403,-1.3444,-1.3641,-1.3653,-1.3777,-1.4136,-1.4516,-1.4889,-1.5194,-1.5567,-1.59,-1.6049,-1.6083,-1.6083,-1.6083,-1.6083,-1.6083,-1.6083,-1.6083,-1.6083,-1.6083,-1.6083,-1.6083,-1.6083,-1.6083,-1.6083,-1.6083,-1.6083,-1.6083,-1.6083,-1.6083,-1.6083,-1.6083,-1.6083,-1.6523,-1.7402,-1.8278,-1.9987,-2.2614,-2.4366,-2.5625,-2.6554,-2.826,-2.9087,-2.9182,-3.089,-3.1711,-3.1711,-3.1711,-3.07,-2.923,-3.0985,-3.1711,-3.1711,-3.1711,-3.1711,-3.1711,-3.1711,-3.1711,-3.1711,0.0,-1.2419,-1.2467,-1.2681,-1.4197,-1.5428,-1.5419,-1.6971,-1.7512,-1.5656,0.0,0.0,0.0,0.0,0.0,-1.7077,-1.7223,-1.7349,-1.7658,-1.7689,-1.7022,-1.546,-1.5701,-1.4946,-1.2936,-1.3087,-1.3087,-1.2896,-1.2699,-1.2667,-1.2824,-1.2935,-1.3077,-1.322,-1.3214,-1.3254,-1.3383,-1.3227,-1.3207,-1.3261,-1.386,-1.3935,-1.3807,-1.4544,-1.4698,-1.4527,-1.4331,-1.4322,-1.4401,-1.4319,-1.4394,-1.4441,-1.4143,-1.3749,-1.3403,-1.3403,-1.3403,-1.3403,0.0,0.0,0.0,-1.3989,-1.4105,-1.4299,-1.5174,-1.5377,-1.552,-1.5967,-1.6062,-1.6062,-1.6083,-1.6083,-1.6083,-1.6083,-1.6083,-1.6083,-1.6083,-1.6083,-1.6083,-1.6083,-1.6083,-1.6083,-1.6083,-1.6083,-1.6083,-1.6083,-1.6083,-1.6083,-1.6083,-1.6182,-1.7402,-2.0027,-2.2653,-2.5238,-2.778,-2.7876,-2.9182,-3.1711,-3.1711,-3.1711,-3.1711,-3.1711,-3.1711,-3.1711,-3.1711,-3.1711,-3.1711,-3.1711,-3.1711,-3.1711,-3.1711,-3.1711,-3.1711,-3.1711,-3.1711,-3.1711,-1.4663,-1.5046,-1.5613,-1.721,-1.7951,-1.8289,-1.8133,-1.869,-1.8873,0.0,0.0,0.0,-1.7495,-1.7129,-1.706,-1.7373,-1.7506,-1.745,-1.7221,-1.7587,-1.7716,-1.7476,-1.7971,-1.8082,-1.7759,-1.7824,-1.7824,-1.7768,-1.5942,-1.5136,-1.5353,-1.3745,-1.3139,-1.3336,-1.322,-1.3234,-1.3268,-1.3118,-1.3118,-1.3248,-1.3593,-1.4884,-1.6687,-1.7186,-1.8559,-2.0016,-1.8188,-1.7451,-1.6992,-1.5378,-1.4448,-1.393,-1.3682,-1.3498,-1.3403,-1.3403,-1.3403,-1.3403,-1.3403,0.0,0.0,0.0,0.0,0.0,-1.4387,-1.4692,-1.5052,-1.5506,-1.5594,-1.5696,-1.6022,-1.6083,-1.6083,-1.6083,-1.6083,-1.6083,-1.6083,-1.6083,-1.6083,-1.6083,-1.6083,-1.6083,-1.6083,-1.6083,-1.6083,-1.6083,-1.6083,-1.6083,-1.6083,-1.7882,-2.0126,-2.276,-2.5335,-2.7047,-2.778,-2.9673,-3.0985,-3.1711,-3.1711,-3.1711,-3.1711,-3.1711,-3.1711,-3.1711,-3.1711,-3.1711,-3.1711,-3.1711,-3.1711,-3.1711,-3.1711,-3.1711,-3.1711,-3.1711,-3.1711,-3.1711,-1.7219,-1.7507,-1.7935,-1.919,-2.0167,-2.0719,-2.0577,-2.1372,-2.1649,0.0,0.0,0.0,-1.9719,-2.0129,-2.034,-2.0156,-2.0201,-2.0212,-2.0155,-2.0487,-2.0484,-2.007,-2.0438,-2.035,-1.9722,-1.9693,-1.9693,-1.9693,-1.8151,-1.7495,-1.7606,-1.6393,-1.59,-1.6016,-1.6024,-1.6008,-1.5999,-1.5859,-1.4773,-1.3336,-1.4837,-1.635,-1.7862,-1.9345,-2.0865,-2.1985,-2.0707,-1.9391,-1.8324,-1.8416,-1.7256,-1.5563,-1.4354,-1.3702,-1.3403,-1.3403,-1.3403,-1.3403,-1.3403,-1.3403,-1.3417,-1.3478,0.0,0.0,-1.4265,-1.455,-1.4856,-1.5479,-1.5649,-1.5771,-1.6035,-1.6083,-1.6083,-1.6083,-1.6083,-1.6083,-1.6083,-1.6083,-1.6083,-1.6083,-1.6083,-1.6083,-1.6083,-1.7105,-1.7741,-1.7741,-1.8714,-1.9355,-1.9355,-2.1832,-2.3977,-2.5491,-2.8068,-2.9434,-2.9434,-3.0938,-3.1711,-3.1711,-3.1711,-3.1711,-3.1711,-3.1711,-3.1711,-3.1711,-3.1711,-3.1711,-3.1711,-3.1711,-3.1711,-3.1711,-3.1711,-3.1711,-3.1711,-3.1711,-3.1711,-3.1711,0.0,-1.9829,-1.9889,-2.0124,-2.172,-2.2961,-2.2925,-2.4495,-2.4984,0.0,-2.2937,-2.2733,-2.2166,-2.3396,0.0,0.0,-2.3897,-2.4022,-2.4479,-2.4559,-2.4079,-2.2846,-2.2963,-2.2252,-2.048,-2.044,-2.044,-2.044,-2.0001,-1.9779,-1.981,-1.972,-1.9693,-1.9693,-1.9816,-1.9856,-1.9826,-1.9724,-1.753,-1.4314,-1.7135,-1.8318,-1.8642,-2.1423,-2.2557,-2.2609,-2.2572,-2.1071,-1.9491,-2.2182,-2.1277,-1.8572,-1.5874,-1.4522,-1.3902,-1.3514,-1.3437,-1.3464,-1.3417,0.0,0.0,-1.3566,-1.3498,0.0,-1.4363,-1.4559,-1.4821,-1.5581,-1.584,-1.59,-1.5947,-1.5961,-1.5954,-1.5934,-1.5988,-1.6042,-1.6076,-1.6083,-1.6083,-1.6083,-1.6083,-1.6083,-1.6083,-1.8468,-1.9978,-1.9978,-2.2409,-2.4026,-2.4317,-2.6554,-2.7924,-2.8212,-3.0496,-3.1711,-3.1711,-3.1711,-3.1711,-3.1711,-3.1711,-3.1711,-3.1711,-3.1711,-3.1711,-3.1711,-3.1711,-3.1711,-3.1711,-3.1711,-3.1711,-3.1711,-3.1711,-3.1711,-3.1711,-3.1711,-3.1711,-3.1711,-2.1873,-2.2321,-2.2948,-2.4716,-2.5554,-2.5871,-2.5688,-2.6175,-2.6401,-2.5989,-2.5753,-2.5518,-2.5178,-2.5035,0.0,0.0,-2.4396,-2.4062,-2.3941,-2.4382,-2.4611,-2.4602,-2.5074,-2.5257,-2.5082,-2.5082,-2.5082,-2.5082,-2.3154,-2.2263,-2.2339,-2.0551,-1.9643,-1.9523,-1.9693,-1.9572,-1.9342,-1.9592,-1.9593,-1.949,-1.9955,-2.1453,-2.3551,-2.4684,-2.6407,-2.8042,-2.6087,-2.5083,-2.4383,-2.2823,-2.2172,-2.1371,-1.8009,-1.7252,-1.7024,-1.4231,-1.3654,-1.3865,-1.3498,0.0,0.0,-1.3437,-1.3424,0.0,-1.362,-1.3756,-1.3987,-1.4496,-1.4624,-1.476,-1.512,-1.5187,-1.5147,-1.5025,-1.5364,-1.5811,-1.6049,-1.6083,-1.6083,-1.6083,-1.6083,-1.6083,-1.6083,-1.8468,-1.9978,-1.9978,-2.2409,-2.4802,-2.695,-2.754,-2.8752,-3.089,-3.1426,-3.1711,-3.1711,-3.1711,-3.1711,-3.1711,-3.1711,-3.1711,-3.1711,-3.1711,-3.1711,-3.1711,-3.1711,-3.1711,-3.1711,-3.1711,-3.1711,-3.1711,-3.1711,-3.1711,-3.1711,-3.1711,-3.1711,-3.1711,-2.4429,-2.47,-2.513,-2.6374,-2.672,-2.6827,-2.6827,-2.6947,-2.7041,-2.7041,-2.6667,-2.6319,-2.6024,-2.5462,0.0,0.0,0.0,0.0,-2.4459,-2.4836,-2.5106,-2.5291,-2.5904,-2.6212,-2.6212,-2.6319,-2.6386,-2.6386,-2.5228,-2.4662,-2.4721,-2.3568,-2.3232,-2.3574,-2.3197,-2.3213,-2.3426,-2.3138,-2.3296,-2.3645,-2.315,-2.4106,-2.5966,-2.7671,-2.908,-2.9992,-2.8743,-2.8277,-2.7678,-2.3554,-2.3036,-2.3596,-2.095,-2.0028,-1.9351,-1.6517,-1.5876,-1.5668,-1.3895,-1.3403,-1.3403,-1.3403,-1.3403,0.0,0.0,-1.3736,-1.398,-1.4428,-1.4523,-1.459,-1.4814,-1.4855,-1.4828,-1.4708,-1.5134,-1.5547,-1.5622,-1.5893,-1.6083,-1.6083,-1.6083,-1.6623,-1.7939,-2.042,-2.3043,-2.5614,-2.7035,-2.8356,-2.9673,-2.9768,-3.0353,-3.1664,-3.1711,-3.1711,-3.1711,-3.1711,-3.1711,-3.1711,-3.1711,-3.1711,-3.1711,-3.1711,-3.1711,-3.1711,-3.1711,-3.1711,-3.1711,-3.1711,-3.1711,-3.1711,-3.1711,-3.1711,-3.1711,-3.1711,-3.1711,-3.1711,-2.6386,-2.6386,-2.648,-2.6734,-2.6867,-2.6987,-2.7269,-2.7349,-2.7376,-2.7309,-2.7001,-2.6707,-2.6453,-2.5998,0.0,0.0,0.0,0.0,-2.5288,-2.5518,-2.5705,-2.5758,-2.6052,-2.6239,-2.6332,-2.6346,-2.6333,-2.6386,-2.6386,-2.6386,-2.6386,-2.6386,-2.6734,-2.7348,-2.6854,-2.6907,-2.7335,-2.6854,-2.6747,-2.6839,-2.6231,-2.6329,-2.7083,-2.9599,-3.044,-3.0266,-3.0426,-3.0493,-2.9781,-2.5207,-2.4786,-2.583,-2.3694,-2.261,-2.1527,-1.8587,-1.7871,-1.7365,-1.4236,-1.3424,-1.3437,-1.341,-1.3424,-1.3498,0.0,0.0,0.0,-1.4403,-1.4457,-1.4437,-1.4437,-1.441,-1.4397,-1.4397,-1.4869,-1.5153,-1.5031,-1.5959,-1.6454,-1.5996,-1.6029,-1.7097,-1.9691,-2.2703,-2.6489,-3.1318,-3.1617,-3.1591,-3.1711,-3.1711,-3.1711,-3.1711,-3.1711,-3.1711,-3.1711,-3.1711,-3.1711,-3.1711,-3.1711,-3.1711,-3.1711,-3.1711,-3.1711,-3.1711,-3.1711,-3.1711,-3.1711,-3.1711,-3.1711,-3.1711,-3.1711,-3.1711,-3.1711,-3.1711,-3.1711,-3.1711,-2.6386,-2.6386,-2.648,-2.6734,-2.7041,-2.7269,-2.7309,-2.7482,-2.7562,-2.7336,-2.7909,-2.8243,-2.7965,-2.7884,-2.7817,-2.7791,-2.7309,-2.6693,-2.5944,-2.6172,-2.64,-2.6627,-2.5999,-2.6199,-2.7468,-2.656,-2.6172,-2.6386,-2.6386,-2.6386,-2.6386,-2.6386,-2.6346,-2.6238,-2.7134,-2.7028,-2.6252,-2.7148,-2.8016,-2.8708,-2.8608,-2.802,-2.7418,-2.9011,-2.9606,-2.9686,-3.0461,-3.0742,-3.0516,-2.9173,-2.9015,-2.8733,-2.501,-2.4618,-2.433,-1.8466,-1.7409,-1.7474,-1.4251,-1.3498,-1.3531,-1.3437,-1.3505,-1.3531,-1.3478,0.0,-1.3653,-1.37,0.0,-1.3553,-1.3553,0.0,0.0,-1.3349,-1.396,-1.4421,-1.4401,-1.6727,-1.7671,-1.5705,-1.5839,-1.7104,-1.9564,-2.3918,-2.7982,-3.1434,-3.1183,-3.1116,-3.1684,-3.1711,-3.1711,-3.1711,-3.1711,-3.1711,-3.1711,-3.1711,-3.1711,-3.1711,-3.1711,-3.1711,-3.1711,-3.1711,-3.1711,-3.1711,-3.1711,-3.1711,-3.1711,-3.1711,-3.1711,-3.1711,-3.1711,-3.1711,-3.1711,-3.1711,-3.1711,-3.1711,-2.6386,-2.6533,-2.668,-2.676,-2.7201,-2.7522,-2.7522,-2.7923,-2.8177,-2.8056,-2.8377,-2.8484,-2.8219,-2.7884,-2.775,-2.7911,-2.755,-2.7081,-2.6493,-2.6894,-2.6827,-2.6092,-2.6199,-2.64,-2.672,-2.6412,-2.6305,-2.6386,-2.6386,-2.6386,-2.6386,-2.6386,-2.66,-2.7028,-2.7482,-2.7722,-2.7749,-2.7709,-2.7909,-2.8257,-2.8257,-2.7963,-2.7749,-2.9972,-3.0648,-3.0515,-3.0715,-3.0795,-3.0742,-3.0368,-2.9753,-2.903,-2.8384,-2.7642,-2.629,-2.2703,-2.1767,0.0,-1.8,-1.7568,-1.7898,-1.7506,-1.6785,-1.6021,-1.5394,-1.517,-1.5136,-1.5202,0.0,0.0,0.0,0.0,0.0,0.0,-1.3804,-1.4238,-1.4055,-1.6495,-1.807,-1.7382,-1.8641,-2.072,-2.3619,-2.7099,-2.9878,-3.1576,-3.1129,-3.1049,-3.1684,-3.1711,-3.1711,-3.1711,-3.1711,-3.1711,-3.1711,-3.1711,-3.1711,-3.1711,-3.1711,-3.1711,-3.1711,-3.1711,-3.1711,-3.1711,-3.1711,-3.1711,-3.1711,-3.1711,-3.1711,-3.1711,-3.1711,-3.1711,-3.1711,-3.1711,-3.1711,-3.1711,-2.6493,-2.668,-2.6854,-2.6934,-2.7362,-2.7749,-2.7923,-2.8323,-2.8631,-2.8711,-2.8724,-2.8698,-2.8674,-2.8286,-2.8136,-2.8511,-2.835,-2.8043,-2.7575,-2.7722,-2.7495,-2.6747,-2.656,-2.6573,-2.6841,-2.6453,-2.6306,-2.6386,-2.6386,-2.6386,-2.6386,-2.6386,-2.6734,-2.7348,-2.7682,-2.8136,-2.8615,-2.8323,-2.8283,-2.843,-2.843,-2.8577,-2.8965,-3.0662,-3.133,-3.1316,-3.1116,-3.1036,-3.0996,-3.0755,-2.9967,-2.9272,-3.0301,-2.9553,-2.7925,-2.6012,0.0,0.0,-2.1138,-2.0742,-2.1059,-2.0363,-1.9391,-1.8361,-1.7583,-1.7315,-1.7239,-1.7246,-1.8276,0.0,0.0,0.0,0.0,0.0,0.0,-1.5777,-1.557,-1.7853,-1.9284,-1.8411,-2.1082,-2.3965,-2.6445,-2.8848,-3.0621,-3.1417,-3.0889,-3.0875,-3.1671,-3.1711,-3.1711,-3.1711,-3.1711,-3.1711,-3.1711,-3.1711,-3.1711,-3.1711,-3.1711,-3.1711,-3.1711,-3.1711,-3.1711,-3.1711,-3.1711,-3.1711,-3.1711,-3.1711,-3.1711,-3.1711,-3.1711,-3.1711,-3.1711,-3.1711,-3.1711,-3.1711,-2.6747,-2.6774,-2.6907,-2.7242,-2.7495,-2.7896,-2.8484,-2.8591,-2.8711,-2.8948,-2.8988,-2.9188,-2.9793,-2.9847,-3.006,-3.0648,-3.0688,-3.0314,-2.9459,-2.8647,-2.866,-2.9726,-2.7068,-2.6613,-2.8841,-2.6987,-2.6145,-2.6386,-2.6386,-2.6386,-2.6386,-2.6386,-2.64,-2.648,-2.7657,-2.8031,-2.7816,-2.8951,-2.9798,-3.0319,-3.0319,-3.0828,-3.151,-3.0734,-3.0975,-3.1698,-3.1684,-3.1684,-3.1564,-3.0707,-3.0386,-3.0212,-2.9322,-2.9402,-2.9325,-2.6567,-2.6196,-2.5811,-2.2149,-2.1286,-2.1159,-2.017,-1.9956,-1.9924,-1.9504,-1.9614,-1.9715,-1.9454,-1.9563,0.0,0.0,0.0,0.0,0.0,0.0,0.0,0.0,0.0,0.0,-1.7845,-2.205,-2.5511,-2.5956,-2.7877,-2.9535,-3.0728,-3.0274,-3.0448,-3.1657,-3.1711,-3.1711,-3.1711,-3.1711,-3.1711,-3.1711,-3.1711,-3.1711,-3.1711,-3.1711,-3.1711,-3.1711,-3.1711,-3.1711,-3.1711,-3.1711,-3.1711,-3.1711,-3.1711,-3.1711,-3.1711,-3.1711,-3.1711,-3.1711,-3.1711,-3.1711,-3.1711,-2.676,-2.6787,-2.6921,-2.7255,-2.771,-2.8179,-2.8551,-2.8938,-2.9285,-2.9579,-2.9793,-3.006,-3.0448,-3.0327,-3.0448,-3.1022,-3.0902,-3.0581,-3.0145,-2.9593,-2.9325,-2.9295,-2.7629,-2.7134,-2.8136,-2.6894,-2.6293,-2.6386,-2.6587,-2.668,-2.668,-2.668,-2.668,-2.672,-2.775,-2.8353,-2.8588,-2.9232,-2.9864,-3.04,-3.04,-3.0694,-3.1102,-3.1243,-3.1457,-3.1711,-3.1711,-3.1711,-3.1671,-3.1376,-3.0881,-3.0453,-3.0688,-3.0114,-2.9189,-2.8697,-2.8397,-2.7964,-2.6686,-2.6846,-2.7063,-2.5704,-2.4476,-2.3202,-2.1894,-2.1541,-2.1463,-2.1374,-2.2506,0.0,0.0,0.0,0.0,0.0,0.0,0.0,0.0,0.0,-2.3411,0.0,0.0,0.0,0.0,0.0,-2.994,-3.0728,-3.0608,-3.0835,-3.1671,-3.1711,-3.1711,-3.1711,-3.1711,-3.1711,-3.1711,-3.1711,-3.1711,-3.1711,-3.1711,-3.1711,-3.1711,-3.1711,-3.1711,-3.1711,-3.1711,-3.1711,-3.1711,-3.1711,-3.1711,-3.1711,-3.1711,-3.1711,-3.1711,-3.1711,-3.1711,-3.1711,-2.6787,-2.6907,-2.7041,-2.7269,-2.7884,-2.8486,-2.8858,-2.9325,-2.974,-3.0034,-3.0293,-3.056,-3.0902,-3.0688,-3.0742,-3.133,-3.1209,-3.0942,-3.0587,-3.0234,-2.9953,-2.9628,-2.8524,-2.8136,-2.8631,-2.7682,-2.7121,-2.7055,-2.7094,-2.7081,-2.6974,-2.6867,-2.6787,-2.6814,-2.7563,-2.8283,-2.9028,-2.9472,-3.01,-3.0868,-3.0868,-3.0988,-3.1142,-3.153,-3.1591,-3.143,-3.1644,-3.1711,-3.1711,-3.1711,-3.1336,-3.0975,-3.1537,-3.0889,-3.0047,-3.0434,-3.0274,-2.99,-2.9593,-2.9927,-3.0105,-2.8821,-2.7547,-2.624,-2.4668,-2.4286,-2.4199,-2.4113,-2.501,0.0,0.0,0.0,0.0,0.0,0.0,0.0,0.0,-2.3392,0.0,0.0,0.0,0.0,0.0,0.0,0.0,-3.0862,-3.0662,-3.0835,-3.1671,-3.1711,-3.1711,-3.1711,-3.1711,-3.1711,-3.1711,-3.1711,-3.1711,-3.1711,-3.1711,-3.1711,-3.1711,-3.1711,-3.1711,-3.1711,-3.1711,-3.1711,-3.1711,-3.1711,-3.1711,-3.1711,-3.1711,-3.1711,-3.1711,-3.1711,-3.1711,-3.1711,-2.6827,-2.7121,-2.7376,-2.7389,-2.8056,-2.8831,-2.9419,-2.9753,-3.0047,-3.0386,-3.044,-3.0621,-3.1183,-3.1009,-3.1062,-3.1671,-3.1711,-3.1483,-3.0875,-3.06,-3.056,-3.0822,-2.97,-2.9472,-3.0386,-2.9179,-2.843,-2.8205,-2.7843,-2.7549,-2.7349,-2.7001,-2.6827,-2.6881,-2.7175,-2.7963,-2.9055,-2.9686,-3.0608,-3.1711,-3.1711,-3.1698,-3.1671,-3.1711,-3.135,-3.0875,-3.1463,-3.1711,-3.1711,-3.1711,-3.1711,-3.1711,-3.1711,-3.1711,-3.1711,-3.1711,-3.1711,-3.1537,-3.0694,-3.0467,-3.0253,-2.9282,-2.9055,-2.8735,-2.7643,-2.7549,-2.7669,-2.7429,-2.6894,-2.7108,0.0,0.0,0.0,0.0,0.0,0.0,0.0,0.0,0.0,0.0,0.0,0.0,0.0,0.0,0.0,0.0,-3.0434,0.0,0.0,-3.1724,-3.1711,-3.1738,-3.1738,-3.1724,-3.1711,-3.1711,-3.1711,-3.1711,-3.1711,-3.1711,-3.1711,-3.1711,-3.1711,-3.1711,-3.1711,-3.1711,-3.1711,-3.1711,-3.1711,-3.1711,-3.1711,-3.1711,-3.1711,-3.1711,-3.1711,-3.1711,-2.7468,-2.7896,-2.8337,-2.8551,-2.8735,-2.9081,-2.9713,-3.006,-3.0354,-3.0648,-3.0862,-3.1142,-3.1517,-3.149,-3.155,-3.1698,-3.1711,-3.1644,-3.1497,-3.0969,-3.0915,-3.147,-3.0114,-2.9673,-3.0386,-2.8764,-2.811,-2.8484,-2.7736,-2.7603,-2.7951,-2.7615,-2.7468,-2.7482,-2.7831,-2.85,-2.9406,-2.9993,-3.0841,-3.1711,-3.1711,-3.1457,-3.1062,-3.155,-3.135,-3.0875,-3.1463,-3.1711,-3.1711,-3.1711,-3.1711,-3.1711,-3.1711,-3.1711,-3.1711,-3.1711,-3.1711,-3.1671,-3.1443,-3.1376,-3.1176,-3.0247,-2.986,-2.9432,-2.8484,-2.8323,-2.835,-2.8283,-2.831,-2.8323,-2.8177,-2.7722,0.0,0.0,0.0,0.0,0.0,0.0,0.0,-2.6787,0.0,0.0,0.0,0.0,0.0,0.0,0.0,0.0,-3.2313,-3.169,-3.1543,-3.1971,-3.1984,-3.1891,-3.1724,-3.1711,-3.1711,-3.1711,-3.1711,-3.1711,-3.1711,-3.1711,-3.1711,-3.1711,-3.1711,-3.1711,-3.1711,-3.1711,-3.1711,-3.1711,-3.1711,-3.1711,-3.1711,-3.1711,-3.1711,-3.1711,-2.7603,-2.8096,-2.8778,-2.9282,-2.9526,-2.9766,-3.0234,-3.0341,-3.0507,-3.0755,-3.1049,-3.1289,-3.1463,-3.1597,-3.1711,-3.1711,-3.1711,-3.1604,-3.1303,-3.1223,-3.1209,-3.1276,-3.0742,-3.0641,-3.0975,-2.982,-2.9285,-2.9379,-2.8604,-2.8312,-2.8379,-2.7896,-2.7696,-2.7709,-2.8045,-2.8607,-2.9352,-3.0327,-3.0955,-3.1303,-3.157,-3.1524,0.0,-3.1591,-3.151,-3.1223,-3.1591,-3.1711,-3.1711,-3.1711,-3.1711,-3.1711,-3.1711,-3.1711,-3.1711,-3.1711,-3.1711,-3.1711,-3.1711,-3.1711,-3.1591,-3.1095,-3.0855,-3.0448,-2.9579,-2.9379,-2.9379,-2.9379,-2.9192,-2.9121,-2.9553,-2.8564,-2.7415,0.0,0.0,0.0,0.0,0.0,0.0,0.0,-2.7228,0.0,0.0,0.0,0.0,0.0,0.0,-3.1303,-3.1931,-3.1623,-3.1623,-3.2091,-3.2225,-3.2139,-3.1724,-3.1845,-3.1845,-3.1711,-3.1711,-3.1711,-3.1711,-3.1711,-3.1711,-3.1711,-3.1711,-3.1711,-3.1711,-3.1711,-3.1711,-3.1711,-3.1711,-3.1711,-3.1711,-3.1711,-3.1711,-3.1711,-2.7643,-2.8217,-2.9072,-2.9793,-3.0194,-3.056,-3.0808,-3.0635,-3.0614,-3.0822,-3.1102,-3.1303,-3.1283,-3.157,-3.173,-3.173,-3.173,-3.149,-3.0942,-3.143,-3.1497,-3.0929,-3.1443,-3.1711,-3.1711,-3.1303,-3.0889,-3.0467,-2.9713,-2.9125,-2.8644,-2.8043,-2.7762,-2.7762,-2.8112,-2.862,-2.9255,-3.0608,-3.1062,-3.0955,-3.151,-3.1711,-3.1711,-3.1711,-3.1711,-3.1711,-3.1711,-3.1711,-3.1711,-3.1711,-3.1711,-3.1711,-3.1711,-3.1711,-3.1711,-3.1711,-3.1711,-3.1711,-3.1711,-3.1711,-3.1711,-3.1711,-3.1711,-3.151,-3.0748,-3.0574,-3.0574,-3.0574,-2.9913,-2.9855,-3.157,-2.9686,-2.7589,0.0,0.0,0.0,0.0,0.0,0.0,0.0,0.0,0.0,0.0,0.0,0.0,0.0,0.0,0.0,-3.137,-3.149,-3.1744,-3.2144,-3.242,-3.2273,-3.1724,-3.1917,-3.1917,-3.1711,-3.1711,-3.1711,-3.1711,-3.1711,-3.1711,-3.1711,-3.1711,-3.1711,-3.1711,-3.1711,-3.1711,-3.1711,-3.1711,-3.1711,-3.1711,-3.1711,-3.1711,-3.1711,-2.8708,-2.9446,-3.0065,-2.9927,-3.0354,-3.0808,-3.1102,-3.1102,-3.1089,-3.1142,-3.141,-3.1677,-3.1917,-3.1998,-3.2024,-3.2024,-3.2024,-3.1877,-3.1543,-3.1657,-3.1671,-3.1564,-3.1657,-3.1711,-3.1711,-3.0962,-3.0581,-3.0715,-2.9406,-2.8831,-2.8908,-2.8393,-2.8112,-2.8125,-2.839,-2.9125,-3.0212,-3.0662,-3.1116,-3.1577,-3.1671,-3.1711,-3.1711,-3.1711,-3.1711,-3.1711,-3.1711,-3.1711,-3.1711,-3.1711,-3.1711,-3.1711,-3.1711,-3.1711,-3.1711,-3.1711,-3.1711,-3.1711,-3.1711,-3.1711,-3.1711,-3.1711,-3.1711,-3.1671,-3.1524,-3.1483,-3.1483,-3.1483,-3.1363,-3.1102,-3.0774,-2.9646,-2.8511,-2.7615,0.0,0.0,0.0,0.0,0.0,0.0,0.0,0.0,0.0,0.0,0.0,0.0,0.0,0.0,-3.2286,-3.145,-3.1457,-3.2487,-3.2278,-3.2011,-3.1724,-3.1764,-3.1764,-3.1711,-3.1711,-3.1711,-3.1711,-3.1711,-3.1711,-3.1711,-3.1711,-3.1711,-3.1711,-3.1711,-3.1711,-3.1711,-3.1711,-3.1711,-3.1711,-3.1711,-3.1711,-3.1711,-2.9887,-3.0167,-3.0453,-3.0568,-3.0955,-3.1343,-3.1637,-3.181,-3.1797,-3.149,-3.1717,-3.1944,-3.2091,-3.2238,-3.238,-3.238,-3.238,-3.2326,-3.2179,-3.2166,-3.2166,-3.2166,-3.2166,-3.2166,-3.2166,-3.1764,-3.131,-3.0795,-3.0087,-2.9419,-2.8804,-2.8524,-2.8339,-2.8219,-2.8938,-2.9606,-3.0194,-3.1089,-3.1543,-3.1738,-3.2045,-3.2166,-3.2166,-3.2166,-3.2166,-3.2152,-3.1944,-3.1891,-3.1877,-3.1764,-3.1711,-3.1711,-3.1711,-3.1711,-3.1711,-3.1711,-3.1711,-3.1711,-3.1711,-3.1711,-3.1711,-3.1711,-3.1711,-3.1711,-3.1711,-3.1711,-3.1711,-3.1711,-3.1711,-3.1443,-3.056,-2.9633,-2.8855,-2.8414,-2.8136,0.0,0.0,0.0,0.0,0.0,0.0,0.0,0.0,0.0,0.0,0.0,0.0,0.0,0.0,-3.1684,-3.1698,-3.2567,-3.2607,-3.2278,-3.1724,-3.1824,-3.1824,-3.1711,-3.1711,-3.1711,-3.1711,-3.1711,-3.1711,-3.1711,-3.1711,-3.1711,-3.1711,-3.1711,-3.1711,-3.1711,-3.1711,-3.1711,-3.1711,-3.1711,-3.1711,-3.1711,-3.0795,-3.0755,-3.0828,-3.1236,-3.157,-3.1837,-3.2064,-3.2412,-3.25,-3.1979,-3.2099,-3.2225,-3.2278,-3.2554,-3.2688,-3.2688,-3.2688,-3.2661,-3.2594,-3.2594,-3.2594,-3.2594,-3.2594,-3.2594,-3.2594,-3.2594,-3.2112,-3.1076,-3.0889,-3.014,-2.8885,-2.8764,-2.8631,-2.8593,-2.9366,-2.994,-3.0368,-3.1517,-3.1957,-3.1938,-3.2407,-3.2594,-3.2594,-3.2594,-3.2594,-3.2567,-3.2278,-3.2158,-3.2064,-3.1837,-3.1764,-3.1711,-3.1711,-3.1711,-3.1711,-3.1711,-3.1711,-3.1711,-3.1711,-3.1711,-3.1711,-3.1711,-3.1711,-3.1711,-3.1711,-3.1711,-3.1711,-3.1711,-3.1711,-3.1443,-3.056,-2.994,-2.9455,-2.9135,-2.8845,0.0,0.0,0.0,0.0,0.0,0.0,0.0,0.0,0.0,0.0,0.0,0.0,0.0,-3.1944,-3.1797,-3.1992,-3.2581,-3.2688,-3.2372,-3.1724,-3.1891,-3.1891,-3.1711,-3.1711,-3.1711,-3.1711,-3.1711,-3.1711,-3.1711,-3.1711,-3.1711,-3.1711,-3.1711,-3.1711,-3.1711,-3.1711,-3.1711,-3.1711,-3.1711,-3.1711,-3.1711,-3.1122,-3.1383,-3.1617,-3.1623,-3.1864,-3.2064,-3.2104,-3.2572,-3.2875,-3.2554,-3.2541,-3.2661,-3.2866,-3.2919,-3.2933,-3.2933,-3.2933,-3.2875,-3.2607,-3.2594,-3.2594,-3.2594,-3.2594,-3.2594,-3.2594,-3.2594,-3.2407,-3.1984,-3.1183,-3.0448,-2.978,-2.9202,-2.9228,-2.9726,-2.9268,-3.0007,-3.1564,-3.1698,-3.2045,-3.2514,-3.2567,-3.2594,-3.2594,-3.2594,-3.2594,-3.2594,-3.2567,-3.238,-3.2104,-3.2064,-3.1891,-3.1711,-3.1711,-3.1711,-3.1711,-3.1711,-3.1711,-3.1711,-3.1711,-3.1711,-3.1711,-3.1711,-3.1711,-3.1711,-3.1711,-3.1711,-3.1711,-3.1711,-3.1711,-3.1443,-3.056,-3.0988,-3.0982,-2.9659,-2.9891,-3.0507,0.0,0.0,0.0,0.0,0.0,0.0,0.0,-2.858,0.0,0.0,-3.0354,0.0,-3.165,-3.1724,-3.1992,-3.2581,-3.2099,-3.1805,-3.1711,-3.1738,-3.1738,-3.1711,-3.1711,-3.1711,-3.1711,-3.1711,-3.1711,-3.1711,-3.1711,-3.1711,-3.1711,-3.1711,-3.1711,-3.1711,-3.1711,-3.1711,-3.1711,-3.1711,-3.1711,-3.1711,-3.2024,-3.1971,-3.2038,-3.2447,-3.246,-3.2492,-3.2839,-3.3093,-3.32,-3.308,-3.3066,-3.3106,-3.3227,-3.324,-3.324,-3.324,-3.324,-3.3187,-3.3066,-3.3066,-3.3066,-3.3066,-3.3066,-3.3066,-3.3066,-3.3066,-3.2746,-3.2104,-3.157,-3.0755,-2.9659,-2.978,-3.0047,-3.0461,-3.0742,-3.1263,-3.1971,-3.2492,-3.2853,-3.3066,-3.3066,-3.3066,-3.3066,-3.3066,-3.3066,-3.304,-3.2915,-3.2732,-3.2599,-3.2474,-3.2099,-3.1711,-3.1711,-3.1711,-3.1711,-3.1711,-3.1711,-3.1711,-3.1711,-3.1711,-3.1711,-3.1711,-3.1711,-3.1711,-3.1711,-3.1711,-3.1711,-3.1711,-3.1711,-3.1617,-3.1256,-3.1055,-3.0908,-3.0855,-3.0748,-3.0929,0.0,0.0,0.0,0.0,0.0,0.0,0.0,0.0,0.0,0.0,0.0,0.0,-3.1631,-3.1503,-3.1597,-3.2059,-3.1957,-3.1851,-3.1711,-3.1711,-3.1711,-3.1711,-3.1711,-3.1711,-3.1711,-3.1711,-3.1711,-3.1711,-3.1711,-3.1711,-3.1711,-3.1711,-3.1711,-3.1711,-3.1711,-3.1711,-3.1711,-3.1711,-3.1711,-3.1711,-3.2701,-3.2505,-3.2519,-3.3013,-3.2982,-3.2933,-3.3347,-3.3414,-3.3414,-3.3414,-3.3414,-3.3414,-3.3414,-3.3414,-3.3414,-3.3414,-3.3414,-3.3414,-3.3414,-3.3414,-3.3414,-3.3414,-3.3414,-3.3414,-3.3414,-3.3414,-3.3106,-3.2492,-3.2118,-3.1403,-3.0261,-3.0373,-3.0748,-3.133,-3.177,-3.2171,-3.2532,-3.3146,-3.3414,-3.3414,-3.3414,-3.3414,-3.3414,-3.3414,-3.3414,-3.3387,-3.3187,-3.3053,-3.2946,-3.2795,-3.2393,-3.1965,-3.1872,-3.1744,-3.1711,-3.1711,-3.1711,-3.1711,-3.1711,-3.1711,-3.1711,-3.1711,-3.1711,-3.1711,-3.1711,-3.1711,-3.1711,-3.1711,-3.1711,-3.1711,-3.1711,-3.1216,-3.0935,-3.1343,-3.1209,-3.1236,-3.177,-3.2131,0.0,0.0,0.0,0.0,-3.1557,-3.0795,0.0,0.0,0.0,-3.0007,-3.1343,-3.137,-3.149,-3.1784,-3.1904,-3.1877,-3.1724,-3.1711,-3.1711,-3.1711,-3.1711,-3.1711,-3.1711,-3.1711,-3.1711,-3.1711,-3.1711,-3.1711,-3.1711,-3.1711,-3.1711,-3.1711,-3.1711,-3.1711,-3.1711,-3.1711,-3.1711,-3.1711,-3.2919,-3.2973,-3.3066,-3.336,-3.34,-3.34,-3.3414,-3.3414,-3.3414,-3.3414,-3.3414,-3.3414,-3.3414,-3.3414,-3.3414,-3.3414,-3.3414,-3.3414,-3.3414,-3.3414,-3.3414,-3.3414,-3.3414,-3.3414,-3.3414,-3.3414,-3.34,-3.34,-3.2862,-3.242,-3.2038,-3.0902,-3.1189,-3.2541,-3.1979,-3.2318,-3.34,-3.3414,-3.3414,-3.3414,-3.3414,-3.3414,-3.3414,-3.3414,-3.3414,-3.3414,-3.3414,-3.3213,-3.2973,-3.2973,-3.2822,-3.2527,-3.2185,-3.1904,-3.1711,-3.1711,-3.1711,-3.1711,-3.1711,-3.1711,-3.1711,-3.1711,-3.1711,-3.1711,-3.1711,-3.1711,-3.1711,-3.1711,-3.1711,-3.1711,-3.1711,-3.1711,-3.1463,-3.0902,-3.1289,-3.1557,-3.1276,-3.0996,0.0,-3.1209,-2.949,-2.9048,-3.1036,-2.9379,0.0,-3.1524,-3.0881,-3.052,-3.0782,-3.1356,-3.1845,-3.2091,-3.1824,-3.1724,-3.1711,-3.1711,-3.1711,-3.1711,-3.1711,-3.1711,-3.1711,-3.1711,-3.1711,-3.1711,-3.1711,-3.1711,-3.1711,-3.1711,-3.1711,-3.1711,-3.1711,-3.1711,-3.1711,-3.1711,-3.1711,-3.1711,-3.3253,-3.328,-3.3307,-3.34,-3.3414,-3.348,-3.3708,-3.3734,-3.3801,-3.4002,-3.4028,-3.4028,-3.4028,-3.3654,-3.3414,-3.3414,-3.3414,-3.3414,-3.3414,-3.3414,-3.3414,-3.3414,-3.3414,-3.3414,-3.3414,-3.3414,-3.3414,-3.3414,-3.2875,-3.2541,-3.2433,-3.1824,-3.2118,-3.3133,-3.2933,-3.3066,-3.3414,-3.3414,-3.3414,-3.3414,-3.3414,-3.3414,-3.3414,-3.3414,-3.3414,-3.3414,-3.3414,-3.336,-3.328,-3.328,-3.308,-3.2875,-3.2732,-3.2358,-3.1971,-3.1971,-3.1824,-3.1711,-3.1711,-3.1711,-3.1711,-3.1711,-3.1711,-3.1711,-3.1711,-3.1711,-3.1711,-3.1711,-3.1711,-3.1711,-3.1711,-3.1711,-3.1657,-3.1423,-3.1543,-3.1684,-3.1543,-3.1623,-3.165,-3.1543,-3.135,-3.1296,-3.1503,-3.0975,-3.0654,-3.0814,-3.0748,-3.0702,-3.0795,-3.1156,-3.141,-3.1503,-3.161,-3.1711,-3.1711,-3.1711,-3.1711,-3.1711,-3.1711,-3.1711,-3.1711,-3.1711,-3.1711,-3.1711,-3.1711,-3.1784,-3.1971,-3.1971,-3.2126,-3.23,-3.2038,-3.1971,-3.1944,-3.1791,-3.1711,-3.1711,-3.3561,-3.3587,-3.3627,-3.3734,-3.3748,-3.3814,-3.4015,-3.4055,-3.4108,-3.4295,-3.4322,-3.4322,-3.4322,-3.3881,-3.3587,-3.3587,-3.348,-3.3414,-3.3414,-3.3414,-3.3414,-3.3414,-3.3414,-3.3414,-3.3414,-3.3414,-3.3414,-3.3414,-3.3053,-3.2915,-3.2915,-3.2679,-3.2893,-3.3414,-3.3414,-3.3414,-3.3414,-3.3414,-3.3414,-3.3414,-3.3414,-3.3414,-3.3414,-3.3414,-3.3414,-3.3414,-3.3414,-3.3414,-3.3414,-3.3414,-3.3293,-3.3146,-3.3146,-3.2812,-3.2385,-3.2171,-3.1971,-3.181,-3.1751,-3.1711,-3.1711,-3.1711,-3.1711,-3.1711,-3.1711,-3.1711,-3.1711,-3.1711,-3.1711,-3.1711,-3.1711,-3.1711,-3.1711,-3.1711,-3.1711,-3.1711,-3.1711,-3.1824,-3.1757,-3.1283,-3.155,-3.1631,-3.1256,-3.1229,-3.1136,-3.0922,-3.1022,-3.1116,-3.1116,-3.1183,-3.1276,-3.1383,-3.157,-3.1711,-3.1711,-3.1711,-3.1711,-3.1711,-3.1711,-3.1711,-3.1724,-3.1784,-3.1837,-3.1837,-3.1992,-3.2152,-3.2265,-3.2265,-3.2433,-3.2581,-3.2393,-3.2265,-3.2251,-3.2112,-3.2045,-3.2032,-3.3828,-3.3895,-3.4002,-3.4269,-3.4322,-3.4322,-3.4349,-3.4349,-3.4362,-3.4376,-3.4376,-3.4376,-3.4376,-3.4122,-3.3948,-3.3948,-3.3614,-3.3414,-3.3414,-3.3414,-3.3414,-3.3414,-3.3414,-3.3414,-3.3414,-3.3414,-3.3414,-3.3414,-3.3414,-3.3414,-3.3414,-3.3414,-3.3414,-3.3414,-3.3414,-3.3414,-3.3414,-3.3414,-3.3414,-3.3414,-3.3414,-3.3414,-3.3414,-3.3414,-3.3414,-3.3414,-3.3414,-3.3414,-3.3414,-3.3414,-3.3414,-3.3414,-3.3414,-3.3227,-3.2893,-3.2332,-3.2144,-3.2078,-3.1845,-3.1764,-3.1751,-3.1751,-3.1724,-3.1711,-3.1711,-3.1711,-3.1711,-3.1711,-3.1711,-3.1711,-3.1711,-3.1711,-3.1711,-3.1711,-3.1711,-3.1711,-3.1711,-3.1711,-3.1417,-3.06,-3.0493,-3.0493,-3.0493,-3.0493,-3.0828,-3.1631,-3.1711,-3.1711,-3.1684,-3.1396,-3.1383,-3.1711,-3.1711,-3.1711,-3.1711,-3.1711,-3.1711,-3.1711,-3.1738,-3.1751,-3.1751,-3.1998,-3.2131,-3.2144,-3.2474,-3.2607,-3.2621,-3.2621,-3.2634,-3.2648,-3.2634,-3.2621,-3.2621,-3.2607,-3.2594,-3.2554,-3.3868,-3.4068,-3.4242,-3.4309,-3.4322,-3.4402,-3.4629,-3.4656,-3.4736,-3.4963,-3.499,-3.499,-3.499,-3.4723,-3.4614,-3.4614,-3.3855,-3.3414,-3.3414,-3.3414,-3.3414,-3.3414,-3.3414,-3.3414,-3.3414,-3.3414,-3.3414,-3.3414,-3.3414,-3.3414,-3.3414,-3.3414,-3.3414,-3.3414,-3.3414,-3.3414,-3.3414,-3.3414,-3.3414,-3.3414,-3.3414,-3.3414,-3.3414,-3.3414,-3.3414,-3.3414,-3.3414,-3.3414,-3.3414,-3.3414,-3.3414,-3.3414,-3.3414,-3.336,-3.324,-3.2879,-3.2661,-3.2474,-3.2407,-3.2219,-3.1998,-3.1998,-3.1837,-3.1711,-3.1711,-3.1711,-3.1711,-3.1711,-3.1711,-3.1711,-3.1711,-3.1711,-3.1711,-3.1711,-3.1711,-3.1711,-3.1711,-3.1711,-3.1644,-3.143,-3.1403,-3.1403,-3.1403,-3.1403,-3.1356,-3.133,-3.1543,-3.157,-3.1343,-3.1476,-3.1644,-3.1711,-3.1711,-3.1711,-3.1711,-3.1711,-3.1711,-3.1724,-3.1891,-3.1998,-3.2011,-3.2353,-3.2487,-3.25,-3.2567,-3.2728,-3.2929,-3.2929,-3.3013,-3.3187,-3.3009,-3.2929,-3.2902,-3.2674,-3.2594,-3.2581,-3.4229,-3.4416,-3.4563,-3.4696,-3.4723,-3.4776,-3.4937,-3.4963,-3.5017,-3.5177,-3.5191,-3.5191,-3.5191,-3.4937,-3.4815,-3.4815,-3.4189,-3.3774,-3.3641,-3.3627,-3.3561,-3.3414,-3.3414,-3.3414,-3.3414,-3.3414,-3.3414,-3.3414,-3.3414,-3.3414,-3.3414,-3.3414,-3.3414,-3.3414,-3.3414,-3.3414,-3.3414,-3.3414,-3.3414,-3.3414,-3.3414,-3.3414,-3.3414,-3.3414,-3.3414,-3.3414,-3.3414,-3.3414,-3.3414,-3.3414,-3.3414,-3.3414,-3.3414,-3.3414,-3.3374,-3.3227,-3.2973,-3.2768,-3.2634,-3.2474,-3.2278,-3.2131,-3.1984,-3.1837,-3.1751,-3.1711,-3.1711,-3.1711,-3.1711,-3.1711,-3.1711,-3.1711,-3.1711,-3.1711,-3.1711,-3.1711,-3.1711,-3.1711,-3.1711,-3.1711,-3.1711,-3.1711,-3.1711,-3.1711,-3.1597,-3.1436,-3.1583,-3.1597,-3.1436,-3.1583,-3.1711,-3.1711,-3.1711,-3.1711,-3.1711,-3.1711,-3.1711,-3.1724,-3.1971,-3.2104,-3.2118,-3.2545,-3.2795,-3.2795,-3.2929,-3.3026,-3.3173,-3.3173,-3.3267,-3.34,-3.324,-3.3173,-3.316,-3.3,-3.2995,-3.2969,-3.4538,-3.4763,-3.491,-3.5151,-3.5191,-3.5191,-3.5191,-3.5191,-3.5191,-3.5191,-3.5191,-3.5191,-3.5191,-3.4977,-3.4882,-3.4882,-3.4603,-3.4309,-3.3975,-3.3948,-3.3814,-3.3494,-3.348,-3.3454,-3.3414,-3.3414,-3.3414,-3.3414,-3.3414,-3.3414,-3.3414,-3.3414,-3.3414,-3.3414,-3.3414,-3.3414,-3.3414,-3.3414,-3.3414,-3.3414,-3.3414,-3.3414,-3.3414,-3.3414,-3.3414,-3.3414,-3.3414,-3.3414,-3.3414,-3.3414,-3.3414,-3.3414,-3.3414,-3.3414,-3.3414,-3.3414,-3.324,-3.2986,-3.2795,-3.2688,-3.2594,-3.2238,-3.2131,-3.2038,-3.1797,-3.1751,-3.1711,-3.1711,-3.1711,-3.1711,-3.1711,-3.1711,-3.1698,-3.161,-3.1684,-3.1698,-3.161,-3.1684,-3.1711,-3.1711,-3.1711,-3.1711,-3.1711,-3.1711,-3.1711,-3.1711,-3.1711,-3.1711,-3.1711,-3.1711,-3.1711,-3.1711,-3.1711,-3.1711,-3.1711,-3.1711,-3.1738,-3.1744,-3.2024,-3.2185,-3.2251,-3.2799,-3.304,-3.3053,-3.3307,-3.3414,-3.3414,-3.3414,-3.3414,-3.3414,-3.3414,-3.3414,-3.3414,-3.3414,-3.3414,-3.3374,-3.4376,-3.479,-3.5137,-3.5191,-3.5191,-3.5191,-3.5191,-3.5191,-3.5191,-3.5191,-3.5191,-3.5191,-3.5191,-3.5151,-3.5124,-3.5124,-3.5084,-3.483,-3.4282,-3.4255,-3.4122,-3.3828,-3.3814,-3.3681,-3.3414,-3.3414,-3.3414,-3.3414,-3.3414,-3.3414,-3.3414,-3.3414,-3.3414,-3.3414,-3.3414,-3.3414,-3.3414,-3.3414,-3.3414,-3.3414,-3.3414,-3.3414,-3.3414,-3.3414,-3.3414,-3.3414,-3.3414,-3.3414,-3.3414,-3.3414,-3.3414,-3.3414,-3.3414,-3.3414,-3.3414,-3.3414,-3.3374,-3.3334,-3.3293,-3.3093,-3.2888,-3.2594,-3.2291,-3.2091,-3.2051,-3.1851,-3.1711,-3.1711,-3.1711,-3.1711,-3.1711,-3.1711,-3.1583,-3.133,-3.1503,-3.1583,-3.133,-3.1517,-3.1711,-3.1711,-3.1711,-3.1711,-3.1711,-3.1711,-3.1711,-3.1711,-3.1711,-3.1711,-3.1711,-3.1711,-3.1711,-3.1711,-3.1711,-3.1711,-3.1711,-3.1711,-3.1797,-3.2038,-3.238,-3.2648,-3.2853,-3.3187,-3.3347,-3.3347,-3.3387,-3.3414,-3.3414,-3.3414,-3.3414,-3.3414,-3.3414,-3.3414,-3.3414,-3.3414,-3.3414,-3.34,-3.4763,-3.5004,-3.5191,-3.5191,-3.5191,-3.5191,-3.5191,-3.5191,-3.5191,-3.5191,-3.5191,-3.5191,-3.5191,-3.5191,-3.5191,-3.5191,-3.5191,-3.5084,-3.4803,-3.4643,-3.4429,-3.4135,-3.3975,-3.3734,-3.3414,-3.3574,-3.3587,-3.3414,-3.3587,-3.3574,-3.3414,-3.3414,-3.3414,-3.3414,-3.3414,-3.3414,-3.3414,-3.3414,-3.3414,-3.3414,-3.3414,-3.3414,-3.3414,-3.3414,-3.3414,-3.3414,-3.3414,-3.3414,-3.3414,-3.3414,-3.3414,-3.3414,-3.3414,-3.3414,-3.3414,-3.3414,-3.3414,-3.3414,-3.3414,-3.332,-3.3146,-3.2902,-3.2679,-3.2532,-3.2372,-3.2286,-3.2193,-3.2193,-3.2059,-3.1904,-3.1904,-3.1818,-3.1671,-3.149,-3.1583,-3.1671,-3.149,-3.1583,-3.1711,-3.1711,-3.1711,-3.1711,-3.1711,-3.1711,-3.1711,-3.1711,-3.1711,-3.1711,-3.1711,-3.1711,-3.1711,-3.1711,-3.1824,-3.1904,-3.1904,-3.2112,-3.226,-3.2393,-3.2688,-3.2902,-3.2986,-3.328,-3.3414,-3.3414,-3.3414,-3.3414,-3.3414,-3.3414,-3.3414,-3.3414,-3.3414,-3.3414,-3.3414,-3.3414,-3.3414,-3.3414,-3.5057,-3.5151,-3.5191,-3.5191,-3.5191,-3.5191,-3.5191,-3.5191,-3.5191,-3.5191,-3.5191,-3.5191,-3.5191,-3.5191,-3.5191,-3.5191,-3.5191,-3.5191,-3.5191,-3.499,-3.4736,-3.4429,-3.4082,-3.3774,-3.3534,-3.3694,-3.3654,-3.3414,-3.3654,-3.3654,-3.3414,-3.3414,-3.3414,-3.3414,-3.3414,-3.3414,-3.3414,-3.3414,-3.3414,-3.3414,-3.3414,-3.3414,-3.3414,-3.3414,-3.3414,-3.3414,-3.3414,-3.3414,-3.3414,-3.3414,-3.3414,-3.3414,-3.3414,-3.3414,-3.3414,-3.3414,-3.3414,-3.3414,-3.3414,-3.3414,-3.336,-3.3133,-3.3026,-3.2969,-3.2741,-3.2648,-3.2594,-3.2594,-3.242,-3.2211,-3.2211,-3.2072,-3.1898,-3.1831,-3.1872,-3.1872,-3.1738,-3.173,-3.1791,-3.1724,-3.1711,-3.1711,-3.1711,-3.1711,-3.1711,-3.1711,-3.1711,-3.1751,-3.177,-3.177,-3.1845,-3.1925,-3.2024,-3.2131,-3.2211,-3.2474,-3.2621,-3.2701,-3.2915,-3.3013,-3.3093,-3.3307,-3.3414,-3.3414,-3.3414,-3.3414,-3.3414,-3.3414,-3.3414,-3.3414,-3.3414,-3.3414,-3.3414,-3.3414,-3.3414,-3.3414,-3.4842,-3.5017,-3.5191,-3.5191,-3.5191,-3.5191,-3.5191,-3.5191,-3.5191,-3.5191,-3.5191,-3.5191,-3.5191,-3.5191,-3.5191,-3.5191,-3.5191,-3.5191,-3.5191,-3.5177,-3.503,-3.4802,-3.4189,-3.3881,-3.3855,-3.3587,-3.3427,-3.3414,-3.3427,-3.3427,-3.3414,-3.3414,-3.3414,-3.3414,-3.3414,-3.3414,-3.3414,-3.3414,-3.3414,-3.3414,-3.3414,-3.3414,-3.3414,-3.3414,-3.3414,-3.3414,-3.3414,-3.3414,-3.3414,-3.3414,-3.3414,-3.3414,-3.3414,-3.3414,-3.3414,-3.3414,-3.3414,-3.3414,-3.3414,-3.3414,-3.3414,-3.3387,-3.3173,-3.2973,-3.3009,-3.2795,-3.2594,-3.2594,-3.2581,-3.2567,-3.2567,-3.2541,-3.2433,-3.2118,-3.2353,-3.234,-3.1791,-3.1904,-3.1971,-3.1751,-3.1711,-3.1711,-3.1711,-3.1711,-3.1711,-3.1711,-3.1711,-3.1784,-3.2051,-3.2064,-3.2198,-3.2527,-3.2238,-3.2238,-3.2554,-3.2581,-3.2728,-3.2946,-3.2973,-3.312,-3.3374,-3.34,-3.3414,-3.3414,-3.3414,-3.3414,-3.3414,-3.3414,-3.3414,-3.3414,-3.3414,-3.3414,-3.3414,-3.3414,-3.3414,-3.3414,-3.503,-3.5124,-3.5191,-3.5191,-3.5191,-3.5191,-3.5191,-3.5191,-3.5191,-3.5191,-3.5191,-3.5191,-3.5191,-3.5191,-3.5191,-3.5191,-3.5191,-3.5191,-3.5191,-3.503,-3.4803,-3.4496,-3.4269,-3.3975,-3.3601,-3.3668,-3.3614,-3.3414,-3.3614,-3.3601,-3.3414,-3.3414,-3.3414,-3.3414,-3.3414,-3.3414,-3.3414,-3.3414,-3.3414,-3.3414,-3.3414,-3.3414,-3.3414,-3.3414,-3.3414,-3.3414,-3.3414,-3.3414,-3.3414,-3.3414,-3.3414,-3.3414,-3.3414,-3.3414,-3.3414,-3.3414,-3.3414,-3.3414,-3.3414,-3.3414,-3.3414,-3.3414,-3.3334,-3.324,-3.324,-3.316,-3.308,-3.308,-3.2933,-3.2862,-3.2862,-3.2714,-3.2554,-3.2447,-3.2527,-3.2514,-3.2286,-3.2353,-3.238,-3.2273,-3.2051,-3.1931,-3.1931,-3.1931,-3.1864,-3.1724,-3.2059,-3.2233,-3.2104,-3.2278,-3.2554,-3.2848,-3.2706,-3.2706,-3.2862,-3.2986,-3.3133,-3.324,-3.324,-3.3307,-3.3414,-3.3414,-3.3414,-3.3414,-3.3414,-3.3414,-3.3414,-3.3414,-3.3414,-3.3414,-3.3414,-3.3414,-3.3414,-3.3414,-3.3414,-3.3414,-3.6478,-3.7183,-3.7742,-3.7742,-3.7742,-3.7429,-3.6621,-3.7183,-3.713,-3.5401,-3.5967,-3.6163,-3.5296,-3.5191,-3.5191,-3.5191,-3.5191,-3.5191,-3.5191,-3.4923,-3.4629,-3.4336,-3.4229,-3.3988,-3.3574,-3.3681,-3.3627,-3.3414,-3.3627,-3.3627,-3.3414,-3.3414,-3.3414,-3.3414,-3.3414,-3.3414,-3.3414,-3.3414,-3.3414,-3.3414,-3.3414,-3.3414,-3.3414,-3.3414,-3.3414,-3.3414,-3.3414,-3.3414,-3.3414,-3.3414,-3.3414,-3.3414,-3.3414,-3.3414,-3.3414,-3.3414,-3.3414,-3.3414,-3.3414,-3.3414,-3.3414,-3.3414,-3.3414,-3.3414,-3.3414,-3.3414,-3.3414,-3.3414,-3.3253,-3.312,-3.312,-3.3009,-3.2862,-3.2862,-3.2862,-3.2835,-3.2741,-3.2728,-3.2701,-3.2607,-3.242,-3.2238,-3.2238,-3.2238,-3.2158,-3.2005,-3.2367,-3.2541,-3.2385,-3.2652,-3.2955,-3.3106,-3.312,-3.312,-3.312,-3.3307,-3.3414,-3.3414,-3.3414,-3.3414,-3.3414,-3.3414,-3.3414,-3.3414,-3.3414,-3.3414,-3.3414,-3.3414,-3.3414,-3.3414,-3.3414,-3.3414,-3.3414,-3.3414,-3.3414,-3.3414,-3.9322,-4.1451,-4.3318,-4.3318,-4.3318,-4.2404,-3.9735,-4.1604,-4.14,-3.5967,-3.7652,-3.8262,-3.5559,-3.5243,-3.5204,-3.5243,-3.5191,-3.5191,-3.5191,-3.4923,-3.4629,-3.4322,-3.4042,-3.3881,-3.3881,-3.3574,-3.3414,-3.3414,-3.3414,-3.3414,-3.3414,-3.3414,-3.3414,-3.3414,-3.3414,-3.3414,-3.3414,-3.3414,-3.3414,-3.3414,-3.3414,-3.3414,-3.3414,-3.3414,-3.3414,-3.3414,-3.3414,-3.3414,-3.3414,-3.3414,-3.3414,-3.3414,-3.3414,-3.3414,-3.3414,-3.3414,-3.3414,-3.3414,-3.3414,-3.3414,-3.3414,-3.3414,-3.3414,-3.3414,-3.3414,-3.3414,-3.3414,-3.3414,-3.3414,-3.3414,-3.3414,-3.3414,-3.3414,-3.3414,-3.3414,-3.3307,-3.3026,-3.2986,-3.2929,-3.2634,-3.2594,-3.2594,-3.2594,-3.2594,-3.2594,-3.2594,-3.2594,-3.2728,-3.2973,-3.3253,-3.3414,-3.3414,-3.3414,-3.3414,-3.3414,-3.3414,-3.3414,-3.3414,-3.3414,-3.3414,-3.3414,-3.3414,-3.3414,-3.3414,-3.3414,-3.3414,-3.3414,-3.3414,-3.3414,-3.3414,-3.3414,-3.3414,-3.3414,-3.3414,-3.3414,-3.3414,-3.9322,-4.1451,-4.3318,-4.3318,-4.3318,-4.3014,-4.2201,-4.2811,-4.2709,-4.1092,-3.9977,-3.972,-4.0785,-3.7481,-3.5967,-3.7898,-3.6321,-3.5017,-3.4603,-3.4496,-3.4229,-3.3708,-3.3814,-3.3788,-3.3561,-3.3454,-3.3414,-3.3414,-3.3414,-3.3414,-3.3414,-3.3414,-3.3414,-3.3414,-3.3414,-3.3414,-3.3414,-3.3414,-3.3414,-3.3414,-3.3414,-3.3414,-3.3414,-3.3414,-3.3414,-3.3414,-3.3414,-3.3414,-3.3414,-3.3414,-3.3414,-3.3414,-3.3414,-3.3414,-3.3414,-3.3414,-3.3414,-3.3414,-3.3414,-3.3414,-3.3414,-3.3414,-3.3414,-3.3414,-3.3414,-3.3414,-3.3414,-3.3414,-3.3414,-3.3414,-3.3414,-3.3414,-3.3414,-3.3414,-3.3414,-3.3387,-3.3293,-3.328,-3.3253,-3.316,-3.2973,-3.2902,-3.2902,-3.2902,-3.2808,-3.2607,-3.2781,-3.2973,-3.3267,-3.336,-3.3414,-3.3414,-3.3414,-3.3414,-3.3414,-3.3414,-3.3414,-3.3414,-3.3414,-3.3414,-3.3414,-3.3414,-3.3414,-3.3414,-3.3414,-3.3414,-3.3414,-3.3414,-3.3414,-3.3414,-3.3414,-3.3414,-3.3414,-3.3414,-3.3414,-3.3414,-4.2522,-4.4631,-4.6502,-4.6502,-4.6502,-4.6153,-4.5084,-4.5803,-4.5753,-4.3571,-4.2811,-4.2726,-4.3217,-4.0374,-3.8663,-3.927,-3.6778,-3.499,-3.4523,-3.4389,-3.4108,-3.3614,-3.3668,-3.3614,-3.3414,-3.3414,-3.3414,-3.3414,-3.3414,-3.3414,-3.3414,-3.3414,-3.3414,-3.3414,-3.3414,-3.3414,-3.3414,-3.3414,-3.3414,-3.3414,-3.3414,-3.3414,-3.3414,-3.3414,-3.3414,-3.3414,-3.3414,-3.3414,-3.3414,-3.3414,-3.3414,-3.3414,-3.3414,-3.3414,-3.3414,-3.3414,-3.3414,-3.3414,-3.3414,-3.3414,-3.3414,-3.3414,-3.3414,-3.3414,-3.3414,-3.3414,-3.3414,-3.3414,-3.3414,-3.3414,-3.3414,-3.3414,-3.3414,-3.3414,-3.3414,-3.3414,-3.3414,-3.3414,-3.3414,-3.3414,-3.3253,-3.3146,-3.3146,-3.3146,-3.308,-3.2955,-3.3053,-3.3227,-3.34,-3.3414,-3.3414,-3.3414,-3.3414,-3.3414,-3.3414,-3.3414,-3.3414,-3.3414,-3.3414,-3.3414,-3.3414,-3.3414,-3.3414,-3.3414,-3.3414,-3.3414,-3.3414,-3.3414,-3.3414,-3.3414,-3.3414,-3.3414,-3.3414,-3.3414,-3.3414,-3.3414,-4.7383,-4.9561,-5.1377,-5.1377,-5.1377,-5.0578,-4.8126,-4.9806,-4.9591,-4.4682,-4.6003,-4.6569,-4.4279,-4.3571,-4.2404,-4.0235,-3.7496,-3.5778,-3.5502,-3.5178,-3.4775,-3.426,-3.415,-3.4,-3.375,-3.375,-3.36,-3.3414,-3.365,-3.365,-3.3414,-3.3414,-3.3414,-3.3414,-3.3414,-3.3414,-3.3414,-3.3414,-3.3414,-3.3414,-3.3414,-3.3414,-3.3414,-3.3414,-3.3414,-3.3414,-3.3414,-3.3414,-3.3414,-3.3414,-3.3414,-3.3414,-3.3414,-3.3414,-3.3414,-3.3414,-3.3414,-3.3414,-3.3414,-3.3414,-3.3414,-3.3414,-3.3414,-3.3414,-3.3414,-3.3414,-3.3414,-3.3414,-3.3414,-3.3414,-3.3414,-3.3414,-3.3414,-3.3414,-3.3414,-3.3414,-3.3414,-3.3414,-3.3414,-3.3414,-3.3414,-3.3414,-3.3414,-3.3414,-3.3414,-3.3414,-3.3414,-3.3414,-3.3414,-3.3414,-3.3414,-3.3414,-3.3414,-3.3414,-3.3414,-3.3414,-3.3414,-3.3414,-3.3414,-3.3414,-3.3414,-3.3414,-3.3414,-3.3414,-3.3414,-3.3414,-3.3414,-3.3414,-3.3414,-3.3414,-3.3414,-3.3414,-3.3414,-3.3414,-3.3414,-3.3414,-4.7383,-4.9561,-5.1377,-5.1377,-5.1377,-5.1183,-5.0627,-5.1037,-5.0968,-4.9806,-4.8342,-4.7978,-4.9493,-4.5853,-4.3925,-4.5502,-4.3115,-4.1284,-4.0616,-4.0556,-3.9296,-3.6691,-3.8439,-3.8539,-3.6509,-3.6425,-3.5465,-3.3414,-3.5451,-3.5401,-3.3414,-3.3414,-3.3414,-3.3414,-3.3414,-3.3414,-3.3414,-3.3414,-3.3414,-3.3414,-3.3414,-3.3414,-3.3414,-3.3414,-3.3414,-3.3414,-3.3414,-3.3414,-3.3414,-3.3414,-3.3414,-3.3414,-3.3414,-3.3414,-3.3414,-3.3414,-3.3414,-3.3414,-3.3414,-3.3414,-3.3414,-3.3414,-3.3414,-3.3414,-3.3414,-3.3414,-3.3414,-3.3414,-3.3414,-3.3414,-3.3414,-3.3414,-3.3414,-3.3414,-3.3414,-3.3414,-3.3414,-3.3414,-3.3414,-3.3414,-3.3414,-3.3414,-3.3414,-3.3414,-3.3414,-3.3414,-3.3414,-3.3414,-3.3414,-3.3414,-3.3414,-3.3414,-3.3414,-3.3414,-3.3414,-3.3414,-3.3414,-3.3414,-3.3414,-3.3414,-3.3414,-3.3414,-3.3414,-3.3414,-3.3414,-3.3414,-3.3414,-3.3414,-3.3414,-3.3414,-3.3414,-3.3414,-3.3414,-3.3414,-3.3414,-3.3414,-4.9297,-5.0413,-5.1377,-5.1377,-5.1377,-5.1377,-5.1377,-5.1377,-5.1377,-5.1377,-5.0168,-4.9856,-5.1231,-4.8885,-4.7216,-4.7383,-4.4883,-4.3005,-4.2229,-4.2196,-4.1277,-3.9236,-4.0464,-4.0561,-3.9221,-4.0336,-3.9706,-3.7134,-3.7247,-3.7247,-3.7085,-3.5833,-3.5253,-3.5253,-3.5253,-3.4571,-3.3414,-3.3414,-3.3414,-3.3414,-3.3414,-3.3414,-3.3414,-3.3414,-3.3414,-3.3414,-3.3414,-3.3414,-3.3414,-3.3414,-3.3414,-3.3414,-3.3414,-3.3414,-3.3414,-3.3414,-3.3414,-3.3414,-3.3414,-3.3414,-3.3414,-3.3414,-3.3414,-3.3414,-3.3414,-3.3414,-3.3414,-3.3414,-3.3414,-3.3414,-3.3414,-3.3414,-3.3414,-3.3414,-3.3414,-3.3414,-3.3414,-3.3414,-3.3414,-3.3414,-3.3414,-3.3414,-3.3414,-3.3414,-3.3414,-3.3414,-3.3414,-3.3414,-3.3414,-3.3414,-3.3414,-3.3414,-3.3414,-3.3414,-3.3414,-3.3414,-3.3414,-3.3414,-3.3414,-3.3414,-3.3414,-3.3414,-3.3414,-3.3414,-3.3414,-3.3414,-3.3414,-3.3414,-3.3414,-3.3414,-3.3414,-3.3414,-3.3414,-3.3414,-3.3414,-3.3387,-5.1377,-5.1377,-5.1377,-5.1377,-5.1377,-5.1377,-5.1377,-5.1377,-5.1377,-5.1377,-5.1377,-5.1377,-5.1377,-5.1377,-5.051,-4.8293,-4.595,-4.4307,-4.3626,-4.3507,-4.2972,-4.1893,-4.229,-4.229,-4.186,-4.4353,-4.4211,-4.1187,-3.9463,-3.9512,-4.1139,-3.8977,-3.7953,-3.7953,-3.7953,-3.6509,-3.4086,-3.4086,-3.38,-3.3414,-3.3414,-3.3414,-3.3414,-3.3414,-3.3414,-3.3414,-3.3414,-3.3414,-3.3414,-3.3414,-3.3414,-3.3414,-3.3414,-3.3414,-3.3414,-3.3414,-3.3414,-3.3414,-3.3414,-3.3414,-3.3414,-3.3414,-3.3414,-3.3414,-3.3414,-3.3414,-3.3414,-3.3414,-3.3414,-3.3414,-3.3414,-3.3414,-3.3414,-3.3414,-3.3414,-3.3414,-3.3414,-3.3414,-3.3414,-3.3414,-3.3414,-3.3414,-3.3414,-3.3414,-3.3414,-3.3414,-3.3414,-3.3414,-3.3414,-3.3414,-3.3414,-3.3414,-3.3414,-3.3414,-3.3414,-3.3414,-3.3414,-3.3414,-3.3414,-3.3414,-3.3414,-3.3414,-3.3414,-3.3414,-3.3414,-3.3414,-3.3414,-3.3414,-3.3414,-3.3414,-3.3414,-3.3414,-3.3414,-3.3414,-3.3414,-3.3374,-5.1377,-5.1377,-5.1377,-5.1377,-5.1377,-5.1377,-5.1377,-5.1377,-5.1377,-5.1377,-5.1377,-5.1377,-5.1377,-5.1377,-5.1231,-5.0871,-5.0184,-4.9588,-4.9158,-4.8728,-4.7328,-4.4625,-4.6635,-4.6822,-4.4542,-4.7055,-4.6008,-4.1187,-4.3071,-4.3024,-4.1187,-4.085,-4.0657,-4.0657,-4.0657,-3.9205,-3.6756,-3.6756,-3.5451,-3.3414,-3.3414,-3.3414,-3.3414,-3.3414,-3.3414,-3.3414,-3.3414,-3.3414,-3.3414,-3.3414,-3.3414,-3.3414,-3.3414,-3.3414,-3.3414,-3.3414,-3.3414,-3.3414,-3.3414,-3.3414,-3.3414,-3.3414,-3.3414,-3.3414,-3.3414,-3.3414,-3.3414,-3.3414,-3.3414,-3.3414,-3.3414,-3.3414,-3.3414,-3.3414,-3.3414,-3.3414,-3.3414,-3.3414,-3.3414,-3.3414,-3.3414,-3.3414,-3.3414,-3.3414,-3.3414,-3.3414,-3.3414,-3.3414,-3.3414,-3.3414,-3.3414,-3.3414,-3.3414,-3.3414,-3.3414,-3.3414,-3.3414,-3.3414,-3.3414,-3.3414,-3.3414,-3.3414,-3.3414,-3.3414,-3.3414,-3.3414,-3.3414,-3.3414,-3.3414,-3.3414,-3.3414,-3.3414,-3.3414,-3.3414,-3.3414,-3.34,-5.1377,-5.1377,-5.1377,-5.1377,-5.1377,-5.1377,-5.1377,-5.1377,-5.1377,-5.1377,-5.1377,-5.1377,-5.1377,-5.1377,-5.128,-5.1094,-5.0918,-5.0527,-4.9863,-4.9629,-4.8784,-4.7232,-4.8273,-4.8366,-4.7195,-4.832,-4.7791,-4.552,-4.5173,-4.5173,-4.5473,-4.4021,-4.3292,-4.3292,-4.3292,-4.1907,-3.9496,-3.9496,-3.8831,-3.7772,-3.7772,-3.6889,-3.5585,-3.5585,-3.467,-3.3414,-3.3414,-3.3414,-3.3414,-3.3414,-3.3414,-3.3414,-3.3414,-3.3414,-3.3414,-3.3414,-3.3414,-3.3414,-3.3414,-3.3414,-3.3414,-3.3414,-3.3414,-3.3414,-3.3414,-3.3414,-3.3414,-3.3414,-3.3414,-3.3414,-3.3414,-3.3414,-3.3414,-3.3414,-3.3414,-3.3414,-3.3414,-3.3414,-3.3414,-3.3414,-3.3414,-3.3414,-3.3414,-3.3414,-3.3414,-3.3414,-3.3414,-3.3414,-3.3414,-3.3414,-3.3414,-3.3414,-3.3414,-3.3414,-3.3414,-3.3414,-3.3414,-3.3414,-3.3414,-3.3414,-3.3414,-3.3414,-3.3414,-3.3414,-3.3414,-3.3414,-3.3414,-3.3414,-3.3414,-3.3414,-3.3414,-3.3414,-3.3414,-3.3414,-3.3414,-3.3414]},{"header":{"parameterUnit":"m.s-1","parameterCategory":1,"la1":30.6,"la2":28.766,"lo1":-90.7593,"lo2":-88.6598,"dx":0.0162,"dy":0.0183,"nx":116,"ny":114,"refTime":"2022-12-17T06:00:00:Z","depth":0,"parameterNumber":3,"parameterNumberName":"V-component_of_WINDS"},"data":[0.0,0.0,0.0,0.0,0.0,0.0,0.0,0.0,0.0,0.0,0.0,0.0,0.0,0.0,0.0,0.0,0.0,0.0,0.0,0.0,0.0,0.0,0.0,0.0,0.0,0.0,0.0,0.0,0.0,0.0,0.0,0.0,0.0,0.0,0.0,0.0,0.0,0.0,0.0,0.0,0.0,0.0,0.0,0.0,0.0,0.0,0.0,0.0,0.0,0.0,0.0,0.0,0.0,0.0,0.0,0.0,0.0,0.0,0.0,0.0,0.0,0.0,0.0,0.0,0.0,0.0,0.0,0.0,0.0,0.0,0.0,0.0,0.0,0.0,0.0,0.0,0.0,0.0,0.0,0.0,0.0,0.0,0.0,0.0,0.0,0.0,0.0,0.0,0.0,0.0,0.0,0.0,0.0,0.0,0.0,0.0,0.0,0.0,0.0,0.0,0.0,0.0,0.0,0.0,0.0,0.0,0.0,0.0,0.0,0.0,0.0,0.0,0.0,0.0,0.0,0.0,0.0,0.0,0.0,0.0,0.0,0.0,0.0,0.0,0.0,0.0,0.0,0.0,0.0,0.0,0.0,0.0,0.0,0.0,0.0,0.0,0.0,0.0,0.0,0.0,0.0,0.0,0.0,0.0,0.0,0.0,0.0,0.0,0.0,0.0,0.0,0.0,0.0,0.0,0.0,0.0,0.0,0.0,0.0,0.0,0.0,0.0,0.0,0.0,0.0,0.0,0.0,0.0,0.0,0.0,0.0,0.0,0.0,0.0,0.0,0.0,0.0,0.0,0.0,0.0,0.0,0.0,0.0,0.0,0.0,0.0,0.0,0.0,0.0,0.0,0.0,0.0,0.0,0.0,0.0,0.0,0.0,0.0,0.0,0.0,0.0,0.0,0.0,0.0,0.0,0.0,0.0,0.0,0.0,0.0,0.0,0.0,0.0,0.0,0.0,0.0,0.0,0.0,0.0,0.0,0.0,0.0,0.0,0.0,0.0,0.0,0.0,0.0,0.0,0.0,0.0,0.0,0.0,0.0,0.0,0.0,0.0,0.0,0.0,0.0,0.0,0.0,0.0,0.0,0.0,0.0,0.0,0.0,0.0,0.0,0.0,0.0,0.0,0.0,0.0,0.0,0.0,0.0,0.0,0.0,0.0,0.0,0.0,0.0,0.0,0.0,0.0,0.0,0.0,0.0,0.0,0.0,0.0,0.0,0.0,0.0,0.0,0.0,0.0,0.0,0.0,0.0,0.0,0.0,0.0,0.0,0.0,0.0,0.0,0.0,0.0,0.0,0.0,0.0,0.0,0.0,0.0,0.0,0.0,0.0,0.0,0.0,0.0,0.0,0.0,0.0,0.0,0.0,0.0,0.0,0.0,0.0,0.0,0.0,0.0,0.0,0.0,0.0,0.0,0.0,0.0,0.0,0.0,0.0,0.0,0.0,0.0,0.0,0.0,0.0,0.0,0.0,0.0,0.0,0.0,0.0,0.0,0.0,0.0,0.0,0.0,0.0,0.0,0.0,0.0,0.0,0.0,0.0,0.0,0.0,0.0,0.0,0.0,0.0,0.0,0.0,0.0,0.0,0.0,0.0,0.0,0.0,0.0,0.0,0.0,0.0,0.0,0.0,0.0,0.0,0.0,0.0,0.0,0.0,0.0,0.0,0.0,0.0,0.0,0.0,0.0,0.0,0.0,0.0,0.0,0.0,0.0,0.0,0.0,0.0,0.0,0.0,0.0,0.0,0.0,0.0,0.0,0.0,0.0,0.0,0.0,0.0,0.0,0.0,0.0,0.0,0.0,0.0,0.0,0.0,0.0,0.0,0.0,0.0,0.0,0.0,0.0,0.0,0.0,0.0,0.0,0.0,0.0,0.0,0.0,0.0,0.0,0.0,0.0,0.0,0.0,0.0,0.0,0.0,0.0,0.0,0.0,0.0,0.0,0.0,0.0,0.0,0.0,0.0,0.0,0.0,0.0,0.0,0.0,0.0,0.0,0.0,0.0,0.0,0.0,0.0,0.0,0.0,0.0,0.0,0.0,0.0,0.0,0.0,0.0,0.0,0.0,0.0,0.0,0.0,0.0,0.0,0.0,0.0,0.0,0.0,0.0,0.0,0.0,0.0,0.0,0.0,0.0,0.0,0.0,0.0,0.0,0.0,0.0,0.0,0.0,0.0,0.0,0.0,0.0,0.0,0.0,0.0,0.0,0.0,0.0,0.0,0.0,0.0,0.0,0.0,0.0,0.0,0.0,0.0,0.0,0.0,0.0,0.0,0.0,0.0,0.0,0.0,0.0,0.0,0.0,0.0,0.0,0.0,0.0,0.0,0.0,0.0,0.0,0.0,0.0,0.0,0.0,0.0,0.0,0.0,0.0,0.0,0.0,0.0,0.0,0.0,0.0,0.0,0.0,0.0,0.0,0.0,0.0,0.0,0.0,0.0,0.0,0.0,0.0,0.0,0.0,0.0,0.0,0.0,0.0,0.0,0.0,0.0,0.0,0.0,0.0,0.0,0.0,0.0,0.0,0.0,0.0,0.0,0.0,0.0,0.0,0.0,0.0,0.0,0.0,0.0,0.0,0.0,0.0,0.0,0.0,0.0,0.0,0.0,0.0,0.0,0.0,0.0,0.0,0.0,0.0,0.0,0.0,0.0,0.0,0.0,0.0,0.0,0.0,0.0,0.0,0.0,0.0,0.0,0.0,0.0,0.0,0.0,0.0,0.0,0.0,0.0,0.0,0.0,0.0,0.0,0.0,0.0,0.0,0.0,0.0,0.0,0.0,0.0,0.0,0.0,0.0,0.0,0.0,0.0,0.0,0.0,0.0,0.0,0.0,0.0,0.0,0.0,0.0,0.0,0.0,0.0,0.0,0.0,0.0,0.0,0.0,0.0,0.0,0.0,0.0,0.0,0.0,0.0,0.0,0.0,0.0,0.0,0.0,0.0,0.0,0.0,0.0,0.0,0.0,0.0,0.0,0.0,0.0,0.0,0.0,0.0,0.0,0.0,0.0,0.0,0.0,0.0,0.0,0.0,0.0,0.0,0.0,0.0,0.0,0.0,0.0,0.0,0.0,0.0,0.0,0.0,0.0,0.0,0.0,0.0,0.0,0.0,0.0,0.0,0.0,0.0,0.0,0.0,0.0,0.0,0.0,0.0,0.0,0.0,0.0,0.0,0.0,0.0,0.0,0.0,0.0,0.0,0.0,0.0,0.0,0.0,0.0,0.0,0.0,0.0,0.0,0.0,0.0,0.0,0.0,0.0,0.0,0.0,0.0,0.0,0.0,0.0,0.0,0.0,0.0,0.0,0.0,0.0,0.0,0.0,0.0,0.0,0.0,0.0,0.0,0.0,0.0,0.0,0.0,0.0,0.0,0.0,0.0,0.0,0.0,0.0,0.0,0.0,0.0,0.0,0.0,0.0,0.0,0.0,0.0,0.0,0.0,0.0,0.0,0.0,0.0,0.0,0.0,0.0,0.0,0.0,0.0,0.0,0.0,0.0,0.0,0.0,0.0,0.0,0.0,0.0,0.0,0.0,0.0,0.0,0.0,0.0,0.0,0.0,0.0,0.0,0.0,0.0,0.0,0.0,0.0,0.0,0.0,0.0,0.0,0.0,0.0,0.0,0.0,0.0,0.0,0.0,0.0,0.0,0.0,0.0,0.0,0.0,0.0,0.0,0.0,0.0,0.0,0.0,0.0,0.0,0.0,0.0,0.0,0.0,0.0,0.0,0.0,0.0,0.0,0.0,0.0,0.0,0.0,0.0,0.0,0.0,0.0,0.0,0.0,0.0,0.0,0.0,0.0,0.0,0.0,0.0,0.0,0.0,0.0,0.0,0.0,0.0,0.0,0.0,0.0,0.0,0.0,0.0,0.0,0.0,0.0,0.0,0.0,0.0,0.0,0.0,0.0,0.0,0.0,0.0,0.0,0.0,0.0,0.0,0.0,0.0,0.0,0.0,0.0,0.0,0.0,0.0,0.0,0.0,0.0,0.0,0.0,0.0,0.0,0.0,0.0,0.0,0.0,0.0,0.0,0.0,0.0,0.0,0.0,0.0,0.0,0.0,0.0,0.0,0.0,0.0,0.0,0.0,0.0,0.0,0.0,0.0,0.0,0.0,0.0,0.0,0.0,0.0,0.0,0.0,0.0,0.0,0.0,0.0,0.0,0.0,0.0,0.0,0.0,0.0,0.0,0.0,0.0,0.0,0.0,0.0,0.0,0.0,0.0,0.0,0.0,0.0,0.0,0.0,0.0,0.0,0.0,0.0,0.0,0.0,0.0,0.0,0.0,0.0,0.0,0.0,0.0,0.0,0.0,0.0,0.0,0.0,0.0,0.0,0.0,0.0,0.0,0.0,0.0,0.0,0.0,0.0,0.0,0.0,0.0,0.0,0.0,0.0,0.0,0.0,0.0,0.0,0.0,0.0,0.0,0.0,0.0,0.0,0.0,0.0,0.0,0.0,0.0,0.0,0.0,0.0,0.0,0.0,0.0,0.0,0.0,0.0,0.0,0.0,0.0,0.0,0.0,0.0,0.0,0.0,0.0,0.0,0.0,0.0,0.0,0.0,0.0,0.0,0.0,0.0,0.0,0.0,0.0,0.0,0.0,0.0,0.0,0.0,0.0,0.0,0.0,0.0,0.0,0.0,0.0,0.0,0.0,0.0,0.0,0.0,0.0,0.0,0.0,0.0,0.0,0.0,0.0,0.0,0.0,0.0,0.0,0.0,0.0,0.0,0.0,0.0,0.0,0.0,0.0,0.0,0.0,0.0,0.0,0.0,0.0,0.0,0.0,0.0,0.0,0.0,0.0,0.0,0.0,0.0,0.0,0.0,0.0,0.0,0.0,0.0,0.0,0.0,0.0,0.0,0.0,0.0,0.0,0.0,0.0,0.0,0.0,0.0,0.0,0.0,0.0,0.0,0.0,0.0,0.0,0.0,0.0,0.0,0.0,0.0,0.0,0.0,0.0,0.0,0.0,0.0,0.0,0.0,0.0,0.0,0.0,0.0,0.0,0.0,0.0,0.0,0.0,0.0,0.0,0.0,0.0,0.0,0.0,0.0,0.0,0.0,0.0,0.0,0.0,0.0,0.0,0.0,0.0,0.0,0.0,0.0,0.0,0.0,0.0,0.0,0.0,0.0,0.0,0.0,0.0,0.0,0.0,0.0,0.0,0.0,0.0,0.0,0.0,0.0,0.0,0.0,0.0,0.0,0.0,0.0,0.0,0.0,0.0,0.0,0.0,0.0,0.0,0.0,0.0,0.0,0.0,0.0,0.0,0.0,0.0,0.0,0.0,0.0,0.0,0.0,0.0,0.0,0.0,0.0,0.0,0.0,0.0,0.0,0.0,0.0,0.0,0.0,0.0,0.0,0.0,0.0,0.0,0.0,0.0,0.0,0.0,0.0,0.0,0.0,0.0,0.0,0.0,0.0,0.0,0.0,0.0,0.0,0.0,0.0,0.0,0.0,0.0,0.0,0.0,0.0,0.0,0.0,0.0,0.0,0.0,0.0,0.0,0.0,0.0,0.0,0.0,0.0,0.0,0.0,0.0,0.0,0.0,0.0,0.0,0.0,0.0,0.0,0.0,0.0,0.0,0.0,0.0,0.0,0.0,0.0,0.0,0.0,0.0,0.0,0.0,0.0,0.0,0.0,0.0,0.0,0.0,0.0,0.0,0.0,0.0,0.0,0.0,0.0,0.0,0.0,0.0,0.0,0.0,0.0,0.0,0.0,0.0,0.0,0.0,0.0,0.0,0.0,0.0,0.0,0.0,0.0,0.0,0.0,0.0,0.0,0.0,0.0,0.0,0.0,0.0,0.0,0.0,0.0,0.0,0.0,0.0,0.0,0.0,0.0,0.0,0.0,0.0,0.0,0.0,0.0,0.0,0.0,0.0,0.0,0.0,0.0,0.0,0.0,0.0,0.0,0.0,0.0,0.0,0.0,0.0,0.0,0.0,0.0,0.0,0.0,0.0,0.0,0.0,0.0,0.0,0.0,0.0,0.0,0.0,0.0,0.0,0.0,0.0,0.0,0.0,0.0,0.0,0.0,0.0,0.0,0.0,0.0,0.0,0.0,0.0,0.0,0.0,0.0,5.5156,5.4141,0.0,0.0,0.0,0.0,0.0,0.0,0.0,0.0,0.0,0.0,0.0,0.0,0.0,0.0,0.0,0.0,0.0,0.0,0.0,0.0,0.0,0.0,0.0,3.6964,3.7771,3.8534,3.8982,0.0,0.0,0.0,0.0,0.0,0.0,0.0,0.0,0.0,3.667,3.7441,3.8256,3.9467,4.1001,4.0165,3.9357,3.8571,0.0,0.0,0.0,0.0,0.0,0.0,0.0,0.0,0.0,0.0,0.0,0.0,0.0,0.0,0.0,0.0,0.0,0.0,0.0,0.0,0.0,0.0,0.0,0.0,0.0,0.0,0.0,0.0,0.0,0.0,0.0,0.0,0.0,0.0,0.0,0.0,0.0,0.0,0.0,0.0,0.0,0.0,0.0,0.0,0.0,0.0,0.0,0.0,0.0,0.0,0.0,0.0,0.0,0.0,0.0,0.0,0.0,0.0,0.0,0.0,0.0,0.0,0.0,0.0,0.0,0.0,0.0,0.0,0.0,0.0,5.6914,5.6211,0.0,0.0,0.0,0.0,0.0,0.0,0.0,0.0,0.0,0.0,0.0,0.0,0.0,0.0,0.0,0.0,0.0,0.0,0.0,0.0,0.0,3.6002,3.7522,3.8432,3.9489,4.0948,4.1095,4.1095,4.1095,4.1095,0.0,0.0,0.0,0.0,3.8146,3.7595,3.7991,3.9342,4.0561,4.2331,4.4571,4.4571,4.3754,4.2314,4.1075,0.0,0.0,0.0,0.0,0.0,0.0,0.0,0.0,0.0,0.0,0.0,0.0,0.0,0.0,0.0,0.0,0.0,0.0,0.0,0.0,0.0,0.0,0.0,0.0,0.0,0.0,0.0,0.0,0.0,0.0,0.0,0.0,0.0,0.0,0.0,0.0,0.0,0.0,0.0,0.0,0.0,0.0,0.0,0.0,0.0,0.0,0.0,0.0,0.0,0.0,0.0,0.0,0.0,0.0,0.0,0.0,0.0,0.0,0.0,0.0,0.0,0.0,0.0,5.9687,6.0078,6.0156,6.1523,6.2148,6.1992,5.918,5.9062,6.0742,5.9219,0.0,0.0,0.0,0.0,0.0,0.0,0.0,0.0,0.0,0.0,0.0,0.0,0.0,0.0,0.0,0.0,0.0,0.0,0.0,3.7522,3.8432,3.9239,4.012,4.1022,4.1095,4.1095,4.1095,4.1095,0.0,0.0,0.0,0.0,4.0626,4.1222,4.1625,4.1846,4.4737,4.7058,4.8802,4.8802,4.8279,4.7232,4.4305,4.2955,4.2808,0.0,0.0,0.0,0.0,0.0,0.0,0.0,0.0,0.0,0.0,0.0,0.0,0.0,0.0,0.0,0.0,0.0,0.0,0.0,0.0,0.0,0.0,0.0,0.0,0.0,0.0,0.0,0.0,0.0,0.0,0.0,0.0,0.0,0.0,0.0,0.0,0.0,0.0,0.0,0.0,0.0,5.4569,5.4022,0.0,0.0,0.0,0.0,0.0,0.0,0.0,0.0,0.0,0.0,0.0,0.0,0.0,6.1094,6.1211,6.1836,6.2226,6.2344,6.3203,6.3633,6.3633,6.3867,6.3945,6.3945,6.3476,0.0,6.2578,6.1601,0.0,0.0,0.0,0.0,0.0,0.0,0.0,0.0,0.0,0.0,0.0,0.0,0.0,0.0,0.0,0.0,0.0,0.0,0.0,0.0,0.0,4.158,4.3085,4.4361,4.4883,4.4957,4.4507,4.4471,0.0,0.0,0.0,4.3122,4.3122,4.3901,4.5223,4.7095,4.9397,5.0902,5.161,5.161,5.157,5.1361,4.9472,4.7211,4.4791,4.3975,0.0,0.0,0.0,0.0,0.0,0.0,0.0,0.0,0.0,0.0,0.0,0.0,0.0,0.0,0.0,0.0,0.0,0.0,0.0,0.0,0.0,0.0,0.0,0.0,0.0,0.0,0.0,0.0,0.0,0.0,0.0,0.0,0.0,0.0,0.0,0.0,0.0,0.0,0.0,5.5623,5.6045,5.6698,5.7522,5.8233,0.0,0.0,0.0,0.0,0.0,0.0,0.0,0.0,0.0,6.3164,6.3164,6.3164,6.3164,6.3555,6.3984,6.4453,6.4844,6.5273,6.5742,6.5742,6.5742,6.5742,6.5742,6.5547,6.5078,6.3711,6.293,6.2539,0.0,0.0,0.0,0.0,6.1015,6.082,0.0,0.0,0.0,0.0,0.0,0.0,0.0,0.0,0.0,0.0,0.0,0.0,4.1874,4.4003,4.5874,4.7259,4.7966,4.8039,4.7443,4.7406,4.6865,4.5654,4.5617,4.5617,4.5617,4.6736,4.8901,5.2102,5.3267,5.396,5.4192,5.4192,5.4259,5.4348,5.3703,5.1194,4.7399,4.639,4.5496,4.4684,0.0,0.0,0.0,0.0,0.0,0.0,0.0,0.0,0.0,0.0,0.0,0.0,0.0,0.0,0.0,0.0,0.0,0.0,0.0,0.0,0.0,0.0,0.0,0.0,0.0,0.0,0.0,0.0,0.0,0.0,0.0,0.0,0.0,0.0,0.0,0.0,0.0,5.7392,5.8122,5.9459,6.0401,6.0961,0.0,0.0,0.0,0.0,0.0,0.0,6.4609,6.4844,6.4961,6.4961,6.4961,6.5078,6.5312,6.5312,6.5742,6.6562,6.6562,6.6914,6.7578,6.7578,6.7578,6.7539,6.7539,6.7539,6.7422,6.5664,6.4844,6.4609,6.414,6.3867,6.3711,6.418,6.3906,6.3672,0.0,0.0,0.0,0.0,0.0,0.0,0.0,0.0,0.0,0.0,0.0,4.3571,4.4443,4.5975,4.7333,4.8186,4.826,4.826,4.8223,4.8223,4.8186,4.8113,4.8113,4.8113,4.8113,5.0174,5.2631,5.5565,5.5632,5.6047,5.6823,5.6823,5.6425,5.571,5.5673,5.4176,5.1579,5.0001,4.8431,4.6879,4.6323,0.0,0.0,0.0,0.0,0.0,0.0,0.0,0.0,0.0,0.0,0.0,0.0,0.0,0.0,0.0,0.0,0.0,0.0,0.0,0.0,0.0,0.0,0.0,0.0,0.0,0.0,0.0,0.0,0.0,0.0,0.0,0.0,0.0,0.0,0.0,0.0,0.0,0.0,6.1562,6.2343,0.0,0.0,0.0,0.0,6.4219,6.5,6.5508,6.5547,6.6328,6.6758,6.6758,6.6758,6.7187,6.8008,6.8008,6.8398,6.9219,6.9219,6.9258,6.9375,6.9375,6.9336,6.9258,6.9258,6.9297,6.9219,6.75,6.6289,6.5625,6.6406,6.6211,6.5664,6.7344,6.789,6.8008,0.0,0.0,0.0,3.7492,3.6824,3.6457,3.6971,3.7991,3.8909,3.9386,4.2286,4.4599,4.5369,4.7856,4.9811,5.0618,5.1646,5.2013,5.1489,5.1453,5.1453,5.1453,5.1239,5.2018,5.3859,5.5139,5.6836,5.8959,5.8959,5.9374,6.0158,6.0158,5.9904,5.9376,5.8828,5.7627,5.5919,5.3734,5.2291,5.1401,5.0671,4.9531,0.0,0.0,0.0,0.0,0.0,0.0,0.0,0.0,0.0,0.0,0.0,0.0,0.0,0.0,0.0,0.0,0.0,0.0,0.0,0.0,0.0,0.0,0.0,0.0,0.0,0.0,0.0,0.0,0.0,0.0,0.0,0.0,0.0,0.0,0.0,0.0,0.0,6.332,6.414,0.0,6.4687,6.5469,6.5976,6.5976,6.6797,6.7265,6.7265,6.8086,6.8555,6.8515,6.8555,6.8711,6.8984,6.8984,6.9414,7.0234,7.0234,7.0547,7.1094,7.1094,7.1094,7.1055,7.1055,7.1094,7.1055,7.043,6.9375,6.8125,6.8437,6.8359,6.8125,6.875,6.8984,6.9062,0.0,0.0,0.0,3.7889,3.7705,3.7705,3.8219,3.9203,4.0304,4.1368,4.4085,4.6425,4.7792,5.0398,5.2344,5.3162,5.419,5.4522,5.3853,5.3826,5.3759,5.3641,5.3961,5.5522,5.8431,5.9303,6.0459,6.2039,6.2305,6.2723,6.3256,6.3256,6.2979,6.2456,6.1875,6.1,5.9867,5.8217,5.6348,5.4464,5.389,5.2971,5.19,0.0,0.0,0.0,0.0,0.0,0.0,0.0,0.0,0.0,0.0,0.0,0.0,0.0,0.0,0.0,0.0,0.0,0.0,0.0,0.0,0.0,0.0,0.0,0.0,0.0,0.0,0.0,0.0,0.0,0.0,0.0,0.0,0.0,0.0,6.3867,6.4219,6.5078,6.5703,6.6133,6.6445,6.6992,6.7461,6.7734,6.8281,6.8633,6.8594,6.9414,6.9883,6.9844,7.0156,7.0469,7.0703,7.0703,7.1289,7.2461,7.2148,7.2617,7.3711,7.3164,7.3047,7.3281,7.3008,7.289,7.289,7.289,7.2226,7.1172,7.0898,7.0742,7.0742,7.1055,7.1172,7.1211,0.0,0.0,3.8726,3.8726,3.9386,3.9945,3.9945,4.1295,4.291,4.448,4.6865,4.9297,5.173,5.3445,5.473,5.5548,5.5658,5.5528,5.5089,5.508,5.4976,5.4673,5.6323,5.8598,6.1473,6.2373,6.3417,6.4666,6.5513,6.5942,6.5974,6.5974,6.5513,6.4666,6.4666,6.4166,6.3352,6.3314,6.0429,5.5939,5.5901,5.5362,5.4511,0.0,0.0,0.0,0.0,0.0,0.0,0.0,0.0,0.0,0.0,0.0,0.0,0.0,0.0,0.0,0.0,0.0,0.0,0.0,0.0,0.0,0.0,0.0,0.0,0.0,0.0,0.0,0.0,0.0,0.0,0.0,0.0,0.0,6.5625,6.5625,6.5976,6.6836,6.6953,6.7265,6.8164,6.8242,6.8555,6.9375,6.9531,6.957,6.9531,7.0351,7.082,7.082,7.164,7.25,7.3398,7.3437,7.4297,7.6055,7.5195,7.5703,7.7305,7.5625,7.5312,7.6055,7.5195,7.4844,7.4844,7.4844,7.4844,7.4726,7.3711,7.3359,7.3437,7.4297,7.4609,7.4609,3.8681,3.9166,3.9578,3.9578,4.023,4.0773,4.0773,4.2139,4.3534,4.4553,4.7856,5.0582,5.1877,5.3969,5.5365,5.5585,5.6686,5.7187,5.6858,5.6784,5.7303,5.8585,6.1408,6.3466,6.466,6.4897,6.5474,6.6404,6.6635,6.709,6.7699,6.7699,6.7244,6.6397,6.5782,6.5051,6.4199,6.3583,6.2506,6.1089,5.9896,5.855,5.7165,0.0,0.0,0.0,0.0,0.0,0.0,0.0,0.0,0.0,0.0,0.0,0.0,0.0,0.0,0.0,0.0,0.0,0.0,0.0,0.0,0.0,0.0,0.0,0.0,0.0,0.0,0.0,0.0,0.0,0.0,0.0,6.664,6.7265,6.664,6.6523,6.6875,6.7734,6.7851,6.8164,6.9062,6.9101,6.9414,7.0273,7.0937,7.1562,7.2187,7.3047,7.3515,7.3515,7.375,7.4609,7.6094,7.6133,7.7305,7.9609,7.9336,7.9805,8.0898,8.039,8.0312,8.0547,8.0273,8.0195,8.0195,8.0195,8.0195,7.9805,7.5781,7.4258,7.4258,7.4492,7.4609,7.4609,3.9276,3.9863,4.0414,4.0414,4.1075,4.1617,4.1617,4.2983,4.4635,4.6471,4.9114,5.161,5.3775,5.5244,5.6492,5.7519,5.805,5.827,5.8259,5.8264,5.9717,6.2964,6.497,6.6633,6.7975,6.8366,6.8789,6.9251,6.959,7.0052,7.0545,7.0545,7.009,6.9212,6.8751,6.7859,6.6667,6.5814,6.5045,6.4282,6.2935,6.1589,6.0314,5.9479,5.8594,5.7786,5.7434,5.7088,5.6934,5.7973,0.0,0.0,0.0,0.0,0.0,0.0,0.0,0.0,0.0,0.0,0.0,0.0,0.0,0.0,0.0,0.0,0.0,0.0,0.0,0.0,0.0,0.0,0.0,0.0,6.7812,6.8555,6.8047,6.7969,6.8125,6.8633,6.9023,6.9609,7.0469,7.0859,7.1406,7.2265,7.2812,7.332,7.3828,7.5039,7.5703,7.5703,7.6367,7.7383,7.8789,7.8789,7.9883,8.207,8.1719,8.2187,8.3359,8.2617,8.25,8.2812,8.2461,8.2304,8.2304,8.2304,8.2304,8.1992,0.0,0.0,0.0,0.0,7.7344,7.6797,4.0194,4.0663,4.1242,4.1242,4.1911,4.2506,4.269,4.3929,4.6021,4.9334,5.0568,5.2631,5.6481,5.7015,5.8017,6.0374,5.9632,5.9261,5.9769,6.036,6.2627,6.7058,6.7635,6.8859,7.1129,7.1937,7.2367,7.2367,7.3129,7.3507,7.3507,7.3507,7.3091,7.2329,7.2252,7.136,6.9937,6.9045,6.7821,6.6397,6.5513,6.4429,6.3237,6.2518,6.1749,6.0973,6.0204,5.9473,5.889,5.9083,0.0,0.0,0.0,0.0,0.0,0.0,0.0,0.0,0.0,0.0,0.0,0.0,0.0,0.0,0.0,0.0,0.0,0.0,0.0,0.0,0.0,0.0,0.0,0.0,6.9101,6.9726,6.9765,6.9883,6.9922,6.9726,7.0469,7.1328,7.2226,7.3008,7.3867,7.4805,7.4883,7.4961,7.5156,7.664,0.0,0.0,0.0,8.0156,8.1133,8.125,8.2226,8.4023,8.3359,8.3867,8.5429,8.3867,8.3594,8.4297,8.3515,8.3164,8.3164,8.3164,8.3164,8.3125,8.2539,8.2226,8.2148,8.2148,8.1172,7.9961,4.114,4.1507,4.2066,4.2066,4.2727,4.3726,4.5002,4.548,4.7095,5.0996,5.2581,5.4352,5.7073,5.8277,5.9618,6.1441,6.1394,6.1753,6.2875,6.5932,6.7859,6.8122,7.0776,7.2469,7.3007,7.3161,7.3238,7.3238,7.343,7.3507,7.3507,7.3507,7.3392,7.3206,7.2514,7.2021,7.1675,7.0783,7.0244,6.986,6.9052,6.6551,6.3275,6.3121,6.2968,6.2775,6.2621,6.2468,6.2545,6.3974,6.3589,6.2929,6.4974,6.432,0.0,0.0,0.0,0.0,0.0,0.0,0.0,0.0,0.0,0.0,0.0,0.0,0.0,0.0,0.0,0.0,0.0,0.0,0.0,6.918,7.0469,7.1484,7.1523,7.2734,7.3086,7.164,7.2265,7.3125,7.4023,7.4258,7.5,7.6562,7.6719,7.7305,7.8633,7.9023,7.9219,7.9219,7.9531,8.0469,8.2031,8.2734,8.4336,8.6758,8.7226,0.0,8.8984,8.8672,8.8594,8.875,8.8594,8.8515,8.8515,8.8515,8.8515,8.8086,8.3945,8.1875,8.125,8.125,8.1054,8.0781,4.3335,4.3049,4.302,4.3424,4.3828,4.4525,4.57,4.678,4.8402,5.1063,5.3023,5.4898,5.6674,5.7611,5.8789,6.0457,6.1565,6.3112,6.53,6.7721,6.9814,7.1468,7.3199,7.4315,7.4738,7.5168,7.5399,7.5399,7.5784,7.6015,7.6015,7.6015,7.5784,7.5399,7.4938,7.4284,7.3399,7.2552,7.1937,7.1475,7.0629,6.8783,6.6468,6.6006,6.5853,6.5853,6.5853,6.5853,6.6006,6.6853,6.6583,6.6083,6.7359,6.6898,6.5853,0.0,0.0,0.0,0.0,0.0,0.0,0.0,0.0,0.0,0.0,0.0,0.0,0.0,0.0,6.9062,6.9922,0.0,7.0859,7.1289,7.2461,7.3281,7.3281,7.4805,7.5234,7.3515,7.4062,7.4922,7.582,7.6289,7.707,7.8359,7.8437,7.8828,7.9648,8.0117,8.0351,8.0351,8.1211,8.2265,8.3594,8.4453,8.5781,8.75,8.789,8.832,8.875,8.875,8.875,8.875,8.875,8.875,8.875,8.875,8.875,8.8476,8.5898,8.4648,8.4297,8.4687,8.4062,8.3008,4.5811,4.5097,4.4488,4.4663,4.4957,4.5507,4.658,4.803,4.9646,5.1498,5.3415,5.5072,5.6321,5.6878,5.7813,5.9462,6.1926,6.4446,6.6923,6.8552,7.0891,7.4315,7.4776,7.5284,7.5976,7.6669,7.7061,7.7061,7.7715,7.8023,7.8023,7.8023,7.7676,7.7061,7.7061,7.6284,7.4892,7.4238,7.3591,7.2867,7.1975,7.1168,7.036,6.9468,6.8814,6.8391,6.8391,6.8391,6.8391,6.8391,6.8391,6.843,6.8584,6.866,6.843,6.7436,6.7481,0.0,0.0,0.0,0.0,0.0,0.0,0.0,0.0,6.9281,6.9492,6.9883,6.9922,7.0234,7.1289,7.2031,7.2734,7.3437,7.4414,7.5117,7.5117,7.6601,7.7148,7.5742,7.6211,7.6914,7.7617,7.832,7.9062,7.9883,7.9961,8.0117,8.0429,8.1133,8.1562,8.1758,8.3125,8.4179,8.4883,8.5742,8.664,8.75,8.7656,8.7812,8.8008,8.8008,8.8008,8.8008,8.8008,8.8008,8.8008,8.8008,8.8008,8.8008,8.8008,8.789,8.7773,8.8086,8.6914,8.5234,4.7821,4.7867,4.7122,4.5067,4.5874,4.7463,4.9408,4.9313,5.048,5.4598,5.5071,5.5663,5.7284,5.7844,5.8824,6.0475,6.4283,6.6743,6.709,7.0744,7.3122,7.3623,7.5053,7.5899,7.6015,7.6092,7.613,7.613,7.6245,7.6284,7.6284,7.6284,7.6245,7.613,7.613,7.6053,7.5861,7.5745,7.5668,7.5515,7.463,7.3776,7.2969,7.2091,7.036,6.8391,6.8391,6.8391,6.8391,6.8391,6.8391,6.8545,6.9321,6.9552,6.9821,7.1091,7.1021,7.0629,7.1328,7.0507,6.9327,6.8709,6.8825,6.9129,0.0,6.9283,6.9844,7.1406,7.1719,7.2226,7.3867,7.4258,7.4336,7.4453,7.5859,7.6914,7.6914,7.8359,7.9336,7.914,7.9219,7.9297,7.9414,7.9492,7.9922,8.0781,8.0859,8.1523,8.3086,8.3242,8.3672,8.4453,8.4648,8.4804,8.4883,8.5742,8.664,8.75,8.8203,8.8984,8.9726,8.9726,8.9726,8.9726,8.9726,8.9726,8.9726,8.9726,8.9726,8.9726,8.9726,8.9258,8.8398,8.6992,8.6289,8.6054,4.915,4.9564,4.9297,4.7792,4.8122,4.9084,5.066,5.1199,5.2132,5.4016,5.4966,5.5649,5.6074,5.6514,5.7473,5.9204,6.2326,6.5019,6.6981,7.0629,7.3168,7.4161,7.5361,7.6015,7.6015,7.6515,7.6746,7.6746,7.7215,7.7445,7.7445,7.7445,7.7215,7.6746,7.6746,7.6476,7.6015,7.6015,7.5707,7.5207,7.4853,7.3899,7.2706,7.2329,7.1206,6.986,6.986,6.986,0.0,6.986,6.986,6.9937,7.0283,7.0398,7.0629,7.1867,7.2013,7.1827,7.1804,7.1389,7.0729,6.9811,6.9835,7.0296,7.1196,7.1548,7.2031,7.3242,7.3515,7.3906,7.5117,7.5781,7.6289,7.6797,7.7851,7.8633,7.8633,7.9687,8.0469,8.0469,8.1367,8.1562,8.0547,8.0937,8.1562,8.2461,8.2969,8.3594,8.4336,8.4375,8.4531,8.4883,8.539,8.5664,8.5664,8.6523,8.7148,8.75,8.7851,8.8203,8.8554,8.8554,8.8554,8.8554,8.8554,8.8554,8.8554,8.8554,8.8554,8.8554,8.8554,8.832,8.7969,8.7734,8.7344,8.6953,5.0769,5.1224,5.1279,5.0702,5.0592,5.0902,5.1766,5.265,5.3377,5.3825,5.4941,5.5588,5.5319,5.5537,5.6324,5.7819,6.0287,6.298,6.5859,6.9244,7.1898,7.3591,7.4707,7.5399,7.563,7.6515,7.6945,7.6945,7.7522,7.783,7.783,7.783,7.7484,7.6945,7.6945,7.6476,7.563,7.563,7.5168,7.4353,7.4353,7.3514,7.2213,7.2213,7.1668,7.0898,7.0898,7.0898,7.0898,7.0898,7.0898,7.0919,7.0973,7.0966,7.1255,7.2666,7.3474,7.3712,7.2511,7.2467,7.2494,7.1279,7.1399,7.2069,7.3178,7.3547,7.3906,7.4765,7.4961,7.5312,7.6406,7.7148,7.7851,7.8672,7.9531,8.0078,8.0078,8.082,8.1445,8.1679,8.2812,8.3203,8.2187,8.2656,8.3281,8.3906,8.4531,8.5,8.5234,8.5273,8.5351,8.5625,8.6211,8.6562,8.6562,8.7187,8.75,8.75,8.75,8.75,8.75,8.75,8.75,8.75,8.7734,8.7812,8.7812,8.7812,8.7812,8.7812,8.7578,8.75,8.7578,8.8164,8.8008,8.75,5.3009,5.3115,5.3104,5.3104,5.3104,5.3104,5.3142,5.3171,5.3765,5.5418,5.5659,5.5703,5.5692,5.5703,5.6055,5.694,5.9363,6.155,6.3314,6.6622,6.9276,7.0937,7.2661,7.393,7.47,7.5592,7.6053,7.6053,7.6053,7.6092,7.6092,7.6092,7.6053,7.6053,7.6053,7.5553,7.4738,7.4738,7.4276,7.3546,7.3546,7.3014,7.2213,7.2213,7.1668,7.0898,7.0898,7.0898,7.0898,7.0898,7.0898,7.092,7.112,7.1206,7.1721,7.4436,7.6365,7.7112,7.4594,7.4681,7.5085,7.3328,7.3694,7.4492,7.4531,7.457,7.4805,7.5664,7.5859,7.6406,7.8086,7.8437,7.8711,7.9531,8.039,8.0976,8.0976,8.1719,8.2578,8.3437,8.3554,8.3906,8.4687,8.4804,8.4844,8.4844,8.4883,8.5273,8.6133,8.6172,8.6562,8.7383,8.7461,8.7461,8.7461,8.75,8.75,8.75,8.75,8.75,8.75,8.75,8.75,8.7539,8.832,8.8672,8.8672,8.8672,8.8672,8.8594,8.7812,8.75,8.75,8.7539,8.7539,8.75,5.3109,5.3214,5.3214,5.3214,5.3214,5.34,5.3978,5.4069,5.4448,5.5555,5.5708,0.0,0.0,0.0,0.0,0.0,5.8319,6.0089,6.2358,6.5166,6.7475,6.9161,7.1437,7.3014,7.3892,7.47,7.5438,7.6015,7.6015,7.6015,7.6015,7.6015,7.6015,7.5976,7.5399,7.4976,7.4661,7.4123,7.3399,7.2629,7.2629,7.2129,7.1426,7.2131,7.1854,7.1181,0.0,7.1706,7.1104,7.1247,7.1304,7.1317,7.1395,7.1812,7.2675,7.4878,7.7095,7.8474,7.6634,7.6817,7.7258,7.6086,7.5623,7.5625,7.6172,7.5898,7.5859,7.7344,7.8515,7.9648,8.082,8.1484,8.1953,8.2226,8.2031,8.1875,8.1875,8.2617,8.3281,8.3554,8.4609,8.5429,8.5742,8.5742,8.5742,8.5742,8.6289,8.6758,8.7031,8.707,8.7187,8.75,8.75,8.75,8.75,8.75,8.75,8.75,8.8047,8.8281,8.832,8.8906,8.914,8.9179,8.9453,8.957,8.957,8.957,8.957,8.9531,8.9258,8.914,8.914,8.914,8.9055,8.8834,5.3637,5.3643,5.3643,5.3643,5.3643,0.0,0.0,0.0,0.0,0.0,0.0,0.0,0.0,0.0,0.0,0.0,0.0,5.8781,6.1018,6.3018,6.5089,6.7398,6.909,7.0629,7.2122,7.2668,7.3476,7.463,7.463,7.4784,7.513,7.5399,7.5399,7.5091,7.4815,7.4361,7.3783,7.3245,7.2589,7.1852,7.1852,7.154,7.1198,7.1887,7.1787,0.0,7.2141,7.1975,7.1408,7.1464,7.1481,7.1569,7.1908,7.3095,7.4591,7.5821,7.7743,7.9233,7.8006,7.8281,7.8711,7.789,7.7695,7.7851,7.8437,7.8359,7.8515,7.9648,8.0976,8.2187,8.3086,8.3672,8.4258,8.4883,8.4258,8.3672,8.3672,8.4179,8.4531,8.4531,8.5508,8.6328,8.664,8.664,8.664,8.664,8.7187,8.75,8.75,8.75,8.75,8.75,8.75,8.75,8.75,8.75,8.7656,8.7929,8.8437,8.8867,8.9179,8.9726,9.0,9.0039,9.0312,9.0469,9.0469,9.0469,9.0469,9.0429,9.0117,8.9959,8.9871,8.9871,8.975,8.9429,5.4571,5.4484,5.4484,0.0,0.0,0.0,0.0,0.0,0.0,0.0,0.0,0.0,0.0,0.0,0.0,0.0,0.0,0.0,5.9281,6.0242,6.221,6.5519,6.5743,6.6974,6.9436,6.959,7.0437,7.2059,7.2098,7.2552,7.3392,7.4182,7.4189,7.3497,7.4249,7.3724,7.2229,7.2191,7.1754,7.1159,7.1198,7.1305,7.1442,7.153,7.1534,7.1518,7.17,7.1737,7.1684,7.1563,7.1547,7.1773,7.2764,7.4983,7.7226,7.7265,7.8437,7.9609,7.8828,7.9219,7.9648,7.8945,7.9922,8.1094,8.1133,8.1758,8.2344,8.2422,8.3164,8.4062,8.5,8.5117,8.5625,8.7304,8.6758,8.6133,8.6133,8.6172,8.6211,8.6211,8.625,8.6601,8.7422,8.75,8.75,8.75,8.75,8.75,8.75,8.75,8.75,8.75,8.75,8.75,8.75,8.7539,8.7929,8.8711,8.8789,8.9258,9.0078,9.0117,9.0117,9.0195,9.1015,9.1367,9.1367,9.1367,9.1367,9.1289,9.0429,8.9982,8.9832,8.9825,8.9648,8.9463,0.0,0.0,0.0,0.0,0.0,0.0,0.0,0.0,0.0,0.0,0.0,0.0,0.0,0.0,0.0,0.0,0.0,0.0,5.7555,5.9011,6.0512,6.2018,6.3935,6.5551,6.6821,6.809,6.9244,7.0321,7.0937,7.136,7.1598,7.2583,7.2959,7.2778,7.3055,7.2983,7.2522,7.1944,7.1197,7.0503,7.1171,7.1085,7.0671,7.2084,7.2199,7.1743,7.2601,7.2456,7.1909,7.1861,7.2286,7.2992,7.39,7.5585,7.7344,7.7969,7.9375,8.0625,8.0429,8.0976,8.1758,8.2187,8.2148,8.2148,8.2773,8.2617,8.2656,8.3984,8.5469,8.6953,8.8437,8.8164,8.789,8.832,8.6601,8.5234,8.5234,8.5781,8.6211,8.6211,8.6758,8.7265,8.7461,8.75,8.75,8.75,8.75,8.75,8.75,8.75,8.75,8.75,8.75,8.75,8.75,8.8086,8.8515,8.8711,9.0039,9.0742,9.0976,9.164,9.1953,9.1953,9.2187,9.2265,9.2265,9.2265,9.2265,9.2226,9.1809,9.1616,9.1542,9.1389,9.1184,9.0943,0.0,0.0,0.0,0.0,0.0,0.0,0.0,0.0,0.0,0.0,0.0,0.0,0.0,0.0,0.0,0.0,0.0,0.0,0.0,5.8242,5.9511,6.0748,6.2166,6.3512,6.4743,6.532,6.6274,6.755,6.8013,6.8463,6.8921,7.0283,7.0735,7.0395,7.1222,7.1386,7.1,7.0537,7.035,0.0,0.0,7.1039,7.109,7.2154,7.2245,7.1897,7.2499,7.2422,7.1992,7.1992,7.2812,7.3945,7.4453,7.6289,7.8398,7.8867,8.0234,8.1562,8.1562,8.1914,8.25,8.3398,8.3515,8.3789,8.5039,8.5195,8.5508,8.6875,8.8203,8.9453,9.039,9.0156,8.9961,9.0351,8.8554,8.7148,8.7148,8.7226,8.7187,8.6797,8.7187,8.75,8.75,8.75,8.75,8.75,8.75,8.75,8.75,8.75,8.75,8.75,8.75,8.7656,8.8008,8.8867,8.9453,8.9844,9.082,9.1484,9.1875,9.2383,9.2617,9.2617,9.2617,9.2617,9.2578,9.2452,9.2405,9.24,9.2144,9.1998,9.1862,9.1762,9.1585,9.1376,0.0,0.0,0.0,0.0,0.0,0.0,0.0,0.0,0.0,5.5708,5.5708,5.5708,5.5708,5.5708,0.0,0.0,0.0,0.0,0.0,0.0,5.8797,6.0261,6.0536,6.1362,6.281,6.2403,6.2908,6.451,6.4626,6.5105,6.5994,6.7655,6.8021,6.7363,6.9023,6.9425,6.8808,6.8808,6.9392,7.0378,7.0495,7.1036,7.1836,0.0,7.1992,7.1992,7.1992,7.207,7.2148,7.2031,7.3086,7.4453,7.457,7.6875,7.957,7.9687,8.0937,8.2304,8.2304,8.2304,8.2539,8.3515,8.4336,8.539,8.7226,8.8203,8.8984,8.9961,9.0781,9.1328,9.1445,9.1367,9.1562,9.2304,9.1054,9.0,9.0,8.9258,8.8437,8.7734,8.7578,8.75,8.75,8.75,8.75,8.75,8.75,8.75,8.75,8.75,8.7539,8.7656,8.7656,8.8047,8.8867,8.9726,9.0547,9.1289,9.1406,9.1875,9.2617,9.2617,9.2617,9.2617,9.2577,9.2537,9.2536,9.228,9.2154,9.2142,9.1922,9.1684,9.1502,9.1455,9.1338,9.121,0.0,0.0,0.0,0.0,0.0,0.0,0.0,0.0,0.0,0.0,5.5708,5.5708,0.0,0.0,0.0,0.0,0.0,0.0,0.0,0.0,0.0,5.7821,5.9193,6.0171,6.0558,6.1769,6.2564,6.2905,6.3637,6.4078,6.4264,6.5409,6.5843,6.5732,6.6928,6.7803,6.8312,6.8312,6.8823,6.9724,7.0388,7.078,7.1015,7.1719,0.0,0.0,7.1992,7.2461,7.2969,7.2226,7.2695,7.3633,7.4375,7.6484,7.8828,7.9492,8.0937,8.2304,8.2304,8.2304,8.2695,8.4297,8.4804,8.5547,8.7929,8.8594,8.914,9.0742,9.1172,9.1523,9.2226,9.1797,9.1367,9.1484,9.0664,9.0,9.0,8.9258,8.8633,8.8515,8.789,8.75,8.75,8.75,8.75,8.75,8.75,8.75,8.75,8.75,8.7812,8.8476,8.8476,8.8906,8.9765,9.0625,9.1133,9.1328,9.2031,9.2461,9.2617,9.2617,9.2617,9.2578,9.2352,9.2284,9.2237,9.2058,9.1938,9.1914,9.1684,9.1521,9.1475,9.1299,9.1241,9.121,0.0,0.0,0.0,0.0,0.0,0.0,0.0,5.5708,5.5708,5.5708,5.5708,5.5708,5.5708,5.5708,5.5708,0.0,0.0,0.0,0.0,0.0,0.0,5.7189,5.8932,5.9914,5.999,6.1241,6.1904,6.1974,0.0,6.2625,6.2712,6.3684,6.4086,6.4165,6.5584,6.6445,6.6875,6.7344,6.8047,6.8906,6.9687,7.0312,7.0781,7.168,0.0,0.0,7.1992,7.2578,7.3242,7.2812,7.3242,7.4062,7.4453,7.668,7.9219,7.9609,8.0937,8.2304,8.2304,8.2304,8.2734,8.4453,8.4883,8.5703,8.8672,8.9375,8.9883,9.1601,9.1992,9.2109,9.2539,9.2265,9.1992,9.1992,9.125,9.0664,9.0664,8.9922,8.9219,8.875,8.8359,8.8125,8.8125,8.8125,8.832,8.8789,8.8789,8.8437,8.7539,8.789,8.8515,8.9336,8.9804,9.0234,9.0664,9.1523,9.1911,9.1773,9.2203,9.234,9.2249,9.2249,9.2249,9.2247,9.2099,9.2026,9.2012,9.1787,9.1706,9.1678,9.1448,9.1331,9.1338,9.1249,9.121,9.121,0.0,0.0,0.0,0.0,0.0,0.0,0.0,5.5978,5.5978,5.5978,5.6132,5.6115,5.5787,5.5702,5.5691,0.0,0.0,0.0,0.0,0.0,0.0,0.0,0.0,0.0,5.981,0.0,0.0,6.1526,6.1526,0.0,0.0,0.0,0.0,0.0,6.4258,6.5078,6.5625,6.6133,6.7148,0.0,0.0,7.0039,7.1055,0.0,0.0,0.0,0.0,7.2969,7.3828,7.3633,7.4297,7.5117,7.4922,7.6992,7.9492,7.9883,8.1094,8.2304,8.2304,8.2304,8.2656,8.4219,8.4765,8.5703,8.8789,8.9609,9.0234,9.1953,9.2304,9.2383,9.2578,9.2617,9.2617,9.2617,9.2031,9.1562,9.1562,9.082,8.9961,8.9062,8.8984,8.8906,8.8711,8.8867,8.9258,8.9961,9.0,8.9414,8.8125,8.8633,8.9375,9.0234,9.0937,9.1366,9.148,9.2183,9.2395,9.2136,9.2136,9.2032,9.1919,9.1919,9.1919,9.1914,9.1821,9.1797,9.1777,9.1541,9.1431,9.1441,9.127,9.121,9.121,9.121,9.121,9.121,0.0,0.0,0.0,0.0,0.0,0.0,0.0,5.6863,5.6863,5.6863,5.755,5.7487,5.602,5.5774,5.5768,0.0,0.0,0.0,0.0,0.0,0.0,0.0,0.0,0.0,0.0,0.0,0.0,6.1679,6.1679,0.0,0.0,0.0,0.0,0.0,0.0,6.3398,6.5547,6.4844,0.0,0.0,0.0,0.0,0.0,0.0,0.0,0.0,0.0,7.4258,7.5547,7.4765,7.5586,7.6836,7.6015,7.707,7.8906,8.0429,8.1562,8.2304,8.2304,8.2304,8.2539,8.3476,8.4297,8.539,8.7304,8.8281,8.9297,9.1054,9.1406,9.164,9.2461,9.2617,9.2617,9.2617,9.2539,9.2461,9.2461,9.1719,9.0859,8.9961,8.9883,8.957,8.8789,8.9414,8.9922,9.0,9.0,8.9922,8.9765,8.9844,9.0273,9.1133,9.125,9.1555,9.2116,9.2194,9.2131,9.1949,9.1949,9.194,9.1919,9.1919,9.1919,9.1905,9.1649,9.156,9.1528,9.1299,9.1232,9.1224,9.1227,9.121,9.121,9.121,9.121,9.121,0.0,0.0,0.0,0.0,0.0,0.0,5.617,5.6209,5.6426,5.7057,5.7418,5.7628,5.7609,5.7056,5.653,5.613,0.0,0.0,0.0,0.0,0.0,0.0,0.0,0.0,0.0,0.0,6.1601,6.2461,6.1953,0.0,0.0,0.0,0.0,0.0,0.0,6.3828,6.4844,6.5,0.0,0.0,0.0,0.0,0.0,0.0,0.0,0.0,0.0,0.0,7.5859,7.5508,7.6172,7.7226,7.7422,7.8281,7.9336,8.0039,8.1211,8.2304,8.2304,8.2304,8.25,8.3398,8.4258,8.5351,8.7109,8.8125,8.9179,9.0937,9.1289,9.1562,9.2422,9.2617,9.2617,9.2617,9.2617,9.2617,9.2617,9.2304,9.1758,9.0898,9.0781,9.0664,9.0312,9.0586,9.0935,9.1299,9.1206,9.1122,9.1122,9.08,9.0923,9.1634,9.1671,9.1799,9.2005,9.2005,9.1897,9.1667,9.1667,9.161,9.1484,9.1484,9.1484,9.1469,9.1354,9.1314,9.1299,9.1241,9.121,9.121,9.121,9.121,9.121,9.121,9.121,9.121,0.0,0.0,0.0,0.0,0.0,5.5865,5.6097,5.616,5.6467,5.7168,5.7493,5.7839,5.8352,5.7853,5.7358,5.712,5.6585,0.0,0.0,0.0,0.0,0.0,0.0,0.0,0.0,0.0,6.1875,6.3008,6.2383,6.2851,0.0,0.0,6.3515,6.3789,0.0,0.0,0.0,0.0,0.0,0.0,0.0,0.0,0.0,0.0,0.0,0.0,0.0,0.0,0.0,0.0,0.0,7.7344,7.8242,7.9062,7.9765,8.0,8.1133,8.2304,8.2304,8.2304,8.2461,8.3047,8.4062,8.5234,8.6445,8.7578,8.8828,9.0547,9.0937,9.125,9.2383,9.2617,9.2617,9.2617,9.2617,9.2617,9.2617,9.2617,9.2265,9.1406,9.1523,9.1562,9.1328,9.1442,9.1729,9.2092,9.1965,9.1888,9.1806,9.1377,9.1381,9.188,9.1919,9.1844,9.1767,9.1767,9.1655,9.1419,9.1419,9.1354,9.121,9.121,9.121,9.121,9.121,9.121,9.121,9.121,9.121,9.121,9.121,9.121,9.121,9.121,9.121,9.121,0.0,0.0,0.0,0.0,0.0,0.0,5.7034,5.7281,5.7387,5.739,5.8156,5.8444,5.7786,5.7635,5.8012,5.9062,5.7478,0.0,0.0,0.0,0.0,0.0,0.0,0.0,0.0,0.0,6.125,6.3008,6.3008,6.3437,6.4297,6.4297,6.4765,6.5547,0.0,0.0,0.0,0.0,0.0,0.0,0.0,0.0,7.2109,0.0,0.0,0.0,0.0,0.0,0.0,0.0,0.0,0.0,0.0,7.9062,7.9883,8.0742,8.1601,8.2304,8.2304,8.2304,8.2304,8.2304,8.3633,8.4883,8.4922,8.6289,8.8008,8.9687,9.0,9.0547,9.2265,9.2617,9.2617,9.2617,9.2617,9.2617,9.2617,9.2617,9.2265,9.1406,9.207,9.2265,9.1367,9.1843,9.2125,9.194,9.1919,9.1767,9.1534,9.1515,9.1632,9.1871,9.1919,9.1757,9.1515,9.1515,9.1405,9.121,9.121,9.121,9.121,9.121,9.121,9.121,9.121,9.121,9.121,9.121,9.121,9.121,9.121,9.121,9.121,9.121,9.121,9.121,0.0,0.0,0.0,0.0,0.0,0.0,0.0,5.655,5.6848,5.7513,5.7831,5.8217,5.8663,5.8705,5.8825,5.918,5.8123,0.0,0.0,0.0,0.0,0.0,0.0,0.0,0.0,6.0703,6.2148,6.3906,6.3281,6.4062,6.6055,6.5469,6.5351,6.5586,6.5312,6.5508,0.0,0.0,0.0,0.0,0.0,7.1992,7.2109,0.0,0.0,0.0,0.0,0.0,0.0,0.0,0.0,0.0,0.0,0.0,0.0,8.0742,8.2031,8.3047,8.2461,8.3164,8.3945,8.3359,8.4492,8.5781,8.5781,8.6679,8.7969,8.9648,9.0,9.0547,9.2265,9.2617,9.2617,9.2617,9.3086,9.3281,9.2695,9.3125,9.3164,9.2304,9.2251,9.2225,9.1951,9.1813,9.1694,9.1638,9.1493,9.1369,9.1313,9.1305,9.133,9.1421,9.1421,9.1361,9.1305,9.1305,9.127,9.121,9.121,9.121,9.121,9.121,9.121,9.121,9.121,9.121,9.121,9.121,9.121,9.121,9.121,9.121,9.121,9.121,9.121,9.121,0.0,0.0,0.0,0.0,0.0,0.0,0.0,5.634,5.6577,5.7202,5.7283,5.7644,5.8593,5.8711,5.8945,5.9609,5.914,0.0,0.0,0.0,0.0,0.0,0.0,0.0,6.0117,6.1172,6.2734,6.4805,6.4258,6.5156,6.7383,6.6836,6.6406,6.6094,6.6094,6.6094,0.0,0.0,0.0,0.0,7.1797,7.1992,7.2109,0.0,0.0,0.0,0.0,0.0,0.0,0.0,0.0,0.0,0.0,0.0,0.0,0.0,8.2226,8.3398,8.2539,8.332,8.4297,8.375,8.4922,8.6211,8.6211,8.6875,8.8086,9.0078,9.0234,9.0625,9.2695,9.2812,9.2617,9.2617,9.3047,9.3203,9.2695,9.3086,9.3163,9.2528,9.2296,9.2139,9.1934,9.1667,9.1455,9.139,9.1286,9.121,9.121,9.121,9.121,9.121,9.121,9.121,9.121,9.121,9.121,9.121,9.121,9.121,9.121,9.121,9.121,9.121,9.121,9.121,0.0,9.121,9.121,9.121,9.121,9.121,9.121,9.121,9.121,9.121,0.0,0.0,0.0,0.0,0.0,0.0,0.0,5.6515,5.6601,5.6601,5.6601,5.6914,5.7734,5.7851,5.8555,6.0156,0.0,0.0,0.0,0.0,0.0,0.0,0.0,0.0,6.1562,6.1719,6.3008,6.5508,6.5586,6.6445,6.8125,6.8125,6.7695,6.6914,6.6914,6.6953,0.0,0.0,0.0,0.0,7.1952,7.1952,0.0,0.0,0.0,0.0,0.0,0.0,0.0,0.0,0.0,0.0,0.0,0.0,0.0,0.0,0.0,0.0,0.0,8.2969,8.3672,8.3672,8.4961,8.6211,8.6289,8.6914,0.0,9.0625,9.0586,9.0859,9.3359,9.3203,9.2695,9.2695,9.2695,9.2656,9.2617,9.2578,9.2492,9.2229,9.2164,9.1991,9.1534,9.1488,9.1405,9.1198,9.121,9.121,9.121,9.121,9.121,9.121,9.121,9.121,9.121,9.121,9.121,9.121,9.121,9.121,9.121,9.121,9.121,9.121,9.121,9.121,9.121,9.121,9.121,9.121,9.121,9.121,9.121,9.121,9.121,9.121,0.0,0.0,0.0,0.0,0.0,0.0,0.0,0.0,0.0,0.0,5.6601,5.668,5.6875,5.75,5.832,0.0,0.0,0.0,0.0,0.0,0.0,0.0,0.0,0.0,6.0703,6.1992,6.332,6.4609,6.5273,6.6133,6.7226,6.7226,6.7109,6.6914,6.6914,6.7572,0.0,0.0,0.0,0.0,7.1635,7.1635,0.0,0.0,0.0,0.0,7.4239,7.5174,0.0,0.0,0.0,0.0,0.0,0.0,0.0,0.0,8.1289,8.1719,8.2187,0.0,8.4609,8.4609,8.539,8.6367,0.0,8.7344,8.7851,8.9062,9.0195,9.1406,9.2656,9.3281,9.3594,9.3594,9.3594,9.3359,9.2695,9.2405,9.2286,9.2221,9.1866,9.1605,9.1521,9.1361,9.1245,9.1219,9.121,9.121,9.121,9.121,9.121,9.121,9.121,9.121,9.121,9.121,9.121,9.121,9.121,9.121,9.121,9.121,9.121,9.121,9.121,9.121,9.121,9.121,9.121,9.121,9.121,9.121,9.121,9.121,9.121,9.121,0.0,0.0,0.0,0.0,0.0,0.0,0.0,0.0,0.0,0.0,0.0,5.6601,5.6601,5.7383,0.0,0.0,0.0,0.0,0.0,0.0,0.0,0.0,0.0,6.0586,6.0976,6.1914,6.3203,6.4883,6.5351,6.6209,6.737,6.737,6.7124,6.6705,6.7055,6.7924,0.0,0.0,0.0,7.1481,7.1481,0.0,0.0,0.0,0.0,0.0,7.3373,7.4393,0.0,7.6328,7.6875,7.7265,0.0,0.0,0.0,0.0,8.039,8.1094,8.1562,8.2969,8.4297,8.4297,8.4961,8.5742,8.6211,8.6328,8.6758,8.8359,8.914,9.0078,9.1719,9.2383,9.2695,9.2695,9.3047,9.3125,9.2656,9.2354,9.2157,9.2051,9.1732,9.1441,9.1384,9.127,9.121,9.121,9.121,9.121,9.121,9.121,9.121,9.121,9.121,9.121,9.121,9.121,9.121,9.121,9.121,9.121,9.121,9.121,9.121,9.121,9.121,9.121,9.121,9.121,9.121,9.121,9.121,9.121,9.121,9.121,9.121,9.121,0.0,0.0,0.0,0.0,0.0,0.0,0.0,0.0,0.0,0.0,0.0,0.0,0.0,0.0,0.0,0.0,0.0,0.0,0.0,0.0,0.0,0.0,6.0976,6.0937,6.168,6.1836,6.3047,6.539,6.5624,6.6471,6.7906,6.8007,6.7521,6.6617,6.7557,6.8285,0.0,0.0,7.0724,7.1393,7.1393,0.0,0.0,0.0,0.0,0.0,0.0,0.0,0.0,7.539,7.6289,7.6992,7.6992,0.0,0.0,0.0,0.0,0.0,8.0937,8.2148,8.3397,8.3554,8.414,8.4726,8.4883,8.4883,8.5547,8.7851,8.7969,8.8437,9.0859,9.1406,9.1523,9.1679,9.2187,9.2536,9.2493,9.2276,9.2026,9.1849,9.1602,9.1375,9.1206,9.121,9.121,9.121,9.121,9.121,9.121,9.121,9.121,9.121,9.121,9.121,9.121,9.121,9.121,9.121,9.121,9.121,9.121,9.121,9.121,9.121,9.121,9.121,9.121,9.121,9.121,9.121,9.121,9.121,9.121,9.121,9.121,9.121,0.0,0.0,0.0,0.0,0.0,0.0,0.0,0.0,0.0,0.0,0.0,0.0,0.0,0.0,0.0,0.0,0.0,0.0,0.0,0.0,0.0,6.1522,6.1518,6.1562,6.1719,6.2422,6.3359,6.4492,6.5797,6.6934,6.7897,6.8494,6.8264,6.7463,6.8912,6.9208,6.8733,7.0201,7.0863,7.0979,7.0979,0.0,0.0,0.0,0.0,0.0,0.0,0.0,0.0,7.4492,7.539,7.6094,7.6094,0.0,0.0,0.0,0.0,0.0,8.0625,8.1626,8.2456,8.3357,8.3711,8.3984,8.4726,8.4883,8.5234,8.6367,8.7617,8.9101,9.0976,9.1914,9.2656,9.3398,9.2792,9.221,9.2041,9.1772,9.1608,9.1559,9.1376,9.1249,9.121,9.121,9.121,9.121,9.121,9.121,9.121,9.121,9.121,9.121,9.121,9.121,9.121,9.121,9.121,9.121,9.121,9.121,9.121,9.121,9.121,9.121,9.121,9.121,9.121,9.121,9.121,9.121,9.121,9.121,9.121,9.121,9.121,9.121,0.0,0.0,0.0,0.0,0.0,0.0,0.0,0.0,0.0,0.0,0.0,0.0,0.0,0.0,0.0,0.0,0.0,0.0,0.0,0.0,6.1575,6.1505,6.1496,6.1568,6.1719,6.2491,6.3535,6.4822,6.5952,6.71,6.8292,6.85,6.8421,6.8073,6.9253,6.9574,6.926,7.042,7.0898,7.0898,0.0,0.0,0.0,0.0,0.0,0.0,0.0,0.0,0.0,0.0,7.4805,7.582,7.5351,0.0,0.0,0.0,0.0,0.0,7.9453,8.0542,8.1705,8.2656,8.3509,8.4232,8.4663,8.4838,8.5156,8.6015,8.7187,8.8397,8.9511,9.0833,9.1954,9.2683,9.2384,9.1991,9.1893,9.1678,9.1508,9.1508,9.1322,9.121,9.121,9.121,9.121,9.121,9.121,9.121,9.121,9.121,9.121,9.121,9.121,9.121,9.121,9.121,9.121,9.121,9.121,9.121,9.121,9.121,9.121,9.121,9.121,9.121,9.121,9.121,9.121,9.121,9.121,9.121,9.121,9.121,9.121,9.121,0.0,0.0,0.0,0.0,0.0,0.0,0.0,0.0,0.0,0.0,0.0,0.0,0.0,0.0,0.0,0.0,0.0,0.0,0.0,6.1536,6.1422,6.1398,6.1328,6.1463,6.1898,6.2632,6.384,6.5554,6.6465,6.7666,6.9121,6.9046,6.8891,6.8737,6.959,6.9898,6.9744,7.0552,7.0898,7.0898,0.0,0.0,0.0,0.0,0.0,0.0,0.0,0.0,0.0,0.0,0.0,0.0,0.0,0.0,0.0,7.6559,7.7378,7.8471,7.8619,7.97,8.1015,8.1876,8.308,8.4169,8.4598,8.4637,8.4961,8.625,8.699,8.7762,8.8862,9.028,9.1432,9.1836,9.1869,9.1806,9.1744,9.156,9.1417,9.1417,9.1297,9.121,9.121,9.121,9.121,9.121,9.121,9.121,9.121,9.121,9.121,9.121,9.121,9.121,9.121,9.121,9.121,9.121,9.121,9.121,9.121,9.121,9.121,9.121,9.121,9.121,9.121,9.121,9.121,9.121,9.121,9.121,9.121,9.121,9.121,9.121,0.0,0.0,0.0,0.0,0.0,0.0,0.0,0.0,0.0,0.0,0.0,0.0,0.0,0.0,0.0,0.0,0.0,0.0,0.0,6.1641,6.1237,6.1056,6.121,6.1645,6.2441,6.328,6.4597,6.6309,6.7765,6.9209,7.074,7.072,7.0321,6.9629,7.0437,7.0398,6.9744,7.0552,7.0898,7.0898,7.0898,0.0,0.0,0.0,0.0,0.0,0.0,0.0,0.0,0.0,0.0,0.0,0.0,0.0,7.7303,7.7805,7.8059,7.8357,7.889,7.9584,8.0367,8.1231,8.1953,8.289,8.4492,8.4258,8.4414,8.6875,8.7243,8.7956,9.0583,9.1651,9.2058,9.1914,9.1706,9.1473,9.1286,9.1241,9.1215,9.1215,9.1227,9.121,9.121,9.121,9.121,9.121,9.121,9.121,9.121,9.121,9.121,9.121,9.121,9.121,9.121,9.121,9.121,9.121,9.121,9.121,9.121,9.121,9.121,9.121,9.121,9.121,9.121,9.121,9.121,9.121,9.121,9.121,9.121,9.121,9.121,9.121,0.0,0.0,0.0,0.0,0.0,0.0,0.0,0.0,0.0,0.0,0.0,0.0,0.0,0.0,0.0,0.0,0.0,0.0,0.0,6.2073,6.1891,6.1806,6.179,6.2177,6.2984,6.3942,6.5519,6.776,6.9281,7.0318,7.0898,7.0898,7.0744,7.0475,7.0744,7.0744,7.0475,7.0783,7.0898,7.0898,7.0898,7.0898,0.0,0.0,0.0,0.0,0.0,0.0,0.0,0.0,7.2899,7.3693,7.409,7.5781,7.7526,7.7233,7.7533,7.7991,7.8231,7.9277,8.0413,8.0868,8.196,8.3298,8.4769,8.5419,8.6215,8.7741,8.8711,8.971,9.1147,9.1516,9.1541,9.1484,9.1369,9.1289,9.1189,9.121,9.121,9.121,9.121,9.121,9.121,9.121,9.121,9.121,9.121,9.121,9.121,9.121,9.121,9.121,9.121,9.121,9.121,9.121,9.121,9.121,9.121,9.121,9.121,9.121,9.121,9.121,9.121,9.121,9.121,9.121,9.121,9.121,9.121,9.121,9.121,9.121,9.121,9.121,0.0,0.0,0.0,0.0,0.0,0.0,0.0,0.0,0.0,0.0,0.0,0.0,0.0,0.0,0.0,0.0,0.0,0.0,6.2926,6.2534,6.2457,6.2993,6.2166,6.2557,6.4474,6.4944,6.6267,6.8536,7.0112,7.0898,7.0898,7.0898,7.0898,7.0898,7.0898,7.0898,7.0898,7.0898,7.0898,7.0898,7.0898,7.1052,0.0,0.0,0.0,0.0,0.0,0.0,0.0,0.0,7.325,7.3616,7.4215,7.5793,7.742,7.7304,7.7866,7.8556,7.8782,7.9693,8.0713,8.1116,8.2168,8.3482,8.5126,8.6108,8.7163,8.8766,9.0107,9.1097,9.1457,9.1375,9.1305,9.1305,9.1219,9.121,9.121,9.121,9.121,9.121,9.121,9.121,9.121,9.121,9.121,9.121,9.121,9.121,9.121,9.121,9.121,9.121,9.121,9.121,9.121,9.121,9.121,9.121,9.121,9.121,9.121,9.121,9.121,9.121,9.121,9.121,9.121,9.121,9.121,9.121,9.121,9.121,9.121,9.121,9.121,9.121,0.0,0.0,0.0,0.0,0.0,0.0,0.0,0.0,0.0,0.0,0.0,0.0,0.0,0.0,0.0,0.0,0.0,0.0,6.4474,6.3057,6.2864,6.4512,6.2166,6.2787,6.6981,6.6327,6.6744,6.843,7.009,7.0898,7.0898,7.0898,7.0898,7.0898,7.0898,7.0898,7.0898,7.0898,7.0898,7.0898,7.0898,7.1398,7.2213,0.0,0.0,0.0,0.0,0.0,0.0,0.0,7.318,7.2845,7.4716,7.591,7.6883,7.8374,7.9381,8.0213,8.0891,8.1093,8.1285,8.2062,8.2466,8.3251,8.5575,8.5931,8.6701,8.992,9.1287,9.1797,9.1566,9.1502,9.1502,9.1502,9.1338,9.121,9.121,9.121,9.121,9.121,9.121,9.121,9.121,9.121,9.121,9.121,9.121,9.121,9.121,9.121,9.121,9.121,9.121,9.121,9.121,9.121,9.121,9.121,9.121,9.121,9.121,9.121,9.121,9.121,9.121,9.121,9.121,9.121,9.121,9.121,9.121,9.121,9.121,9.121,9.121,9.121,0.0,0.0,0.0,0.0,0.0,0.0,0.0,0.0,0.0,0.0,0.0,0.0,0.0,0.0,0.0,0.0,0.0,0.0,6.3622,6.3782,6.382,6.3698,6.3551,6.4051,6.532,6.7475,6.909,7.0167,7.009,7.036,7.0898,7.0321,7.036,7.0898,7.0898,7.0898,7.0898,7.0898,7.0898,7.0898,7.0898,7.1398,7.2136,0.0,0.0,0.0,0.0,0.0,0.0,0.0,0.0,0.0,7.5253,7.6791,7.7898,7.7792,7.8343,7.89,7.8514,7.9746,8.1046,8.0814,8.3031,8.5617,8.6942,8.6684,8.6949,8.9571,9.0914,9.156,9.133,9.1289,9.1289,9.1289,9.1258,9.121,9.121,9.121,9.121,9.121,9.121,9.121,9.121,9.121,9.121,9.121,9.121,9.121,9.121,9.121,9.121,9.121,9.121,9.121,9.121,9.121,9.121,9.121,9.121,9.121,9.121,9.121,9.121,9.121,9.121,9.121,9.121,9.121,9.121,9.121,9.121,9.121,9.121,9.121,9.121,9.121,0.0,0.0,0.0,0.0,0.0,0.0,0.0,0.0,6.6024,6.6024,6.5943,6.5904,0.0,0.0,0.0,6.5051,6.3858,6.3281,6.3775,6.4314,6.4512,6.4359,6.4512,6.5089,6.609,6.8475,6.9937,7.0437,7.0244,7.0437,7.0898,7.009,7.0321,7.1398,7.1052,7.1091,7.1398,7.1398,7.1398,7.1437,7.1783,7.2437,7.3129,0.0,0.0,0.0,0.0,0.0,0.0,0.0,0.0,0.0,7.5553,7.6476,7.7169,7.8054,7.8631,7.9208,8.0092,8.1439,8.2571,8.2498,8.44,8.6595,8.7831,8.8217,8.8722,9.0099,9.0919,9.1331,9.1224,9.121,9.121,9.121,9.121,9.121,9.121,9.121,9.121,9.121,9.121,9.121,9.121,9.121,9.121,9.121,9.121,9.121,9.121,9.121,9.121,9.121,9.121,9.121,9.121,9.121,9.121,9.121,9.121,9.121,9.121,9.121,9.121,9.121,9.121,9.121,9.121,9.121,9.121,9.121,9.121,9.121,9.121,9.121,9.121,9.121,0.0,0.0,6.1077,0.0,0.0,0.0,0.0,6.5865,6.5904,6.5904,6.5904,6.5904,0.0,0.0,0.0,6.582,6.5166,6.4666,6.4474,6.4628,6.5013,6.5628,6.5128,6.5974,6.8468,6.936,6.9744,6.959,7.0398,7.0783,7.0783,7.0129,7.0667,7.2175,7.1437,7.1514,7.2213,7.2213,7.2213,7.229,7.3053,7.3892,7.47,7.4623,0.0,0.0,0.0,0.0,0.0,0.0,0.0,0.0,7.5745,7.5515,7.5553,7.8669,7.9662,8.0469,8.3585,8.4593,8.4978,8.5709,8.6094,8.6786,8.8526,9.0094,9.1171,9.1095,9.1133,9.121,9.121,9.121,9.121,9.121,9.121,9.121,9.121,9.121,9.121,9.121,9.121,9.121,9.121,9.121,9.121,9.121,9.121,9.121,9.121,9.121,9.121,9.121,9.121,9.121,9.121,9.121,9.121,9.121,9.121,9.121,9.121,9.121,9.121,9.121,9.121,9.121,9.121,9.121,9.121,9.121,9.121,9.121,9.121,9.121,9.121,9.121,0.0,0.0,6.176,6.0993,0.0,0.0,6.4973,6.5474,6.5904,6.5904,6.5904,6.5904,6.5904,6.575,0.0,6.5859,6.575,6.5051,6.366,6.4859,6.5089,6.3891,6.559,6.7475,6.9398,7.0206,7.0014,6.866,6.9552,6.9975,6.9975,7.0437,7.1206,7.2213,7.2706,7.2668,7.2213,7.2213,7.2213,7.2213,7.2399,7.336,7.4623,7.4007,7.4584,0.0,0.0,0.0,0.0,0.0,0.0,0.0,7.5745,7.6322,7.6899,7.763,7.8784,7.9969,8.07,8.2362,8.3909,8.4101,8.6179,8.8594,9.0287,9.0941,9.1018,9.0316,9.0701,9.121,9.121,9.121,9.121,9.121,9.121,9.121,9.121,9.121,9.121,9.121,9.121,9.121,9.121,9.121,9.121,9.121,9.121,9.121,9.121,9.121,9.121,9.121,9.121,9.121,9.121,9.121,9.121,9.121,9.121,9.121,9.121,9.121,9.121,9.121,9.121,9.121,9.121,9.121,9.121,9.121,9.121,9.121,9.121,9.121,9.121,9.121,0.0,0.0,0.0,0.0,0.0,0.0,0.0,0.0,6.6327,6.5942,6.5904,6.5904,6.5904,6.5904,0.0,0.0,6.5667,6.5166,6.3429,6.4936,6.6051,6.6353,6.7628,6.9129,7.086,7.0898,7.0283,6.9007,6.9045,6.9276,6.9706,7.0514,7.1591,7.2822,7.3315,7.3238,7.286,7.3245,7.3168,7.2899,7.3707,7.4284,7.47,7.4707,7.4976,7.5361,7.5361,0.0,0.0,0.0,0.0,0.0,0.0,0.0,7.6284,7.7522,7.8215,7.9054,8.1054,8.2593,8.3986,8.564,8.7371,8.9141,9.0825,9.121,9.1056,9.0624,9.0902,9.121,9.121,9.121,9.121,9.121,9.121,9.121,9.121,9.121,9.121,9.121,9.121,9.121,9.121,9.121,9.121,9.121,9.121,9.121,9.121,9.121,9.121,9.121,9.121,9.121,9.121,9.121,9.121,9.121,9.121,9.121,9.121,9.121,9.121,9.121,9.121,9.121,9.121,9.121,9.121,9.121,9.121,9.121,9.121,9.121,9.121,9.121,0.0,0.0,0.0,0.0,0.0,0.0,0.0,0.0,0.0,6.5981,6.5904,6.5904,6.5904,6.5904,6.559,0.0,0.0,0.0,6.3622,6.4859,6.6898,6.959,6.9706,7.0552,7.236,7.1437,7.0552,6.9898,6.9045,6.9045,6.9937,7.0744,7.2052,7.3699,7.3853,7.3776,7.3546,7.4199,7.4007,7.3392,7.4784,7.5014,7.4584,7.5284,7.5207,7.4776,7.5515,7.5861,7.6015,7.6015,0.0,0.0,0.0,0.0,7.5361,7.7638,7.7907,7.8292,8.1947,8.3255,8.4409,8.7833,8.8718,8.9141,9.0825,9.121,9.121,9.121,9.121,9.121,9.121,9.121,9.121,9.121,9.121,9.121,9.121,9.121,9.121,9.121,9.121,9.121,9.121,9.121,9.121,9.121,9.121,9.121,9.121,9.121,9.121,9.121,9.121,9.121,9.121,9.121,9.121,9.121,9.121,9.121,9.121,9.121,9.121,9.121,9.121,9.121,9.121,9.121,9.121,9.121,9.121,9.121,9.121,9.121,9.121,9.121,0.0,0.0,0.0,0.0,0.0,0.0,0.0,0.0,0.0,0.0,6.5904,6.5904,6.5904,6.5904,6.5865,6.575,6.582,6.5474,6.4474,0.0,0.0,6.9552,6.9706,7.086,7.3276,7.1745,7.086,7.0744,6.9937,6.9937,7.0744,7.1629,7.2937,7.4584,7.5322,7.4861,7.3507,7.3623,7.3168,7.2406,7.2636,7.3091,7.3661,7.3776,7.4199,7.47,7.4815,7.5361,7.6015,7.6015,7.6015,0.0,0.0,0.0,7.6053,7.7138,7.7869,7.8638,7.9939,8.19,8.4409,8.7833,8.8718,8.9141,9.0825,9.121,9.121,9.121,9.121,9.121,9.121,9.121,9.121,9.121,9.121,9.121,9.121,9.121,9.121,9.121,9.121,9.121,9.121,9.121,9.121,9.121,9.121,9.121,9.121,9.121,9.121,9.121,9.121,9.121,9.121,9.121,9.121,9.121,9.121,9.121,9.121,9.121,9.121,9.121,9.121,9.121,9.121,9.121,9.121,9.121,9.121,9.121,9.121,9.121,9.121,9.121,0.0,0.0,0.0,0.0,0.0,0.0,0.0,0.0,0.0,0.0,0.0,6.5904,6.5904,6.5904,6.5705,6.5205,6.5628,6.575,6.5359,6.5743,6.7128,6.959,7.0591,7.1629,7.2745,7.2014,7.1398,7.0898,6.959,7.0122,7.2353,7.2245,7.3091,7.47,7.5091,7.4623,7.3507,7.3507,7.3014,7.229,7.3206,7.413,7.4899,7.4899,7.513,7.5361,7.4892,7.493,7.5284,7.5284,7.5592,7.6015,7.6015,0.0,0.0,0.0,7.6823,7.7592,7.99,8.2016,8.4294,8.7248,8.8333,8.9017,9.021,9.0855,9.121,9.121,9.121,9.121,9.121,9.121,9.121,9.121,9.121,9.121,9.121,9.121,9.121,9.121,9.121,9.121,9.121,9.121,9.121,9.121,9.121,9.121,9.121,9.121,9.121,9.121,9.121,9.121,9.121,9.121,9.121,9.1201,9.0772,9.0596,9.0586,9.0198,9.0436,9.1192,9.0762,9.0596,9.0528,9.0176,9.0006,9.0006,9.0006,9.0006,9.0006,9.0006,9.0006,9.0006,0.0,0.0,0.0,0.0,0.0,0.0,0.0,0.0,0.0,0.0,0.0,6.6211,6.6211,0.0,0.0,0.0,6.5513,6.5904,6.5904,6.6442,6.7552,6.9283,7.0975,7.1982,7.2213,7.2213,7.1867,7.1245,6.9552,7.0353,7.3507,7.2822,7.3437,7.5014,7.5014,7.4584,7.3776,7.3584,7.3014,7.2367,7.4014,7.5091,7.5745,7.6399,7.6784,7.6784,7.5515,7.5168,7.5284,7.4853,7.5123,7.5707,7.5938,7.6015,0.0,0.0,0.0,7.663,7.9631,8.137,8.3024,8.6017,8.7401,8.8363,8.9624,9.0547,9.121,9.121,9.121,9.121,9.121,9.121,9.121,9.121,9.121,9.121,9.121,9.121,9.121,9.121,9.121,9.121,9.121,9.121,9.121,9.121,9.121,9.121,9.121,9.121,9.121,9.121,9.121,9.121,9.121,9.1008,9.0848,9.0674,9.0095,8.9844,8.9832,8.9314,8.9657,9.0654,9.0084,8.9844,8.9809,8.9327,8.9122,8.9122,8.9122,8.9122,8.9122,8.9122,8.9122,8.9122,0.0,0.0,0.0,0.0,0.0,0.0,0.0,0.0,0.0,0.0,0.0,6.7058,6.7058,6.7058,6.6712,6.5904,6.5859,6.5904,6.5904,6.5936,6.6705,6.8391,7.009,0.0,7.2175,7.2213,7.2175,7.2136,7.0437,7.0975,7.3507,7.343,7.4315,7.5938,7.5938,7.5438,7.4584,7.3815,7.3014,7.2367,7.4014,7.4738,7.5014,7.7445,7.8861,7.9285,7.6823,7.6476,7.6899,7.5245,7.4738,7.4892,7.5745,7.6015,7.6015,0.0,0.0,0.0,7.8176,7.8715,7.9792,8.3978,8.5632,8.6901,8.9355,9.0547,9.121,9.121,9.121,9.121,9.121,9.121,9.121,9.121,9.121,9.121,9.121,9.121,9.121,9.121,9.121,9.121,9.121,9.121,9.121,9.121,9.121,9.121,9.121,9.121,9.121,9.121,9.121,9.121,9.121,9.0498,8.9832,8.9225,8.9186,8.9173,8.9173,8.9135,8.9161,8.9225,8.9186,8.9173,8.9161,8.9097,8.9122,8.9122,8.9122,8.9122,8.9122,8.9122,8.9122,8.9122,0.0,0.0,0.0,0.0,0.0,0.0,0.0,0.0,0.0,0.0,0.0,0.0,0.0,6.6635,6.6211,6.5942,6.5904,6.5667,6.5089,6.659,6.7776,6.8353,7.1084,7.2437,7.2213,7.2745,7.2745,7.2213,7.1052,7.1514,7.3507,7.3507,7.4392,7.5938,7.4899,7.4507,7.4623,7.3245,7.2476,7.2444,7.5245,7.6669,7.7361,7.94,8.0669,8.1131,7.9169,7.7938,7.7215,7.6592,7.6015,7.5592,7.5899,7.6015,7.6015,7.6015,7.6015,7.6361,7.8061,7.8484,7.9138,8.1785,8.4286,8.6324,8.7239,8.9393,9.121,9.121,9.121,9.121,9.121,9.121,9.121,9.121,9.121,9.121,9.121,9.121,9.121,9.121,9.121,9.121,9.121,9.121,9.121,9.121,9.121,9.121,9.121,9.121,9.121,9.121,9.121,9.098,9.0498,8.9798,8.9326,8.9071,8.8649,8.8446,8.8432,8.7948,8.7736,8.7736,8.7736,8.8009,8.8417,8.7969,8.7736,8.7736,8.7736,8.7736,8.7736,8.7736,8.7736,8.7736,0.0,0.0,0.0,6.9276,0.0,6.9018,6.7868,6.7782,6.7821,6.7693,0.0,0.0,0.0,0.0,6.6176,6.5472,6.5381,6.5259,6.4976,6.6514,6.776,6.8505,7.1282,7.2615,7.2206,7.3053,7.3091,7.2213,7.1321,7.1629,7.3091,7.3353,7.4238,7.5515,7.4392,7.4353,7.5053,7.363,7.3053,7.3322,7.6746,7.8138,7.8369,8.0939,8.19,8.1708,8.0285,7.9285,7.86,7.86,7.8361,7.8015,7.7438,7.6707,7.6015,7.6015,7.6015,7.6245,7.7361,7.7676,7.813,8.0169,8.2324,8.4439,8.617,8.8286,9.0171,9.1018,9.121,9.121,9.121,9.121,9.121,9.121,9.121,9.121,9.121,9.121,9.121,9.121,9.121,9.121,9.121,9.121,9.121,9.121,9.121,9.121,9.121,9.121,9.1091,9.0848,9.0596,9.0155,8.9451,8.899,8.8636,8.8403,8.7954,8.7725,8.7694,8.7231,8.6978,8.6978,8.6978,8.7298,8.7678,8.7197,8.6978,8.6978,8.6978,8.6978,8.6978,8.6978,8.6978,8.6978,0.0,6.9762,7.0032,7.0787,6.9781,6.8879,6.8841,6.775,6.7411,6.8667,0.0,0.0,0.0,0.0,0.0,6.4577,6.4417,6.4747,6.5473,6.5586,6.6569,6.8672,7.0459,7.1661,7.221,7.3056,7.3056,7.2217,7.1339,7.1385,7.2269,7.3122,7.393,7.4738,7.47,7.5168,7.5899,7.5014,7.4661,7.4969,7.8354,7.8777,7.7808,8.1962,8.2569,8.1092,8.0254,8.0454,8.1154,8.1208,8.1631,8.19,8.0208,7.7977,7.6015,7.6015,7.6015,7.6015,0.0,0.0,0.0,7.9085,7.9738,8.1093,8.6055,8.7209,8.8017,9.0556,9.1095,9.1095,9.121,9.121,9.121,9.121,9.121,9.121,9.121,9.121,9.121,9.121,9.121,9.121,9.121,9.121,9.121,9.121,9.121,9.121,9.121,9.1192,9.0848,9.0106,8.9401,8.8746,8.8107,8.8076,8.7694,8.6978,8.6978,8.6978,8.6978,8.6978,8.6978,8.6978,8.6978,8.6978,8.6978,8.6978,8.6978,8.6978,8.6978,8.6978,8.6978,8.6978,8.6978,8.6978,7.0882,7.1361,7.1719,7.1513,7.1169,7.072,7.0115,7.0211,7.0283,0.0,0.0,0.0,6.8262,6.6985,6.5672,6.4417,6.4907,6.4841,6.3851,6.5492,6.6994,6.8187,7.0439,7.2022,7.2746,7.3012,7.3012,7.2784,7.1726,7.198,7.3412,7.3491,7.4276,7.563,7.4976,7.4815,7.5007,7.4161,7.4161,7.4892,7.7092,7.8166,7.8719,8.1728,8.3069,8.3373,8.3551,8.299,8.2367,8.3478,8.1939,7.9254,7.7592,7.6553,7.6015,7.6015,7.6015,7.6015,7.6015,0.0,0.0,0.0,0.0,0.0,8.1593,8.3324,8.5363,8.794,8.844,8.9017,9.0864,9.121,9.121,9.121,9.121,9.121,9.121,9.121,9.121,9.121,9.121,9.121,9.121,9.121,9.121,9.121,9.121,9.121,9.121,9.0675,9.0084,8.9414,8.8719,8.8294,8.8107,8.757,8.7197,8.6978,8.6978,8.6978,8.6978,8.6978,8.6978,8.6978,8.6978,8.6978,8.6978,8.6978,8.6978,8.6978,8.6978,8.6978,8.6978,8.6978,8.6978,8.6978,7.1551,7.1883,7.21,7.1776,7.1507,7.1227,7.074,7.0871,7.095,0.0,0.0,0.0,6.8345,6.688,6.5631,6.4788,6.5184,6.5344,6.5034,6.6363,6.7793,6.9138,7.0983,7.2308,7.2967,7.3016,7.3016,7.3016,7.1965,7.2007,7.2984,7.3186,7.3815,7.4749,7.4587,7.4511,7.4472,7.3624,7.3849,7.4916,7.7459,7.8391,7.8541,8.1164,8.2157,8.2229,8.3244,8.2959,8.2441,8.482,8.319,8.0064,7.9377,7.7707,7.6015,7.6015,7.6015,7.6015,7.6015,7.6015,7.6092,7.6438,0.0,0.0,8.09,8.2516,8.4524,8.7786,8.8748,8.944,9.0941,9.121,9.121,9.121,9.121,9.121,9.121,9.121,9.121,9.121,9.121,9.121,9.121,9.0905,9.0743,9.0743,9.0467,9.0332,9.0332,8.9645,8.9095,8.8715,8.8015,8.7651,8.7651,8.7214,8.6978,8.6978,8.6978,8.6978,8.6978,8.6978,8.6978,8.6978,8.6978,8.6978,8.6978,8.6978,8.6978,8.6978,8.6978,8.6978,8.6978,8.6978,8.6978,8.6978,0.0,7.1804,7.1869,7.1803,7.1459,7.1194,7.1082,7.0763,7.0675,0.0,7.1119,7.0487,6.8987,6.7588,0.0,0.0,6.5545,6.5999,6.737,6.759,6.8591,7.0574,7.1603,7.2359,7.2921,7.2932,7.2932,7.2932,7.2122,7.1778,7.1891,7.2644,7.3016,7.3016,7.3792,7.4104,7.3991,7.3291,7.3726,7.5173,7.8303,7.8757,7.7838,8.0478,8.0655,7.9666,8.1219,8.1661,8.1972,8.5005,8.4551,8.2706,8.2868,8.0061,7.664,7.6154,7.6207,7.6361,7.6092,0.0,0.0,7.6938,7.6553,0.0,8.1716,8.2832,8.4055,8.8085,8.9547,9.0171,9.0441,9.0517,9.0479,9.0364,9.0671,9.0979,9.1171,9.121,9.121,9.121,9.121,9.121,9.121,9.0518,9.0116,9.0116,8.9462,8.9082,8.9003,8.8403,8.8061,8.7969,8.7328,8.6978,8.6978,8.6978,8.6978,8.6978,8.6978,8.6978,8.6978,8.6978,8.6978,8.6978,8.6978,8.6978,8.6978,8.6978,8.6978,8.6978,8.6978,8.6978,8.6978,8.6978,8.6978,8.6978,7.2107,7.2583,7.292,7.2422,7.2793,7.293,7.229,7.2655,7.3031,7.3137,7.2599,7.1812,7.0855,6.9371,0.0,0.0,6.7026,6.6109,6.5778,6.699,6.8195,6.9235,7.0684,7.1821,7.2585,7.2585,7.2585,7.2585,7.2198,7.2396,7.3067,7.3022,7.2989,7.3021,7.3177,7.2886,7.2342,7.28,7.4255,7.6219,7.6301,7.7029,7.8251,8.0111,8.1122,8.1729,8.2579,8.2849,8.2813,8.2649,8.3109,8.3197,7.979,7.9877,8.0525,7.7016,7.7438,7.8631,7.6553,0.0,0.0,7.6207,7.613,0.0,7.7246,7.8015,7.9323,8.2208,8.2939,8.3708,8.5747,8.6132,8.5901,8.5209,8.741,8.9671,9.1018,9.121,9.121,9.121,9.121,9.121,9.121,9.0518,9.0116,9.0116,8.9462,8.8869,8.8323,8.8182,8.7836,8.7231,8.7081,8.6978,8.6978,8.6978,8.6978,8.6978,8.6978,8.6978,8.6978,8.6978,8.6978,8.6978,8.6978,8.6978,8.6978,8.6978,8.6978,8.6978,8.6978,8.6978,8.6978,8.6978,8.6978,8.6978,7.2354,7.2634,7.2982,7.3082,7.3413,7.3707,7.3707,7.4037,7.4294,7.4294,7.3266,7.2188,7.138,6.9839,0.0,0.0,0.0,0.0,6.7086,6.8238,6.9096,6.9486,7.105,7.1894,7.1894,7.2312,7.2496,7.2496,7.2369,7.2523,7.2957,7.2804,7.3403,7.4483,7.3292,7.3204,7.3875,7.3105,7.3465,7.4707,7.6618,7.8695,8.0814,8.2103,8.2692,8.2823,8.3182,8.33,8.3172,8.2484,8.2022,8.1618,8.1007,8.0515,7.9836,7.7917,7.8249,7.8769,7.6601,7.6015,7.6015,7.6015,7.6015,0.0,0.0,7.79,7.9285,8.1823,8.2362,8.2747,8.4016,8.4247,8.4093,8.3678,8.6102,8.8171,8.8594,9.0133,9.121,9.121,9.121,9.1073,9.0704,9.0017,8.9301,8.8598,8.8256,8.7923,8.757,8.7538,8.7378,8.6995,8.6978,8.6978,8.6978,8.6978,8.6978,8.6978,8.6978,8.6978,8.6978,8.6978,8.6978,8.6978,8.6978,8.6978,8.6978,8.6978,8.6978,8.6978,8.6978,8.6978,8.6978,8.6978,8.6978,8.6978,7.2496,7.2496,7.2753,7.3575,7.3817,7.4147,7.4793,7.5014,7.5087,7.4903,7.4184,7.3377,7.2555,7.1307,0.0,0.0,0.0,0.0,6.9362,7.011,7.0624,7.077,7.1578,7.2092,7.2224,7.2261,7.2349,7.2496,7.2496,7.2496,7.2496,7.2496,7.345,7.5139,7.378,7.3927,7.5102,7.378,7.3487,7.4243,7.7971,8.0285,8.1682,8.3296,8.3491,8.3014,8.3454,8.3638,8.3521,8.277,8.1388,8.0242,8.1956,8.0843,7.8792,7.8172,7.8579,7.8733,7.6578,7.613,7.6207,7.6053,7.613,7.6553,0.0,0.0,0.0,8.1947,8.2255,8.2139,8.2139,8.1985,8.1908,8.1908,8.4324,8.594,8.5247,8.7978,9.0151,9.0432,9.0902,9.0866,8.998,8.8985,8.8014,8.7078,8.6721,8.6647,8.6978,8.6978,8.6978,8.6978,8.6978,8.6978,8.6978,8.6978,8.6978,8.6978,8.6978,8.6978,8.6978,8.6978,8.6978,8.6978,8.6978,8.6978,8.6978,8.6978,8.6978,8.6978,8.6978,8.6978,8.6978,8.6978,8.6978,8.6978,7.2496,7.2496,7.2753,7.3575,7.4294,7.4793,7.4903,7.5506,7.5726,7.4977,7.668,7.7598,7.6702,7.6481,7.6298,7.6225,7.4903,7.3215,7.116,7.1784,7.2532,7.3281,7.1431,7.1982,7.5469,7.2848,7.1784,7.2496,7.2496,7.2496,7.2496,7.2496,7.2261,7.1967,7.4551,7.4258,7.2004,7.4588,7.6974,7.9008,7.9543,7.8177,7.6235,7.9979,8.1342,8.1562,8.3691,8.4462,8.4128,8.1955,8.1513,8.1281,7.7838,7.9437,8.1647,7.6916,7.8123,8.0268,7.6893,7.6553,7.6984,7.6207,7.6592,7.6984,7.6438,0.0,7.7676,7.7946,0.0,7.6861,7.6861,0.0,0.0,7.5707,7.9169,8.1785,8.167,8.4094,8.6375,8.7667,8.9825,9.0627,8.9168,8.7169,8.6279,8.6953,8.5673,8.549,8.6904,8.6978,8.6978,8.6978,8.6978,8.6978,8.6978,8.6978,8.6978,8.6978,8.6978,8.6978,8.6978,8.6978,8.6978,8.6978,8.6978,8.6978,8.6978,8.6978,8.6978,8.6978,8.6978,8.6978,8.6978,8.6978,8.6978,8.6978,7.2496,7.2899,7.3303,7.3648,7.4735,7.5616,7.5616,7.6717,7.7414,7.7084,7.7965,7.8259,7.7399,7.6481,7.6114,7.6555,7.5564,7.428,7.2789,7.3891,7.3707,7.1688,7.1982,7.2532,7.3289,7.2445,7.2151,7.2496,7.2496,7.2496,7.2496,7.2496,7.3083,7.4133,7.5506,7.6166,7.624,7.613,7.668,7.7635,7.7635,7.6827,7.624,8.2207,8.4205,8.3838,8.4389,8.4609,8.4462,8.3434,8.1746,8.0304,8.128,8.0421,7.8858,7.7891,7.8158,0.0,7.5702,7.6284,7.7331,7.6018,7.69,7.7661,7.5876,7.5403,7.545,7.5994,0.0,0.0,0.0,0.0,0.0,0.0,7.8284,8.0746,7.9708,8.199,8.4336,8.5915,8.677,8.7141,8.7007,8.5782,8.5558,8.6902,8.5527,8.5306,8.6904,8.6978,8.6978,8.6978,8.6978,8.6978,8.6978,8.6978,8.6978,8.6978,8.6978,8.6978,8.6978,8.6978,8.6978,8.6978,8.6978,8.6978,8.6978,8.6978,8.6978,8.6978,8.6978,8.6978,8.6978,8.6978,8.6978,8.6978,7.2789,7.3303,7.378,7.4001,7.5175,7.624,7.6717,7.7818,7.8662,7.8883,7.8919,7.8846,7.8647,7.7582,7.7304,7.8332,7.7892,7.7047,7.5763,7.6166,7.5542,7.3487,7.2973,7.301,7.3619,7.2679,7.2275,7.2496,7.2496,7.2496,7.2496,7.2496,7.345,7.5139,7.6056,7.7304,7.8751,7.7818,7.7708,7.8112,7.8112,7.8516,7.958,8.4242,8.6077,8.604,8.549,8.527,8.5159,8.4499,8.2333,8.0424,8.3251,8.1195,7.8045,7.932,0.0,0.0,7.59,7.6738,7.7745,7.5667,7.6527,7.7222,7.5038,7.4258,7.4115,7.4515,7.3303,0.0,0.0,0.0,0.0,0.0,0.0,7.8867,7.7833,7.9504,8.1499,8.3262,8.3392,8.3748,8.4841,8.393,8.4132,8.617,8.4866,8.4829,8.6867,8.6978,8.6978,8.6978,8.6978,8.6978,8.6978,8.6978,8.6978,8.6978,8.6978,8.6978,8.6978,8.6978,8.6978,8.6978,8.6978,8.6978,8.6978,8.6978,8.6978,8.6978,8.6978,8.6978,8.6978,8.6978,8.6978,8.6978,7.3487,7.3685,7.3927,7.472,7.5542,7.6644,7.8259,7.8552,7.8883,7.9669,7.9779,8.033,8.1856,8.2003,8.259,8.4205,8.4315,8.3287,8.0938,7.8573,7.861,8.1672,7.4368,7.312,7.9376,7.4147,7.1711,7.2496,7.2496,7.2496,7.2496,7.2496,7.2532,7.2753,7.5858,7.6885,7.6423,7.9543,8.1729,8.3161,8.3161,8.4555,8.6427,8.4298,8.4959,8.6941,8.6904,8.6904,8.6574,8.4225,8.3344,8.2867,8.0697,8.0918,8.1817,8.0865,8.1683,8.2174,7.87,7.8412,7.8284,7.5112,7.4967,7.5178,7.343,7.3684,7.4061,7.3242,7.301,0.0,0.0,0.0,0.0,0.0,0.0,0.0,0.0,0.0,0.0,7.8865,8.0188,8.1531,8.3111,8.1249,8.1285,8.4425,8.3177,8.3654,8.6831,8.6978,8.6978,8.6978,8.6978,8.6978,8.6978,8.6978,8.6978,8.6978,8.6978,8.6978,8.6978,8.6978,8.6978,8.6978,8.6978,8.6978,8.6978,8.6978,8.6978,8.6978,8.6978,8.6978,8.6978,8.6978,8.6978,8.6978,7.3648,7.3722,7.3964,7.4757,7.6004,7.7289,7.8442,7.9507,8.0461,8.1269,8.1856,8.259,8.3654,8.3324,8.3654,8.5233,8.4903,8.4022,8.2684,8.1305,8.0571,8.0624,7.5909,7.4551,7.7304,7.3891,7.2239,7.2496,7.3046,7.3303,7.3303,7.3303,7.3303,7.3413,7.6114,7.7766,7.8678,8.0314,8.1913,8.3381,8.3381,8.4188,8.5453,8.5693,8.628,8.6978,8.6978,8.6978,8.6867,8.606,8.4702,8.3528,8.4315,8.2737,8.0745,8.146,8.1317,8.064,7.9467,8.0526,8.103,7.7241,7.7189,7.7092,7.3324,7.2288,7.2026,7.1727,7.138,0.0,0.0,0.0,0.0,0.0,0.0,0.0,0.0,0.0,7.4535,0.0,0.0,0.0,0.0,0.0,8.226,8.4425,8.4095,8.4719,8.6867,8.6978,8.6978,8.6978,8.6978,8.6978,8.6978,8.6978,8.6978,8.6978,8.6978,8.6978,8.6978,8.6978,8.6978,8.6978,8.6978,8.6978,8.6978,8.6978,8.6978,8.6978,8.6978,8.6978,8.6978,8.6978,8.6978,8.6978,7.3722,7.3927,7.4294,7.4793,7.6481,7.8133,7.9286,8.0571,8.1709,8.2517,8.3087,8.3821,8.4903,8.4315,8.4462,8.6077,8.5747,8.5013,8.3895,8.3067,8.2296,8.1542,7.8369,7.7304,7.8662,7.6056,7.4515,7.4206,7.4441,7.4404,7.4111,7.3817,7.3722,7.3795,7.5601,7.7708,7.989,8.0975,8.27,8.4665,8.4665,8.4996,8.5563,8.6628,8.6647,8.6207,8.6794,8.6978,8.6978,8.6978,8.595,8.4959,8.65,8.4866,8.2553,8.3618,8.3177,8.215,8.1305,8.2223,8.2574,7.905,7.8883,7.8422,7.4128,7.2979,7.272,7.246,7.1618,0.0,0.0,0.0,0.0,0.0,0.0,0.0,0.0,7.3352,0.0,0.0,0.0,0.0,0.0,0.0,0.0,8.4792,8.4242,8.4719,8.6867,8.6978,8.6978,8.6978,8.6978,8.6978,8.6978,8.6978,8.6978,8.6978,8.6978,8.6978,8.6978,8.6978,8.6978,8.6978,8.6978,8.6978,8.6978,8.6978,8.6978,8.6978,8.6978,8.6978,8.6978,8.6978,8.6978,8.6978,7.3832,7.4515,7.5087,7.5124,7.7084,7.9213,8.0828,8.1746,8.2553,8.3344,8.3491,8.4132,8.5673,8.5196,8.5343,8.6867,8.6978,8.6354,8.4829,8.3931,8.3821,8.4682,8.1599,8.0975,8.3344,8.0167,7.8112,7.7362,7.6497,7.5689,7.5014,7.4184,7.3832,7.3854,7.4661,7.6827,7.9963,8.1562,8.4095,8.6978,8.6978,8.6941,8.6867,8.6978,8.5987,8.4829,8.6444,8.6978,8.6978,8.6978,8.6978,8.6978,8.6978,8.6978,8.6978,8.6978,8.6978,8.65,8.4188,8.3564,8.2977,8.0587,7.9963,7.9082,7.5821,7.5689,7.6019,7.5234,7.3891,7.4478,0.0,0.0,0.0,0.0,0.0,0.0,0.0,0.0,0.0,0.0,0.0,0.0,0.0,0.0,0.0,0.0,8.3618,0.0,0.0,8.7014,8.6978,8.7051,8.7051,8.7014,8.6978,8.6978,8.6978,8.6978,8.6978,8.6978,8.6978,8.6978,8.6978,8.6978,8.6978,8.6978,8.6978,8.6978,8.6978,8.6978,8.6978,8.6978,8.6978,8.6978,8.6978,8.6978,7.5469,7.6644,7.7855,7.8442,7.9082,8.0036,8.1636,8.259,8.3398,8.4205,8.4792,8.5563,8.6591,8.6518,8.6537,8.6941,8.6978,8.6794,8.639,8.5086,8.4939,8.6317,8.2737,8.1525,8.3344,7.9029,7.7231,7.8259,7.6203,7.5711,7.6665,7.5873,7.5469,7.5506,7.6335,7.817,8.0791,8.2406,8.4592,8.6978,8.6978,8.628,8.5343,8.6537,8.5987,8.4829,8.6444,8.6978,8.6978,8.6978,8.6978,8.6978,8.6978,8.6978,8.6978,8.6978,8.6978,8.6867,8.6244,8.606,8.551,8.3104,8.2039,8.0865,7.8259,7.7818,7.7892,7.7708,7.7781,7.7818,7.7414,7.6166,0.0,0.0,0.0,0.0,0.0,0.0,0.0,7.3597,0.0,0.0,0.0,0.0,0.0,0.0,0.0,0.0,8.8629,8.7068,8.6664,8.7839,8.7876,8.7619,8.7014,8.6978,8.6978,8.6978,8.6978,8.6978,8.6978,8.6978,8.6978,8.6978,8.6978,8.6978,8.6978,8.6978,8.6978,8.6978,8.6978,8.6978,8.6978,8.6978,8.6978,8.6978,7.5711,7.7194,7.9066,8.0587,8.1122,8.1782,8.3067,8.3361,8.3675,8.4499,8.5306,8.5967,8.6444,8.6811,8.6978,8.6978,8.6978,8.6684,8.6004,8.5783,8.5747,8.593,8.4462,8.4042,8.4959,8.1929,8.0461,8.0718,7.8589,7.7656,7.7839,7.6644,7.6093,7.613,7.6922,7.8463,8.0645,8.3324,8.5049,8.6004,8.6738,8.6464,0.0,8.6647,8.6427,8.5783,8.6647,8.6978,8.6978,8.6978,8.6978,8.6978,8.6978,8.6978,8.6978,8.6978,8.6978,8.6978,8.6978,8.6978,8.6647,8.5289,8.4629,8.3654,8.1269,8.0718,8.0718,8.0718,8.0204,8.0147,8.1195,7.8479,7.5322,0.0,0.0,0.0,0.0,0.0,0.0,0.0,7.4808,0.0,0.0,0.0,0.0,0.0,0.0,8.6004,8.7729,8.6885,8.6885,8.8169,8.8536,8.8152,8.7014,8.7344,8.7344,8.6978,8.6978,8.6978,8.6978,8.6978,8.6978,8.6978,8.6978,8.6978,8.6978,8.6978,8.6978,8.6978,8.6978,8.6978,8.6978,8.6978,8.6978,8.6978,7.5821,7.7524,7.9874,8.1856,8.2957,8.3821,8.4646,8.4168,8.3968,8.4682,8.5453,8.6004,8.6094,8.6738,8.7178,8.7178,8.7178,8.6518,8.5013,8.6207,8.639,8.4976,8.6244,8.6978,8.6978,8.6004,8.4866,8.3564,8.1636,8.0021,7.8699,7.7047,7.6276,7.6276,7.7105,7.85,8.0514,8.4095,8.5343,8.5049,8.6427,8.6978,8.6978,8.6978,8.6978,8.6978,8.6978,8.6978,8.6978,8.6978,8.6978,8.6978,8.6978,8.6978,8.6978,8.6978,8.6978,8.6978,8.6978,8.6978,8.6978,8.6978,8.6978,8.6427,8.4335,8.3858,8.3858,8.3858,8.2186,8.2166,8.6738,8.1562,7.5799,0.0,0.0,0.0,0.0,0.0,0.0,0.0,0.0,0.0,0.0,0.0,0.0,0.0,0.0,0.0,8.6187,8.6518,8.7215,8.8316,8.8923,8.8519,8.7014,8.7692,8.7692,8.6978,8.6978,8.6978,8.6978,8.6978,8.6978,8.6978,8.6978,8.6978,8.6978,8.6978,8.6978,8.6978,8.6978,8.6978,8.6978,8.6978,8.6978,8.6978,7.9008,8.0901,8.2463,8.2223,8.3398,8.4646,8.5453,8.5453,8.5416,8.5563,8.6297,8.7031,8.7692,8.7912,8.7986,8.7986,8.7986,8.7582,8.6664,8.6831,8.6867,8.6574,8.6831,8.6978,8.6978,8.4922,8.4022,8.4389,8.0791,7.9213,7.9559,7.7876,7.7105,7.7142,7.8002,8.0021,8.2867,8.4242,8.549,8.6611,8.6867,8.6978,8.6978,8.6978,8.6978,8.6978,8.6978,8.6978,8.6978,8.6978,8.6978,8.6978,8.6978,8.6978,8.6978,8.6978,8.6978,8.6978,8.6978,8.6978,8.6978,8.6978,8.6978,8.6867,8.6464,8.6354,8.6354,8.6354,8.6023,8.5453,8.4409,8.1452,7.8332,7.5873,0.0,0.0,0.0,0.0,0.0,0.0,0.0,0.0,0.0,0.0,0.0,0.0,0.0,0.0,8.8556,8.6407,8.628,8.9106,8.8683,8.7949,8.7014,8.7124,8.7124,8.6978,8.6978,8.6978,8.6978,8.6978,8.6978,8.6978,8.6978,8.6978,8.6978,8.6978,8.6978,8.6978,8.6978,8.6978,8.6978,8.6978,8.6978,8.6978,8.2113,8.2884,8.3528,8.3985,8.5049,8.6114,8.6921,8.7399,8.7362,8.6518,8.7142,8.7766,8.8169,8.8573,8.8812,8.8812,8.8812,8.8666,8.8262,8.8225,8.8225,8.8225,8.8225,8.8225,8.8225,8.7124,8.5877,8.4609,8.2663,8.0828,7.914,7.8369,7.7729,7.7399,7.9507,8.1342,8.2957,8.5416,8.6664,8.7051,8.7895,8.8225,8.8225,8.8225,8.8225,8.8189,8.7766,8.7619,8.7582,8.7124,8.6978,8.6978,8.6978,8.6978,8.6978,8.6978,8.6978,8.6978,8.6978,8.6978,8.6978,8.6978,8.6978,8.6978,8.6978,8.6978,8.6978,8.6978,8.6978,8.6244,8.3821,8.1415,7.9412,7.8201,7.7304,0.0,0.0,0.0,0.0,0.0,0.0,0.0,0.0,0.0,0.0,0.0,0.0,0.0,0.0,8.6904,8.6941,8.9326,8.9436,8.8683,8.7014,8.7435,8.7435,8.6978,8.6978,8.6978,8.6978,8.6978,8.6978,8.6978,8.6978,8.6978,8.6978,8.6978,8.6978,8.6978,8.6978,8.6978,8.6978,8.6978,8.6978,8.6978,8.4609,8.4499,8.4555,8.582,8.6738,8.7472,8.8096,8.905,8.9143,8.7711,8.8042,8.8536,8.8683,8.929,8.9657,8.9657,8.9657,8.9583,8.94,8.94,8.94,8.94,8.94,8.94,8.94,8.94,8.8078,8.538,8.4866,8.281,7.936,7.9029,7.8662,7.8427,8.0681,8.226,8.3434,8.6591,8.7802,8.7601,8.8886,8.94,8.94,8.94,8.94,8.9326,8.8683,8.8353,8.8096,8.7472,8.7124,8.6978,8.6978,8.6978,8.6978,8.6978,8.6978,8.6978,8.6978,8.6978,8.6978,8.6978,8.6978,8.6978,8.6978,8.6978,8.6978,8.6978,8.6978,8.6244,8.3821,8.226,8.1064,8.0183,7.925,0.0,0.0,0.0,0.0,0.0,0.0,0.0,0.0,0.0,0.0,0.0,0.0,0.0,8.7766,8.7362,8.7748,8.9363,8.9657,8.894,8.7014,8.7619,8.7619,8.6978,8.6978,8.6978,8.6978,8.6978,8.6978,8.6978,8.6978,8.6978,8.6978,8.6978,8.6978,8.6978,8.6978,8.6978,8.6978,8.6978,8.6978,8.6978,8.5654,8.6224,8.6721,8.6885,8.7545,8.8096,8.8206,8.9491,9.017,8.929,8.9253,8.9583,9.0298,9.0445,9.0482,9.0482,9.0482,9.017,8.9436,8.94,8.94,8.94,8.94,8.94,8.94,8.94,8.8886,8.7876,8.5673,8.3654,8.1819,8.0367,8.044,8.1672,8.055,8.2443,8.6574,8.6941,8.7895,8.9179,8.9326,8.94,8.94,8.94,8.94,8.94,8.9326,8.8812,8.8206,8.8096,8.7619,8.6978,8.6978,8.6978,8.6978,8.6978,8.6978,8.6978,8.6978,8.6978,8.6978,8.6978,8.6978,8.6978,8.6978,8.6978,8.6978,8.6978,8.6978,8.6244,8.3821,8.4996,8.5123,8.1489,8.1986,8.3675,0.0,0.0,0.0,0.0,0.0,0.0,0.0,7.839,0.0,0.0,8.3398,0.0,8.6958,8.7014,8.7748,8.9363,8.8042,8.7234,8.6978,8.7051,8.7051,8.6978,8.6978,8.6978,8.6978,8.6978,8.6978,8.6978,8.6978,8.6978,8.6978,8.6978,8.6978,8.6978,8.6978,8.6978,8.6978,8.6978,8.6978,8.6978,8.7986,8.7839,8.8023,8.8996,8.9033,8.9271,9.0225,9.0922,9.1216,9.0886,9.0849,9.0959,9.1289,9.1326,9.1326,9.1326,9.1326,9.1179,9.0849,9.0849,9.0849,9.0849,9.0849,9.0849,9.0849,9.0849,8.9968,8.8206,8.6738,8.4499,8.1489,8.1819,8.2553,8.3691,8.4462,8.5894,8.7839,8.9271,9.0262,9.0849,9.0849,9.0849,9.0849,9.0849,9.0849,9.0776,9.028,8.9931,8.9564,8.9069,8.8042,8.6978,8.6978,8.6978,8.6978,8.6978,8.6978,8.6978,8.6978,8.6978,8.6978,8.6978,8.6978,8.6978,8.6978,8.6978,8.6978,8.6978,8.6978,8.6721,8.573,8.5179,8.4776,8.4629,8.4335,8.4976,0.0,0.0,0.0,0.0,0.0,0.0,0.0,0.0,0.0,0.0,0.0,0.0,8.6757,8.6554,8.6811,8.7932,8.7802,8.7509,8.6978,8.6978,8.6978,8.6978,8.6978,8.6978,8.6978,8.6978,8.6978,8.6978,8.6978,8.6978,8.6978,8.6978,8.6978,8.6978,8.6978,8.6978,8.6978,8.6978,8.6978,8.6978,8.9693,8.9307,8.9344,9.0702,9.0464,9.0482,9.162,9.1803,9.1803,9.1803,9.1803,9.1803,9.1803,9.1803,9.1803,9.1803,9.1803,9.1803,9.1803,9.1803,9.1803,9.1803,9.1803,9.1803,9.1803,9.1803,9.0959,8.9271,8.8243,8.6133,8.3141,8.3308,8.4335,8.6077,8.7288,8.839,8.9381,9.1069,9.1803,9.1803,9.1803,9.1803,9.1803,9.1803,9.1803,9.173,9.1179,9.0812,9.0519,8.995,8.8849,8.7675,8.7418,8.7215,8.6978,8.6978,8.6978,8.6978,8.6978,8.6978,8.6978,8.6978,8.6978,8.6978,8.6978,8.6978,8.6978,8.6978,8.6978,8.6978,8.6978,8.562,8.4849,8.6114,8.5747,8.582,8.7288,8.828,0.0,0.0,0.0,0.0,8.6701,8.4609,0.0,0.0,0.0,8.2443,8.6114,8.6187,8.6518,8.7325,8.7655,8.7582,8.7014,8.6978,8.6978,8.6978,8.6978,8.6978,8.6978,8.6978,8.6978,8.6978,8.6978,8.6978,8.6978,8.6978,8.6978,8.6978,8.6978,8.6978,8.6978,8.6978,8.6978,8.6978,9.0445,9.0592,9.0849,9.1657,9.1767,9.1767,9.1803,9.1803,9.1803,9.1803,9.1803,9.1803,9.1803,9.1803,9.1803,9.1803,9.1803,9.1803,9.1803,9.1803,9.1803,9.1803,9.1803,9.1803,9.1803,9.1803,9.1767,9.1767,9.0134,8.8923,8.8023,8.4903,8.5546,8.9253,8.7711,8.8793,9.1767,9.1803,9.1803,9.1803,9.1803,9.1803,9.1803,9.1803,9.1803,9.1803,9.1803,9.1253,9.0592,9.0592,9.0024,8.9216,8.8426,8.7655,8.6978,8.6978,8.6978,8.6978,8.6978,8.6978,8.6978,8.6978,8.6978,8.6978,8.6978,8.6978,8.6978,8.6978,8.6978,8.6978,8.6978,8.6978,8.6444,8.4903,8.5967,8.6701,8.593,8.5159,0.0,8.5747,8.0885,7.9674,8.527,8.0718,0.0,8.6464,8.4702,8.3711,8.4572,8.6151,8.7344,8.8169,8.7435,8.7014,8.6978,8.6978,8.6978,8.6978,8.6978,8.6978,8.6978,8.6978,8.6978,8.6978,8.6978,8.6978,8.6978,8.6978,8.6978,8.6978,8.6978,8.6978,8.6978,8.6978,8.6978,8.6978,9.1363,9.1436,9.151,9.1767,9.1803,9.1987,9.2611,9.2684,9.2868,9.3418,9.3492,9.3492,9.3492,9.2464,9.1803,9.1803,9.1803,9.1803,9.1803,9.1803,9.1803,9.1803,9.1803,9.1803,9.1803,9.1803,9.1803,9.1803,9.017,8.9253,8.8959,8.7435,8.8243,9.1033,9.0482,9.0849,9.1803,9.1803,9.1803,9.1803,9.1803,9.1803,9.1803,9.1803,9.1803,9.1803,9.1803,9.1657,9.1436,9.1436,9.0886,9.017,8.9931,8.8904,8.7839,8.7839,8.7435,8.6978,8.6978,8.6978,8.6978,8.6978,8.6978,8.6978,8.6978,8.6978,8.6978,8.6978,8.6978,8.6978,8.6978,8.6978,8.6831,8.6334,8.6664,8.6904,8.6664,8.6885,8.6958,8.6664,8.5987,8.584,8.6554,8.4959,8.4078,8.4519,8.4335,8.4352,8.4609,8.56,8.6297,8.6554,8.6848,8.6978,8.6978,8.6978,8.6978,8.6978,8.6978,8.6978,8.6978,8.6978,8.6978,8.6978,8.6978,8.7325,8.7839,8.7839,8.8115,8.8592,8.8023,8.7839,8.7766,8.7198,8.6978,8.6978,9.2207,9.2281,9.2391,9.2684,9.2721,9.2905,9.3455,9.3565,9.3712,9.4226,9.4299,9.4299,9.4299,9.3088,9.2281,9.2281,9.1987,9.1803,9.1803,9.1803,9.1803,9.1803,9.1803,9.1803,9.1803,9.1803,9.1803,9.1803,9.0812,9.028,9.028,8.9784,9.0372,9.1803,9.1803,9.1803,9.1803,9.1803,9.1803,9.1803,9.1803,9.1803,9.1803,9.1803,9.1803,9.1803,9.1803,9.1803,9.1803,9.1803,9.1473,9.1069,9.1069,9.0152,8.8977,8.839,8.7839,8.7399,8.7088,8.6978,8.6978,8.6978,8.6978,8.6978,8.6978,8.6978,8.6978,8.6978,8.6978,8.6978,8.6978,8.6978,8.6978,8.6978,8.6978,8.6978,8.6978,8.7435,8.7252,8.5803,8.6537,8.6757,8.573,8.5656,8.5399,8.4812,8.5233,8.549,8.549,8.5673,8.593,8.6224,8.6738,8.6978,8.6978,8.6978,8.6978,8.6978,8.6978,8.6978,8.7014,8.7325,8.7472,8.7472,8.7748,8.8189,8.8647,8.8647,8.8959,8.9363,8.8849,8.8647,8.861,8.8078,8.7895,8.7858,9.2941,9.3125,9.3418,9.4153,9.4299,9.4299,9.4373,9.4373,9.441,9.4446,9.4446,9.4446,9.4446,9.3749,9.3272,9.3272,9.2354,9.1803,9.1803,9.1803,9.1803,9.1803,9.1803,9.1803,9.1803,9.1803,9.1803,9.1803,9.1803,9.1803,9.1803,9.1803,9.1803,9.1803,9.1803,9.1803,9.1803,9.1803,9.1803,9.1803,9.1803,9.1803,9.1803,9.1803,9.1803,9.1803,9.1803,9.1803,9.1803,9.1803,9.1803,9.1803,9.1803,9.1289,9.0372,8.883,8.8316,8.8133,8.7344,8.7124,8.7088,8.7088,8.7014,8.6978,8.6978,8.6978,8.6978,8.6978,8.6978,8.6978,8.6978,8.6978,8.6978,8.6978,8.6978,8.6978,8.6978,8.6978,8.617,8.3931,8.3638,8.3638,8.3638,8.3638,8.4555,8.6757,8.6978,8.6978,8.6904,8.6261,8.6224,8.6978,8.6978,8.6978,8.6978,8.6978,8.6978,8.6978,8.7051,8.7088,8.7088,8.7912,8.828,8.8316,8.9069,8.9436,8.9473,8.9473,8.951,8.9546,8.951,8.9473,8.9473,8.9436,8.94,8.929,9.3051,9.3602,9.4079,9.4263,9.4299,9.452,9.5144,9.5217,9.5437,9.6061,9.6135,9.6135,9.6135,9.5401,9.4941,9.4941,9.3015,9.1803,9.1803,9.1803,9.1803,9.1803,9.1803,9.1803,9.1803,9.1803,9.1803,9.1803,9.1803,9.1803,9.1803,9.1803,9.1803,9.1803,9.1803,9.1803,9.1803,9.1803,9.1803,9.1803,9.1803,9.1803,9.1803,9.1803,9.1803,9.1803,9.1803,9.1803,9.1803,9.1803,9.1803,9.1803,9.1803,9.1657,9.1326,9.0335,8.9583,8.9069,8.8886,8.8372,8.7912,8.7912,8.7472,8.6978,8.6978,8.6978,8.6978,8.6978,8.6978,8.6978,8.6978,8.6978,8.6978,8.6978,8.6978,8.6978,8.6978,8.6978,8.6794,8.6207,8.6133,8.6133,8.6133,8.6133,8.6151,8.6077,8.6664,8.6738,8.6114,8.6481,8.6794,8.6978,8.6978,8.6978,8.6978,8.6978,8.6978,8.7014,8.7619,8.7912,8.7949,8.8739,8.9106,8.9143,8.9326,8.9767,9.0317,9.0317,9.0702,9.1179,9.0537,9.0317,9.0244,8.962,8.94,8.9363,9.4042,9.4556,9.496,9.5327,9.5401,9.5547,9.5988,9.6061,9.6208,9.6649,9.6685,9.6685,9.6685,9.5988,9.5492,9.5492,9.3932,9.2794,9.2427,9.2391,9.2207,9.1803,9.1803,9.1803,9.1803,9.1803,9.1803,9.1803,9.1803,9.1803,9.1803,9.1803,9.1803,9.1803,9.1803,9.1803,9.1803,9.1803,9.1803,9.1803,9.1803,9.1803,9.1803,9.1803,9.1803,9.1803,9.1803,9.1803,9.1803,9.1803,9.1803,9.1803,9.1803,9.1803,9.1693,9.1289,9.0592,8.9877,8.951,8.9069,8.8683,8.828,8.7876,8.7472,8.7088,8.6978,8.6978,8.6978,8.6978,8.6978,8.6978,8.6978,8.6978,8.6978,8.6978,8.6978,8.6978,8.6978,8.6978,8.6978,8.6978,8.6978,8.6978,8.6978,8.6811,8.6371,8.6775,8.6811,8.6371,8.6775,8.6978,8.6978,8.6978,8.6978,8.6978,8.6978,8.6978,8.7014,8.7839,8.8206,8.8243,8.9417,8.995,8.995,9.0317,9.0739,9.1143,9.1143,9.14,9.1767,9.1326,9.1143,9.1106,9.0665,9.0501,9.0427,9.5052,9.5511,9.5914,9.6575,9.6685,9.6685,9.6685,9.6685,9.6685,9.6685,9.6685,9.6685,9.6685,9.6098,9.5675,9.5675,9.507,9.4263,9.3345,9.3272,9.2905,9.2024,9.1987,9.1913,9.1803,9.1803,9.1803,9.1803,9.1803,9.1803,9.1803,9.1803,9.1803,9.1803,9.1803,9.1803,9.1803,9.1803,9.1803,9.1803,9.1803,9.1803,9.1803,9.1803,9.1803,9.1803,9.1803,9.1803,9.1803,9.1803,9.1803,9.1803,9.1803,9.1803,9.1803,9.1803,9.1326,9.0629,8.995,8.9657,8.94,8.8573,8.828,8.8023,8.7362,8.7088,8.6978,8.6978,8.6978,8.6978,8.6978,8.6978,8.6941,8.6848,8.6904,8.6941,8.6848,8.6904,8.6978,8.6978,8.6978,8.6978,8.6978,8.6978,8.6978,8.6978,8.6978,8.6978,8.6978,8.6978,8.6978,8.6978,8.6978,8.6978,8.6978,8.6978,8.7051,8.7215,8.7986,8.8426,8.861,9.0115,9.0776,9.0812,9.151,9.1803,9.1803,9.1803,9.1803,9.1803,9.1803,9.1803,9.1803,9.1803,9.1803,9.1693,9.4446,9.5584,9.6539,9.6685,9.6685,9.6685,9.6685,9.6685,9.6685,9.6685,9.6685,9.6685,9.6685,9.6575,9.6502,9.6502,9.6392,9.5694,9.4189,9.4116,9.3749,9.2941,9.2905,9.2537,9.1803,9.1803,9.1803,9.1803,9.1803,9.1803,9.1803,9.1803,9.1803,9.1803,9.1803,9.1803,9.1803,9.1803,9.1803,9.1803,9.1803,9.1803,9.1803,9.1803,9.1803,9.1803,9.1803,9.1803,9.1803,9.1803,9.1803,9.1803,9.1803,9.1803,9.1803,9.1803,9.1693,9.1583,9.1473,9.0922,9.0207,8.94,8.872,8.8169,8.8059,8.7509,8.6978,8.6978,8.6978,8.6978,8.6978,8.6978,8.6775,8.6077,8.6554,8.6775,8.6077,8.6591,8.6978,8.6978,8.6978,8.6978,8.6978,8.6978,8.6978,8.6978,8.6978,8.6978,8.6978,8.6978,8.6978,8.6978,8.6978,8.6978,8.6978,8.6978,8.7362,8.8023,8.8812,8.9546,9.0262,9.1179,9.162,9.162,9.173,9.1803,9.1803,9.1803,9.1803,9.1803,9.1803,9.1803,9.1803,9.1803,9.1803,9.1767,9.5511,9.6171,9.6685,9.6685,9.6685,9.6685,9.6685,9.6685,9.6685,9.6685,9.6685,9.6685,9.6685,9.6685,9.6685,9.6685,9.6685,9.6392,9.5621,9.518,9.4593,9.3786,9.3345,9.2684,9.1803,9.2244,9.2281,9.1803,9.2281,9.2244,9.1803,9.1803,9.1803,9.1803,9.1803,9.1803,9.1803,9.1803,9.1803,9.1803,9.1803,9.1803,9.1803,9.1803,9.1803,9.1803,9.1803,9.1803,9.1803,9.1803,9.1803,9.1803,9.1803,9.1803,9.1803,9.1803,9.1803,9.1803,9.1803,9.1546,9.1069,9.0244,8.9784,8.9381,8.894,8.8556,8.8299,8.8299,8.7932,8.7655,8.7655,8.7271,8.6867,8.6518,8.6775,8.6867,8.6518,8.6775,8.6978,8.6978,8.6978,8.6978,8.6978,8.6978,8.6978,8.6978,8.6978,8.6978,8.6978,8.6978,8.6978,8.6978,8.7435,8.7655,8.7655,8.8078,8.8482,8.8849,8.9657,9.0244,9.0629,9.1436,9.1803,9.1803,9.1803,9.1803,9.1803,9.1803,9.1803,9.1803,9.1803,9.1803,9.1803,9.1803,9.1803,9.1803,9.6318,9.6575,9.6685,9.6685,9.6685,9.6685,9.6685,9.6685,9.6685,9.6685,9.6685,9.6685,9.6685,9.6685,9.6685,9.6685,9.6685,9.6685,9.6685,9.6135,9.5437,9.4593,9.3639,9.2794,9.2134,9.2574,9.2464,9.1803,9.2464,9.2464,9.1803,9.1803,9.1803,9.1803,9.1803,9.1803,9.1803,9.1803,9.1803,9.1803,9.1803,9.1803,9.1803,9.1803,9.1803,9.1803,9.1803,9.1803,9.1803,9.1803,9.1803,9.1803,9.1803,9.1803,9.1803,9.1803,9.1803,9.1803,9.1803,9.1803,9.1657,9.1033,9.0739,9.0427,8.9803,8.9546,8.94,8.94,8.8923,8.85,8.85,8.7968,8.7491,8.7308,8.7418,8.7418,8.7051,8.7178,8.7198,8.7014,8.6978,8.6978,8.6978,8.6978,8.6978,8.6978,8.6978,8.7088,8.7288,8.7288,8.7344,8.7565,8.7986,8.828,8.85,8.9069,8.9473,8.9693,9.028,9.0702,9.0922,9.151,9.1803,9.1803,9.1803,9.1803,9.1803,9.1803,9.1803,9.1803,9.1803,9.1803,9.1803,9.1803,9.1803,9.1803,9.5565,9.6208,9.6685,9.6685,9.6685,9.6685,9.6685,9.6685,9.6685,9.6685,9.6685,9.6685,9.6685,9.6685,9.6685,9.6685,9.6685,9.6685,9.6685,9.6649,9.6245,9.5455,9.3932,9.3088,9.3015,9.2281,9.184,9.1803,9.184,9.184,9.1803,9.1803,9.1803,9.1803,9.1803,9.1803,9.1803,9.1803,9.1803,9.1803,9.1803,9.1803,9.1803,9.1803,9.1803,9.1803,9.1803,9.1803,9.1803,9.1803,9.1803,9.1803,9.1803,9.1803,9.1803,9.1803,9.1803,9.1803,9.1803,9.1803,9.1803,9.173,9.1143,9.0592,9.0537,8.995,8.94,8.94,8.9363,8.9326,8.9326,8.9253,8.8959,8.8243,8.8739,8.8702,8.7198,8.7655,8.7839,8.7088,8.6978,8.6978,8.6978,8.6978,8.6978,8.6978,8.6978,8.7325,8.8059,8.8096,8.8463,8.9216,8.8573,8.8573,8.929,8.9363,8.9767,9.0519,9.0592,9.0996,9.1693,9.1767,9.1803,9.1803,9.1803,9.1803,9.1803,9.1803,9.1803,9.1803,9.1803,9.1803,9.1803,9.1803,9.1803,9.1803,9.6245,9.6502,9.6685,9.6685,9.6685,9.6685,9.6685,9.6685,9.6685,9.6685,9.6685,9.6685,9.6685,9.6685,9.6685,9.6685,9.6685,9.6685,9.6685,9.6245,9.5621,9.4777,9.4153,9.3345,9.2317,9.2501,9.2354,9.1803,9.2354,9.2317,9.1803,9.1803,9.1803,9.1803,9.1803,9.1803,9.1803,9.1803,9.1803,9.1803,9.1803,9.1803,9.1803,9.1803,9.1803,9.1803,9.1803,9.1803,9.1803,9.1803,9.1803,9.1803,9.1803,9.1803,9.1803,9.1803,9.1803,9.1803,9.1803,9.1803,9.1803,9.1803,9.1583,9.1326,9.1326,9.1106,9.0886,9.0886,9.0482,9.0134,9.0134,8.973,8.929,8.8996,8.9216,8.9179,8.8556,8.8739,8.8812,8.8519,8.8059,8.7729,8.7729,8.7729,8.7545,8.7014,8.7932,8.8409,8.8206,8.8683,8.929,9.0097,8.9858,8.9858,9.0134,9.0629,9.1033,9.1326,9.1326,9.151,9.1803,9.1803,9.1803,9.1803,9.1803,9.1803,9.1803,9.1803,9.1803,9.1803,9.1803,9.1803,9.1803,9.1803,9.1803,9.1803,9.6123,9.5769,9.5508,9.5508,9.5508,9.5631,9.6027,9.5769,9.579,9.6608,9.6358,9.6242,9.6647,9.6685,9.6685,9.6685,9.6685,9.6685,9.6685,9.5951,9.5144,9.4336,9.4042,9.3382,9.2244,9.2537,9.2391,9.1803,9.2391,9.2391,9.1803,9.1803,9.1803,9.1803,9.1803,9.1803,9.1803,9.1803,9.1803,9.1803,9.1803,9.1803,9.1803,9.1803,9.1803,9.1803,9.1803,9.1803,9.1803,9.1803,9.1803,9.1803,9.1803,9.1803,9.1803,9.1803,9.1803,9.1803,9.1803,9.1803,9.1803,9.1803,9.1803,9.1803,9.1803,9.1803,9.1803,9.1803,9.1363,9.0996,9.0996,9.0537,9.0134,9.0134,9.0134,9.006,8.9803,8.9767,8.9693,8.9436,8.8923,8.8573,8.8573,8.8573,8.8353,8.7785,8.8776,8.9253,8.8977,8.9711,9.0391,9.0959,9.0996,9.0996,9.0996,9.151,9.1803,9.1803,9.1803,9.1803,9.1803,9.1803,9.1803,9.1803,9.1803,9.1803,9.1803,9.1803,9.1803,9.1803,9.1803,9.1803,9.1803,9.1803,9.1803,9.1803,9.4784,9.3787,9.2896,9.2896,9.2896,9.3317,9.4612,9.3719,9.381,9.6358,9.5586,9.5301,9.655,9.6666,9.6722,9.6666,9.6685,9.6685,9.6685,9.5951,9.5144,9.4299,9.3529,9.3088,9.3088,9.2244,9.1803,9.1803,9.1803,9.1803,9.1803,9.1803,9.1803,9.1803,9.1803,9.1803,9.1803,9.1803,9.1803,9.1803,9.1803,9.1803,9.1803,9.1803,9.1803,9.1803,9.1803,9.1803,9.1803,9.1803,9.1803,9.1803,9.1803,9.1803,9.1803,9.1803,9.1803,9.1803,9.1803,9.1803,9.1803,9.1803,9.1803,9.1803,9.1803,9.1803,9.1803,9.1803,9.1803,9.1803,9.1803,9.1803,9.1803,9.1803,9.1803,9.151,9.0739,9.0629,9.0317,8.951,8.94,8.94,8.94,8.94,8.94,8.94,8.94,8.9767,9.0592,9.1363,9.1803,9.1803,9.1803,9.1803,9.1803,9.1803,9.1803,9.1803,9.1803,9.1803,9.1803,9.1803,9.1803,9.1803,9.1803,9.1803,9.1803,9.1803,9.1803,9.1803,9.1803,9.1803,9.1803,9.1803,9.1803,9.1803,9.4784,9.3787,9.2896,9.2896,9.2896,9.3038,9.3409,9.3131,9.3178,9.3945,9.4467,9.4576,9.4079,9.5611,9.6358,9.5446,9.6183,9.6208,9.507,9.4777,9.4042,9.2611,9.2905,9.2831,9.2207,9.1913,9.1803,9.1803,9.1803,9.1803,9.1803,9.1803,9.1803,9.1803,9.1803,9.1803,9.1803,9.1803,9.1803,9.1803,9.1803,9.1803,9.1803,9.1803,9.1803,9.1803,9.1803,9.1803,9.1803,9.1803,9.1803,9.1803,9.1803,9.1803,9.1803,9.1803,9.1803,9.1803,9.1803,9.1803,9.1803,9.1803,9.1803,9.1803,9.1803,9.1803,9.1803,9.1803,9.1803,9.1803,9.1803,9.1803,9.1803,9.1803,9.1803,9.173,9.1473,9.1436,9.1363,9.1106,9.0592,9.0244,9.0244,9.0244,8.9987,8.9436,8.9913,9.0592,9.14,9.1657,9.1803,9.1803,9.1803,9.1803,9.1803,9.1803,9.1803,9.1803,9.1803,9.1803,9.1803,9.1803,9.1803,9.1803,9.1803,9.1803,9.1803,9.1803,9.1803,9.1803,9.1803,9.1803,9.1803,9.1803,9.1803,9.1803,9.3306,9.2273,9.1388,9.1388,9.1388,9.1565,9.2053,9.1741,9.1766,9.2778,9.3131,9.3213,9.2944,9.4256,9.5097,9.4806,9.5967,9.6135,9.485,9.4483,9.3712,9.2354,9.2501,9.2354,9.1803,9.1803,9.1803,9.1803,9.1803,9.1803,9.1803,9.1803,9.1803,9.1803,9.1803,9.1803,9.1803,9.1803,9.1803,9.1803,9.1803,9.1803,9.1803,9.1803,9.1803,9.1803,9.1803,9.1803,9.1803,9.1803,9.1803,9.1803,9.1803,9.1803,9.1803,9.1803,9.1803,9.1803,9.1803,9.1803,9.1803,9.1803,9.1803,9.1803,9.1803,9.1803,9.1803,9.1803,9.1803,9.1803,9.1803,9.1803,9.1803,9.1803,9.1803,9.1803,9.1803,9.1803,9.1803,9.1803,9.1363,9.1069,9.1069,9.1069,9.0886,9.0391,9.0812,9.1289,9.1767,9.1803,9.1803,9.1803,9.1803,9.1803,9.1803,9.1803,9.1803,9.1803,9.1803,9.1803,9.1803,9.1803,9.1803,9.1803,9.1803,9.1803,9.1803,9.1803,9.1803,9.1803,9.1803,9.1803,9.1803,9.1803,9.1803,9.1803,9.1022,8.9989,8.91,8.91,8.91,8.9511,9.0632,8.9853,8.9928,9.2248,9.164,9.1398,9.2442,9.2778,9.3317,9.4358,9.5647,9.6011,9.5113,9.4401,9.3633,9.2866,9.1949,9.1546,9.1638,9.1638,9.1694,9.1803,9.1675,9.1675,9.1803,9.1803,9.1803,9.1803,9.1803,9.1803,9.1803,9.1803,9.1803,9.1803,9.1803,9.1803,9.1803,9.1803,9.1803,9.1803,9.1803,9.1803,9.1803,9.1803,9.1803,9.1803,9.1803,9.1803,9.1803,9.1803,9.1803,9.1803,9.1803,9.1803,9.1803,9.1803,9.1803,9.1803,9.1803,9.1803,9.1803,9.1803,9.1803,9.1803,9.1803,9.1803,9.1803,9.1803,9.1803,9.1803,9.1803,9.1803,9.1803,9.1803,9.1803,9.1803,9.1803,9.1803,9.1803,9.1803,9.1803,9.1803,9.1803,9.1803,9.1803,9.1803,9.1803,9.1803,9.1803,9.1803,9.1803,9.1803,9.1803,9.1803,9.1803,9.1803,9.1803,9.1803,9.1803,9.1803,9.1803,9.1803,9.1803,9.1803,9.1803,9.1803,9.1803,9.1803,9.1803,9.1803,9.1022,8.9989,8.91,8.91,8.91,8.9212,8.9483,8.9295,8.9289,8.9853,9.0561,9.071,8.9982,9.1716,9.2611,9.189,9.2991,9.3135,9.1764,9.1492,9.119,9.067,8.9603,8.9432,9.0364,9.044,9.0905,9.1803,9.0868,9.0888,9.1803,9.1803,9.1803,9.1803,9.1803,9.1803,9.1803,9.1803,9.1803,9.1803,9.1803,9.1803,9.1803,9.1803,9.1803,9.1803,9.1803,9.1803,9.1803,9.1803,9.1803,9.1803,9.1803,9.1803,9.1803,9.1803,9.1803,9.1803,9.1803,9.1803,9.1803,9.1803,9.1803,9.1803,9.1803,9.1803,9.1803,9.1803,9.1803,9.1803,9.1803,9.1803,9.1803,9.1803,9.1803,9.1803,9.1803,9.1803,9.1803,9.1803,9.1803,9.1803,9.1803,9.1803,9.1803,9.1803,9.1803,9.1803,9.1803,9.1803,9.1803,9.1803,9.1803,9.1803,9.1803,9.1803,9.1803,9.1803,9.1803,9.1803,9.1803,9.1803,9.1803,9.1803,9.1803,9.1803,9.1803,9.1803,9.1803,9.1803,9.1803,9.1803,9.1803,9.1803,9.1803,9.1803,9.0089,8.9559,8.91,8.91,8.91,8.91,8.91,8.91,8.91,8.91,8.9697,8.9826,8.9184,9.0269,9.1065,9.1022,9.2151,9.2224,9.0689,9.0618,9.0182,8.9171,8.8535,8.8491,8.9135,8.8636,8.892,9.0067,9.0062,9.0062,9.0087,9.0676,9.0945,9.0945,9.0945,9.1249,9.1803,9.1803,9.1803,9.1803,9.1803,9.1803,9.1803,9.1803,9.1803,9.1803,9.1803,9.1803,9.1803,9.1803,9.1803,9.1803,9.1803,9.1803,9.1803,9.1803,9.1803,9.1803,9.1803,9.1803,9.1803,9.1803,9.1803,9.1803,9.1803,9.1803,9.1803,9.1803,9.1803,9.1803,9.1803,9.1803,9.1803,9.1803,9.1803,9.1803,9.1803,9.1803,9.1803,9.1803,9.1803,9.1803,9.1803,9.1803,9.1803,9.1803,9.1803,9.1803,9.1803,9.1803,9.1803,9.1803,9.1803,9.1803,9.1803,9.1803,9.1803,9.1803,9.1803,9.1803,9.1803,9.1803,9.1803,9.1803,9.1803,9.1803,9.1803,9.1803,9.1803,9.1803,9.1803,9.1803,9.1803,9.1803,9.1803,9.173,8.91,8.91,8.91,8.91,8.91,8.91,8.91,8.91,8.91,8.91,8.91,8.91,8.91,8.91,8.9504,9.0587,9.1536,9.1475,9.0069,8.9823,8.9213,8.7954,8.7677,8.7677,8.7884,8.6696,8.6769,8.8201,8.9028,8.9007,8.8223,8.9242,8.9683,8.9683,8.9683,9.0364,9.1472,9.1472,9.162,9.1803,9.1803,9.1803,9.1803,9.1803,9.1803,9.1803,9.1803,9.1803,9.1803,9.1803,9.1803,9.1803,9.1803,9.1803,9.1803,9.1803,9.1803,9.1803,9.1803,9.1803,9.1803,9.1803,9.1803,9.1803,9.1803,9.1803,9.1803,9.1803,9.1803,9.1803,9.1803,9.1803,9.1803,9.1803,9.1803,9.1803,9.1803,9.1803,9.1803,9.1803,9.1803,9.1803,9.1803,9.1803,9.1803,9.1803,9.1803,9.1803,9.1803,9.1803,9.1803,9.1803,9.1803,9.1803,9.1803,9.1803,9.1803,9.1803,9.1803,9.1803,9.1803,9.1803,9.1803,9.1803,9.1803,9.1803,9.1803,9.1803,9.1803,9.1803,9.1803,9.1803,9.1803,9.1803,9.1803,9.1693,8.91,8.91,8.91,8.91,8.91,8.91,8.91,8.91,8.91,8.91,8.91,8.91,8.91,8.91,8.9184,8.9345,8.8926,8.832,8.7442,8.6787,8.6491,8.6644,8.5668,8.5566,8.6599,8.5438,8.5962,8.8201,8.734,8.7363,8.8201,8.8357,8.8446,8.8446,8.8446,8.91,9.0264,9.0264,9.0868,9.1803,9.1803,9.1803,9.1803,9.1803,9.1803,9.1803,9.1803,9.1803,9.1803,9.1803,9.1803,9.1803,9.1803,9.1803,9.1803,9.1803,9.1803,9.1803,9.1803,9.1803,9.1803,9.1803,9.1803,9.1803,9.1803,9.1803,9.1803,9.1803,9.1803,9.1803,9.1803,9.1803,9.1803,9.1803,9.1803,9.1803,9.1803,9.1803,9.1803,9.1803,9.1803,9.1803,9.1803,9.1803,9.1803,9.1803,9.1803,9.1803,9.1803,9.1803,9.1803,9.1803,9.1803,9.1803,9.1803,9.1803,9.1803,9.1803,9.1803,9.1803,9.1803,9.1803,9.1803,9.1803,9.1803,9.1803,9.1803,9.1803,9.1803,9.1803,9.1803,9.1803,9.1803,9.1803,9.1803,9.1767,8.91,8.91,8.91,8.91,8.91,8.91,8.91,8.91,8.91,8.91,8.91,8.91,8.91,8.91,8.8931,8.8497,8.8192,8.7516,8.6366,8.596,8.5679,8.5429,8.489,8.4838,8.5361,8.4864,8.5118,8.6177,8.6316,8.6316,8.6202,8.6865,8.7187,8.7187,8.7187,8.7861,8.8971,8.8971,8.9306,8.9801,8.9801,9.0168,9.0774,9.0774,9.1211,9.1803,9.1803,9.1803,9.1803,9.1803,9.1803,9.1803,9.1803,9.1803,9.1803,9.1803,9.1803,9.1803,9.1803,9.1803,9.1803,9.1803,9.1803,9.1803,9.1803,9.1803,9.1803,9.1803,9.1803,9.1803,9.1803,9.1803,9.1803,9.1803,9.1803,9.1803,9.1803,9.1803,9.1803,9.1803,9.1803,9.1803,9.1803,9.1803,9.1803,9.1803,9.1803,9.1803,9.1803,9.1803,9.1803,9.1803,9.1803,9.1803,9.1803,9.1803,9.1803,9.1803,9.1803,9.1803,9.1803,9.1803,9.1803,9.1803,9.1803,9.1803,9.1803,9.1803,9.1803,9.1803,9.1803,9.1803,9.1803,9.1803,9.1803,9.1803]}]]